Today
| Time | Wind Dr | Wind Spd mph |
Wind Gust mph |
Hum In % |
Humid % |
TempI F |
Temp F |
Raw Bar in |
Tot Rain in |
UV | Solar W/sqm |
DailyRain in |
HourRain in |
24HrRain in |
RainRate in |
|---|---|---|---|---|---|---|---|---|---|---|---|---|---|---|---|
| 05/03/26 12:01:30 AM | 36 | 0.0 | 1.0 | 53 | 75 | 72.3 | 60.7 | 29.891 | 7.14 | 0.0 | 0 | 0.00 | 0.00 | 0.00 | 0.00 |
| 05/03/26 12:02:21 AM | 34 | 0.0 | 1.0 | 53 | 75 | 72.2 | 60.7 | 29.892 | 7.14 | 0.0 | 0 | 0.00 | 0.00 | 0.00 | 0.00 |
| 05/03/26 12:03:34 AM | 36 | 0.0 | 1.0 | 53 | 75 | 72.2 | 60.6 | 29.892 | 7.14 | 0.0 | 0 | 0.00 | 0.00 | 0.00 | 0.00 |
| 05/03/26 12:04:22 AM | 34 | 0.0 | 1.0 | 53 | 75 | 72.2 | 60.6 | 29.893 | 7.14 | 0.0 | 0 | 0.00 | 0.00 | 0.00 | 0.00 |
| 05/03/26 12:05:34 AM | 38 | 0.0 | 1.0 | 53 | 76 | 72.2 | 60.5 | 29.895 | 7.14 | 0.0 | 0 | 0.00 | 0.00 | 0.00 | 0.00 |
| 05/03/26 12:06:29 AM | 35 | 0.0 | 1.0 | 53 | 76 | 72.2 | 60.5 | 29.894 | 7.14 | 0.0 | 0 | 0.00 | 0.00 | 0.00 | 0.00 |
| 05/03/26 12:07:17 AM | 36 | 0.0 | 1.0 | 53 | 76 | 72.2 | 60.5 | 29.896 | 7.14 | 0.0 | 0 | 0.00 | 0.00 | 0.00 | 0.00 |
| 05/03/26 12:08:42 AM | 36 | 0.0 | 1.0 | 53 | 76 | 72.2 | 60.5 | 29.897 | 7.14 | 0.0 | 0 | 0.00 | 0.00 | 0.00 | 0.00 |
| 05/03/26 12:09:34 AM | 34 | 0.0 | 1.0 | 53 | 76 | 72.2 | 60.4 | 29.894 | 7.14 | 0.0 | 0 | 0.00 | 0.00 | 0.00 | 0.00 |
| 05/03/26 12:10:22 AM | 34 | 0.0 | 1.0 | 53 | 76 | 72.1 | 60.4 | 29.894 | 7.14 | 0.0 | 0 | 0.00 | 0.00 | 0.00 | 0.00 |
| 05/03/26 12:11:35 AM | 36 | 0.0 | 1.0 | 53 | 76 | 72.2 | 60.4 | 29.897 | 7.14 | 0.0 | 0 | 0.00 | 0.00 | 0.00 | 0.00 |
| 05/03/26 12:12:27 AM | 34 | 0.0 | 1.0 | 53 | 76 | 72.2 | 60.3 | 29.897 | 7.14 | 0.0 | 0 | 0.00 | 0.00 | 0.00 | 0.00 |
| 05/03/26 12:13:18 AM | 34 | 0.0 | 1.0 | 53 | 76 | 72.2 | 60.3 | 29.897 | 7.14 | 0.0 | 0 | 0.00 | 0.00 | 0.00 | 0.00 |
| 05/03/26 12:14:31 AM | 32 | 0.0 | 1.0 | 53 | 76 | 72.2 | 60.3 | 29.895 | 7.14 | 0.0 | 0 | 0.00 | 0.00 | 0.00 | 0.00 |
| 05/03/26 12:15:22 AM | 36 | 0.0 | 1.0 | 53 | 76 | 72.1 | 60.3 | 29.896 | 7.14 | 0.0 | 0 | 0.00 | 0.00 | 0.00 | 0.00 |
| 05/03/26 12:16:32 AM | 34 | 0.0 | 1.0 | 53 | 76 | 72.1 | 60.3 | 29.897 | 7.14 | 0.0 | 0 | 0.00 | 0.00 | 0.00 | 0.00 |
| 05/03/26 12:17:24 AM | 37 | 0.0 | 1.0 | 53 | 76 | 72.2 | 60.2 | 29.899 | 7.14 | 0.0 | 0 | 0.00 | 0.00 | 0.00 | 0.00 |
| 05/03/26 12:18:18 AM | 32 | 0.0 | 1.0 | 53 | 77 | 72.1 | 60.2 | 29.895 | 7.14 | 0.0 | 0 | 0.00 | 0.00 | 0.00 | 0.00 |
| 05/03/26 12:19:28 AM | 30 | 0.0 | 1.0 | 53 | 77 | 72.1 | 60.2 | 29.897 | 7.14 | 0.0 | 0 | 0.00 | 0.00 | 0.00 | 0.00 |
| 05/03/26 12:20:20 AM | 37 | 0.0 | 1.0 | 53 | 77 | 72.1 | 60.2 | 29.897 | 7.14 | 0.0 | 0 | 0.00 | 0.00 | 0.00 | 0.00 |
| 05/03/26 12:21:29 AM | 35 | 0.0 | 1.0 | 53 | 77 | 72.2 | 60.2 | 29.897 | 7.14 | 0.0 | 0 | 0.00 | 0.00 | 0.00 | 0.00 |
| 05/03/26 12:22:21 AM | 36 | 0.0 | 1.0 | 53 | 77 | 72.1 | 60.2 | 29.897 | 7.14 | 0.0 | 0 | 0.00 | 0.00 | 0.00 | 0.00 |
| 05/03/26 12:23:34 AM | 36 | 0.0 | 1.0 | 53 | 77 | 72.1 | 60.1 | 29.896 | 7.14 | 0.0 | 0 | 0.00 | 0.00 | 0.00 | 0.00 |
| 05/03/26 12:24:25 AM | 34 | 0.0 | 1.0 | 53 | 77 | 72.1 | 60.1 | 29.899 | 7.14 | 0.0 | 0 | 0.00 | 0.00 | 0.00 | 0.00 |
| 05/03/26 12:25:17 AM | 37 | 0.0 | 1.0 | 53 | 77 | 72.2 | 60.1 | 29.899 | 7.14 | 0.0 | 0 | 0.00 | 0.00 | 0.00 | 0.00 |
| 05/03/26 12:26:27 AM | 36 | 0.0 | 1.0 | 53 | 77 | 72.1 | 60.0 | 29.900 | 7.14 | 0.0 | 0 | 0.00 | 0.00 | 0.00 | 0.00 |
| 05/03/26 12:27:18 AM | 37 | 0.0 | 1.0 | 53 | 77 | 72.1 | 60.0 | 29.900 | 7.14 | 0.0 | 0 | 0.00 | 0.00 | 0.00 | 0.00 |
| 05/03/26 12:28:31 AM | 32 | 0.0 | 1.0 | 53 | 77 | 72.1 | 60.0 | 29.899 | 7.14 | 0.0 | 0 | 0.00 | 0.00 | 0.00 | 0.00 |
| 05/03/26 12:29:22 AM | 38 | 0.0 | 1.0 | 53 | 77 | 72.1 | 60.0 | 29.901 | 7.14 | 0.0 | 0 | 0.00 | 0.00 | 0.00 | 0.00 |
| 05/03/26 12:30:35 AM | 32 | 0.0 | 1.0 | 53 | 77 | 72.1 | 59.9 | 29.901 | 7.14 | 0.0 | 0 | 0.00 | 0.00 | 0.00 | 0.00 |
| 05/03/26 12:31:24 AM | 36 | 0.0 | 1.0 | 53 | 77 | 72.1 | 59.9 | 29.899 | 7.14 | 0.0 | 0 | 0.00 | 0.00 | 0.00 | 0.00 |
| 05/03/26 12:32:15 AM | 36 | 0.0 | 1.0 | 53 | 77 | 72.1 | 59.9 | 29.900 | 7.14 | 0.0 | 0 | 0.00 | 0.00 | 0.00 | 0.00 |
| 05/03/26 12:33:28 AM | 34 | 0.0 | 1.0 | 53 | 78 | 72.1 | 59.9 | 29.903 | 7.14 | 0.0 | 0 | 0.00 | 0.00 | 0.00 | 0.00 |
| 05/03/26 12:34:20 AM | 38 | 0.0 | 1.0 | 53 | 78 | 72.1 | 59.9 | 29.901 | 7.14 | 0.0 | 0 | 0.00 | 0.00 | 0.00 | 0.00 |
| 05/03/26 12:35:32 AM | 36 | 0.0 | 1.0 | 53 | 78 | 72.1 | 59.9 | 29.901 | 7.14 | 0.0 | 0 | 0.00 | 0.00 | 0.00 | 0.00 |
| 05/03/26 12:36:24 AM | 38 | 2.0 | 2.0 | 53 | 78 | 72.1 | 59.9 | 29.901 | 7.14 | 0.0 | 0 | 0.00 | 0.00 | 0.00 | 0.00 |
| 05/03/26 12:37:31 AM | 35 | 1.0 | 2.0 | 53 | 78 | 72.1 | 59.9 | 29.899 | 7.14 | 0.0 | 0 | 0.00 | 0.00 | 0.00 | 0.00 |
| 05/03/26 12:38:25 AM | 32 | 1.0 | 2.0 | 53 | 78 | 72.1 | 59.9 | 29.901 | 7.14 | 0.0 | 0 | 0.00 | 0.00 | 0.00 | 0.00 |
| 05/03/26 12:39:35 AM | 31 | 1.0 | 2.0 | 53 | 78 | 72.1 | 59.9 | 29.901 | 7.14 | 0.0 | 0 | 0.00 | 0.00 | 0.00 | 0.00 |
| 05/03/26 12:40:29 AM | 35 | 1.0 | 2.0 | 53 | 78 | 72.1 | 59.9 | 29.903 | 7.14 | 0.0 | 0 | 0.00 | 0.00 | 0.00 | 0.00 |
| 05/03/26 12:41:21 AM | 38 | 1.0 | 2.0 | 53 | 78 | 72.1 | 59.9 | 29.904 | 7.14 | 0.0 | 0 | 0.00 | 0.00 | 0.00 | 0.00 |
| 05/03/26 12:42:28 AM | 36 | 1.0 | 3.0 | 53 | 78 | 72.1 | 59.9 | 29.905 | 7.14 | 0.0 | 0 | 0.00 | 0.00 | 0.00 | 0.00 |
| 05/03/26 12:43:22 AM | 31 | 1.0 | 3.0 | 53 | 78 | 72.1 | 59.9 | 29.905 | 7.14 | 0.0 | 0 | 0.00 | 0.00 | 0.00 | 0.00 |
| 05/03/26 12:44:35 AM | 31 | 0.0 | 3.0 | 53 | 78 | 72.1 | 59.9 | 29.904 | 7.14 | 0.0 | 0 | 0.00 | 0.00 | 0.00 | 0.00 |
| 05/03/26 12:45:27 AM | 34 | 1.0 | 3.0 | 53 | 78 | 72.1 | 59.9 | 29.906 | 7.14 | 0.0 | 0 | 0.00 | 0.00 | 0.00 | 0.00 |
| 05/03/26 12:46:18 AM | 38 | 1.0 | 3.0 | 53 | 78 | 72.1 | 59.8 | 29.905 | 7.14 | 0.0 | 0 | 0.00 | 0.00 | 0.00 | 0.00 |
| 05/03/26 12:47:28 AM | 36 | 0.0 | 3.0 | 53 | 78 | 72.1 | 59.8 | 29.907 | 7.14 | 0.0 | 0 | 0.00 | 0.00 | 0.00 | 0.00 |
| 05/03/26 12:48:19 AM | 35 | 0.0 | 3.0 | 53 | 78 | 72.1 | 59.8 | 29.909 | 7.14 | 0.0 | 0 | 0.00 | 0.00 | 0.00 | 0.00 |
| 05/03/26 12:49:32 AM | 35 | 0.0 | 3.0 | 53 | 78 | 72.1 | 59.8 | 29.906 | 7.14 | 0.0 | 0 | 0.00 | 0.00 | 0.00 | 0.00 |
| 05/03/26 12:50:27 AM | 38 | 0.0 | 3.0 | 53 | 78 | 72.1 | 59.7 | 29.908 | 7.14 | 0.0 | 0 | 0.00 | 0.00 | 0.00 | 0.00 |
| 05/03/26 12:51:18 AM | 32 | 0.0 | 3.0 | 53 | 78 | 72.1 | 59.7 | 29.910 | 7.14 | 0.0 | 0 | 0.00 | 0.00 | 0.00 | 0.00 |
| 05/03/26 12:52:31 AM | 35 | 0.0 | 3.0 | 53 | 78 | 72.1 | 59.7 | 29.909 | 7.14 | 0.0 | 0 | 0.00 | 0.00 | 0.00 | 0.00 |
| 05/03/26 12:53:20 AM | 39 | 0.0 | 3.0 | 53 | 78 | 72.1 | 59.6 | 29.910 | 7.14 | 0.0 | 0 | 0.00 | 0.00 | 0.00 | 0.00 |
| 05/03/26 12:54:32 AM | 32 | 0.0 | 3.0 | 53 | 78 | 72.1 | 59.6 | 29.909 | 7.14 | 0.0 | 0 | 0.00 | 0.00 | 0.00 | 0.00 |
| 05/03/26 12:55:24 AM | 35 | 0.0 | 3.0 | 53 | 78 | 72.0 | 59.6 | 29.910 | 7.14 | 0.0 | 0 | 0.00 | 0.00 | 0.00 | 0.00 |
| 05/03/26 12:56:15 AM | 31 | 0.0 | 3.0 | 53 | 78 | 72.1 | 59.6 | 29.908 | 7.14 | 0.0 | 0 | 0.00 | 0.00 | 0.00 | 0.00 |
| 05/03/26 12:57:28 AM | 36 | 0.0 | 3.0 | 53 | 78 | 72.1 | 59.6 | 29.906 | 7.14 | 0.0 | 0 | 0.00 | 0.00 | 0.00 | 0.00 |
| 05/03/26 12:58:17 AM | 38 | 0.0 | 3.0 | 53 | 78 | 72.1 | 59.6 | 29.907 | 7.14 | 0.0 | 0 | 0.00 | 0.00 | 0.00 | 0.00 |
| 05/03/26 12:59:29 AM | 38 | 0.0 | 3.0 | 53 | 78 | 72.1 | 59.5 | 29.905 | 7.14 | 0.0 | 0 | 0.00 | 0.00 | 0.00 | 0.00 |
| 05/03/26 1:00:24 AM | 35 | 0.0 | 3.0 | 53 | 78 | 72.1 | 59.5 | 29.907 | 7.14 | 0.0 | 0 | 0.00 | 0.00 | 0.00 | 0.00 |
| 05/03/26 1:01:37 AM | 36 | 0.0 | 3.0 | 53 | 78 | 72.1 | 59.5 | 29.907 | 7.14 | 0.0 | 0 | 0.00 | 0.00 | 0.00 | 0.00 |
| 05/03/26 1:02:28 AM | 30 | 0.0 | 3.0 | 53 | 78 | 72.0 | 59.5 | 29.905 | 7.14 | 0.0 | 0 | 0.00 | 0.00 | 0.00 | 0.00 |
| 05/03/26 1:03:20 AM | 36 | 0.0 | 3.0 | 53 | 79 | 72.1 | 59.4 | 29.902 | 7.14 | 0.0 | 0 | 0.00 | 0.00 | 0.00 | 0.00 |
| 05/03/26 1:04:29 AM | 36 | 0.0 | 3.0 | 53 | 79 | 72.1 | 59.4 | 29.903 | 7.14 | 0.0 | 0 | 0.00 | 0.00 | 0.00 | 0.00 |
| 05/03/26 1:05:21 AM | 34 | 0.0 | 3.0 | 53 | 79 | 72.1 | 59.4 | 29.904 | 7.14 | 0.0 | 0 | 0.00 | 0.00 | 0.00 | 0.00 |
| 05/03/26 1:06:34 AM | 36 | 0.0 | 3.0 | 53 | 79 | 72.0 | 59.4 | 29.903 | 7.14 | 0.0 | 0 | 0.00 | 0.00 | 0.00 | 0.00 |
| 05/03/26 1:07:25 AM | 34 | 0.0 | 3.0 | 53 | 79 | 72.0 | 59.4 | 29.903 | 7.14 | 0.0 | 0 | 0.00 | 0.00 | 0.00 | 0.00 |
| 05/03/26 1:08:17 AM | 38 | 0.0 | 3.0 | 53 | 79 | 72.0 | 59.4 | 29.899 | 7.14 | 0.0 | 0 | 0.00 | 0.00 | 0.00 | 0.00 |
| 05/03/26 1:09:27 AM | 36 | 0.0 | 3.0 | 53 | 79 | 72.0 | 59.4 | 29.901 | 7.14 | 0.0 | 0 | 0.00 | 0.00 | 0.00 | 0.00 |
| 05/03/26 1:10:18 AM | 32 | 0.0 | 3.0 | 53 | 79 | 72.0 | 59.4 | 29.903 | 7.14 | 0.0 | 0 | 0.00 | 0.00 | 0.00 | 0.00 |
| 05/03/26 1:11:31 AM | 32 | 0.0 | 3.0 | 53 | 79 | 72.0 | 59.3 | 29.901 | 7.14 | 0.0 | 0 | 0.00 | 0.00 | 0.00 | 0.00 |
| 05/03/26 1:12:23 AM | 37 | 0.0 | 3.0 | 53 | 79 | 72.0 | 59.3 | 29.900 | 7.14 | 0.0 | 0 | 0.00 | 0.00 | 0.00 | 0.00 |
| 05/03/26 1:13:35 AM | 32 | 0.0 | 3.0 | 53 | 79 | 72.0 | 59.3 | 29.901 | 7.14 | 0.0 | 0 | 0.00 | 0.00 | 0.00 | 0.00 |
| 05/03/26 1:14:24 AM | 36 | 0.0 | 3.0 | 53 | 79 | 72.0 | 59.3 | 29.902 | 7.14 | 0.0 | 0 | 0.00 | 0.00 | 0.00 | 0.00 |
| 05/03/26 1:15:37 AM | 36 | 0.0 | 3.0 | 53 | 79 | 72.0 | 59.3 | 29.903 | 7.14 | 0.0 | 0 | 0.00 | 0.00 | 0.00 | 0.00 |
| 05/03/26 1:16:28 AM | 36 | 0.0 | 3.0 | 53 | 79 | 72.0 | 59.3 | 29.903 | 7.14 | 0.0 | 0 | 0.00 | 0.00 | 0.00 | 0.00 |
| 05/03/26 1:17:20 AM | 34 | 0.0 | 3.0 | 53 | 79 | 72.0 | 59.2 | 29.903 | 7.14 | 0.0 | 0 | 0.00 | 0.00 | 0.00 | 0.00 |
| 05/03/26 1:18:33 AM | 36 | 0.0 | 3.0 | 53 | 79 | 72.0 | 59.2 | 29.902 | 7.14 | 0.0 | 0 | 0.00 | 0.00 | 0.00 | 0.00 |
| 05/03/26 1:19:24 AM | 36 | 0.0 | 3.0 | 53 | 79 | 72.0 | 59.2 | 29.901 | 7.14 | 0.0 | 0 | 0.00 | 0.00 | 0.00 | 0.00 |
| 05/03/26 1:20:34 AM | 35 | 0.0 | 3.0 | 53 | 79 | 72.0 | 59.1 | 29.902 | 7.14 | 0.0 | 0 | 0.00 | 0.00 | 0.00 | 0.00 |
| 05/03/26 1:21:26 AM | 32 | 0.0 | 3.0 | 53 | 79 | 72.0 | 59.1 | 29.900 | 7.14 | 0.0 | 0 | 0.00 | 0.00 | 0.00 | 0.00 |
| 05/03/26 1:22:17 AM | 36 | 0.0 | 3.0 | 53 | 79 | 71.9 | 59.1 | 29.902 | 7.14 | 0.0 | 0 | 0.00 | 0.00 | 0.00 | 0.00 |
| 05/03/26 1:23:30 AM | 35 | 0.0 | 3.0 | 53 | 79 | 71.9 | 59.1 | 29.903 | 7.14 | 0.0 | 0 | 0.00 | 0.00 | 0.00 | 0.00 |
| 05/03/26 1:24:22 AM | 38 | 0.0 | 3.0 | 53 | 79 | 71.9 | 59.0 | 29.902 | 7.14 | 0.0 | 0 | 0.00 | 0.00 | 0.00 | 0.00 |
| 05/03/26 1:25:28 AM | 37 | 0.0 | 3.0 | 53 | 79 | 72.0 | 59.0 | 29.902 | 7.14 | 0.0 | 0 | 0.00 | 0.00 | 0.00 | 0.00 |
| 05/03/26 1:26:20 AM | 36 | 0.0 | 3.0 | 53 | 79 | 71.9 | 59.0 | 29.902 | 7.14 | 0.0 | 0 | 0.00 | 0.00 | 0.00 | 0.00 |
| 05/03/26 1:27:33 AM | 36 | 0.0 | 3.0 | 53 | 79 | 71.9 | 59.0 | 29.903 | 7.14 | 0.0 | 0 | 0.00 | 0.00 | 0.00 | 0.00 |
| 05/03/26 1:28:24 AM | 36 | 0.0 | 3.0 | 53 | 79 | 71.9 | 59.0 | 29.904 | 7.14 | 0.0 | 0 | 0.00 | 0.00 | 0.00 | 0.00 |
| 05/03/26 1:29:19 AM | 36 | 0.0 | 3.0 | 53 | 79 | 71.9 | 58.9 | 29.905 | 7.14 | 0.0 | 0 | 0.00 | 0.00 | 0.00 | 0.00 |
| 05/03/26 1:30:29 AM | 38 | 0.0 | 3.0 | 53 | 79 | 71.9 | 58.9 | 29.904 | 7.14 | 0.0 | 0 | 0.00 | 0.00 | 0.00 | 0.00 |
| 05/03/26 1:31:20 AM | 34 | 0.0 | 3.0 | 53 | 79 | 71.9 | 58.9 | 29.906 | 7.14 | 0.0 | 0 | 0.00 | 0.00 | 0.00 | 0.00 |
| 05/03/26 1:32:33 AM | 36 | 0.0 | 3.0 | 53 | 79 | 71.9 | 58.9 | 29.905 | 7.14 | 0.0 | 0 | 0.00 | 0.00 | 0.00 | 0.00 |
| 05/03/26 1:33:25 AM | 37 | 0.0 | 3.0 | 53 | 79 | 71.9 | 58.8 | 29.905 | 7.14 | 0.0 | 0 | 0.00 | 0.00 | 0.00 | 0.00 |
| 05/03/26 1:34:17 AM | 37 | 0.0 | 3.0 | 53 | 79 | 71.9 | 58.8 | 29.905 | 7.14 | 0.0 | 0 | 0.00 | 0.00 | 0.00 | 0.00 |
| 05/03/26 1:35:29 AM | 37 | 0.0 | 3.0 | 53 | 80 | 71.8 | 58.8 | 29.904 | 7.14 | 0.0 | 0 | 0.00 | 0.00 | 0.00 | 0.00 |
| 05/03/26 1:36:18 AM | 37 | 0.0 | 3.0 | 53 | 80 | 71.8 | 58.8 | 29.905 | 7.14 | 0.0 | 0 | 0.00 | 0.00 | 0.00 | 0.00 |
| 05/03/26 1:37:31 AM | 37 | 0.0 | 3.0 | 53 | 80 | 71.9 | 58.7 | 29.905 | 7.14 | 0.0 | 0 | 0.00 | 0.00 | 0.00 | 0.00 |
| 05/03/26 1:38:22 AM | 36 | 0.0 | 3.0 | 53 | 80 | 71.8 | 58.7 | 29.906 | 7.14 | 0.0 | 0 | 0.00 | 0.00 | 0.00 | 0.00 |
| 05/03/26 1:39:32 AM | 36 | 0.0 | 3.0 | 53 | 80 | 71.8 | 58.7 | 29.903 | 7.14 | 0.0 | 0 | 0.00 | 0.00 | 0.00 | 0.00 |
| 05/03/26 1:40:27 AM | 34 | 0.0 | 3.0 | 53 | 80 | 71.9 | 58.7 | 29.905 | 7.14 | 0.0 | 0 | 0.00 | 0.00 | 0.00 | 0.00 |
| 05/03/26 1:41:34 AM | 37 | 0.0 | 3.0 | 53 | 80 | 71.8 | 58.7 | 29.904 | 7.14 | 0.0 | 0 | 0.00 | 0.00 | 0.00 | 0.00 |
| 05/03/26 1:42:25 AM | 36 | 0.0 | 3.0 | 53 | 80 | 71.8 | 58.6 | 29.902 | 7.14 | 0.0 | 0 | 0.00 | 0.00 | 0.00 | 0.00 |
| 05/03/26 1:43:20 AM | 34 | 0.0 | 3.0 | 53 | 80 | 71.8 | 58.6 | 29.902 | 7.14 | 0.0 | 0 | 0.00 | 0.00 | 0.00 | 0.00 |
| 05/03/26 1:44:30 AM | 36 | 0.0 | 3.0 | 53 | 80 | 71.8 | 58.6 | 29.902 | 7.14 | 0.0 | 0 | 0.00 | 0.00 | 0.00 | 0.00 |
| 05/03/26 1:45:24 AM | 32 | 0.0 | 3.0 | 53 | 80 | 71.8 | 58.6 | 29.902 | 7.14 | 0.0 | 0 | 0.00 | 0.00 | 0.00 | 0.00 |
| 05/03/26 1:46:31 AM | 31 | 0.0 | 3.0 | 53 | 80 | 71.8 | 58.6 | 29.902 | 7.14 | 0.0 | 0 | 0.00 | 0.00 | 0.00 | 0.00 |
| 05/03/26 1:47:23 AM | 32 | 0.0 | 3.0 | 53 | 80 | 71.8 | 58.6 | 29.902 | 7.14 | 0.0 | 0 | 0.00 | 0.00 | 0.00 | 0.00 |
| 05/03/26 1:48:32 AM | 34 | 0.0 | 3.0 | 53 | 80 | 71.8 | 58.6 | 29.902 | 7.14 | 0.0 | 0 | 0.00 | 0.00 | 0.00 | 0.00 |
| 05/03/26 1:49:27 AM | 37 | 0.0 | 3.0 | 53 | 80 | 71.8 | 58.6 | 29.902 | 7.14 | 0.0 | 0 | 0.00 | 0.00 | 0.00 | 0.00 |
| 05/03/26 1:50:19 AM | 32 | 0.0 | 3.0 | 53 | 80 | 71.8 | 58.6 | 29.900 | 7.14 | 0.0 | 0 | 0.00 | 0.00 | 0.00 | 0.00 |
| 05/03/26 1:51:31 AM | 30 | 0.0 | 3.0 | 53 | 81 | 71.8 | 58.5 | 29.900 | 7.14 | 0.0 | 0 | 0.00 | 0.00 | 0.00 | 0.00 |
| 05/03/26 1:52:20 AM | 36 | 0.0 | 3.0 | 53 | 81 | 71.8 | 58.6 | 29.900 | 7.14 | 0.0 | 0 | 0.00 | 0.00 | 0.00 | 0.00 |
| 05/03/26 1:53:33 AM | 36 | 0.0 | 3.0 | 53 | 81 | 71.8 | 58.5 | 29.898 | 7.14 | 0.0 | 0 | 0.00 | 0.00 | 0.00 | 0.00 |
| 05/03/26 1:54:24 AM | 34 | 0.0 | 3.0 | 53 | 81 | 71.7 | 58.5 | 29.900 | 7.14 | 0.0 | 0 | 0.00 | 0.00 | 0.00 | 0.00 |
| 05/03/26 1:55:19 AM | 35 | 0.0 | 3.0 | 53 | 81 | 71.8 | 58.5 | 29.898 | 7.14 | 0.0 | 0 | 0.00 | 0.00 | 0.00 | 0.00 |
| 05/03/26 1:56:32 AM | 35 | 0.0 | 3.0 | 53 | 81 | 71.8 | 58.5 | 29.899 | 7.14 | 0.0 | 0 | 0.00 | 0.00 | 0.00 | 0.00 |
| 05/03/26 1:57:17 AM | 32 | 0.0 | 3.0 | 53 | 81 | 71.8 | 58.5 | 29.898 | 7.14 | 0.0 | 0 | 0.00 | 0.00 | 0.00 | 0.00 |
| 05/03/26 1:58:30 AM | 38 | 0.0 | 3.0 | 53 | 81 | 71.8 | 58.5 | 29.900 | 7.14 | 0.0 | 0 | 0.00 | 0.00 | 0.00 | 0.00 |
| 05/03/26 1:59:22 AM | 35 | 0.0 | 3.0 | 53 | 81 | 71.8 | 58.5 | 29.900 | 7.14 | 0.0 | 0 | 0.00 | 0.00 | 0.00 | 0.00 |
| 05/03/26 2:00:59 AM | 38 | 0.0 | 3.0 | 53 | 81 | 71.7 | 58.5 | 29.902 | 7.14 | 0.0 | 0 | 0.00 | 0.00 | 0.00 | 0.00 |
| 05/03/26 2:01:26 AM | 32 | 0.0 | 3.0 | 53 | 81 | 71.7 | 58.5 | 29.899 | 7.14 | 0.0 | 0 | 0.00 | 0.00 | 0.00 | 0.00 |
| 05/03/26 2:02:18 AM | 30 | 0.0 | 3.0 | 53 | 81 | 71.7 | 58.5 | 29.900 | 7.14 | 0.0 | 0 | 0.00 | 0.00 | 0.00 | 0.00 |
| 05/03/26 2:03:28 AM | 35 | 0.0 | 3.0 | 53 | 81 | 71.8 | 58.5 | 29.898 | 7.14 | 0.0 | 0 | 0.00 | 0.00 | 0.00 | 0.00 |
| 05/03/26 2:04:19 AM | 34 | 0.0 | 3.0 | 53 | 81 | 71.7 | 58.5 | 29.900 | 7.14 | 0.0 | 0 | 0.00 | 0.00 | 0.00 | 0.00 |
| 05/03/26 2:05:32 AM | 37 | 0.0 | 3.0 | 53 | 81 | 71.8 | 58.4 | 29.899 | 7.14 | 0.0 | 0 | 0.00 | 0.00 | 0.00 | 0.00 |
| 05/03/26 2:06:27 AM | 34 | 0.0 | 3.0 | 53 | 81 | 71.7 | 58.4 | 29.902 | 7.14 | 0.0 | 0 | 0.00 | 0.00 | 0.00 | 0.00 |
| 05/03/26 2:07:18 AM | 38 | 0.0 | 3.0 | 53 | 81 | 71.7 | 58.4 | 29.900 | 7.14 | 0.0 | 0 | 0.00 | 0.00 | 0.00 | 0.00 |
| 05/03/26 2:08:58 AM | 35 | 0.0 | 3.0 | 53 | 81 | 71.7 | 58.4 | 29.901 | 7.14 | 0.0 | 0 | 0.00 | 0.00 | 0.00 | 0.00 |
| 05/03/26 2:09:32 AM | 34 | 0.0 | 3.0 | 53 | 81 | 71.7 | 58.4 | 29.902 | 7.14 | 0.0 | 0 | 0.00 | 0.00 | 0.00 | 0.00 |
| 05/03/26 2:10:23 AM | 31 | 0.0 | 3.0 | 53 | 81 | 71.7 | 58.3 | 29.899 | 7.14 | 0.0 | 0 | 0.00 | 0.00 | 0.00 | 0.00 |
| 05/03/26 2:11:33 AM | 36 | 0.0 | 3.0 | 53 | 81 | 71.7 | 58.3 | 29.898 | 7.14 | 0.0 | 0 | 0.00 | 0.00 | 0.00 | 0.00 |
| 05/03/26 2:12:25 AM | 38 | 0.0 | 3.0 | 53 | 81 | 71.7 | 58.3 | 29.898 | 7.14 | 0.0 | 0 | 0.00 | 0.00 | 0.00 | 0.00 |
| 05/03/26 2:13:17 AM | 35 | 0.0 | 3.0 | 53 | 81 | 71.7 | 58.3 | 29.898 | 7.14 | 0.0 | 0 | 0.00 | 0.00 | 0.00 | 0.00 |
| 05/03/26 2:14:23 AM | 34 | 0.0 | 3.0 | 53 | 81 | 71.7 | 58.2 | 29.898 | 7.14 | 0.0 | 0 | 0.00 | 0.00 | 0.00 | 0.00 |
| 05/03/26 2:15:18 AM | 37 | 0.0 | 3.0 | 53 | 81 | 71.7 | 58.2 | 29.895 | 7.14 | 0.0 | 0 | 0.00 | 0.00 | 0.00 | 0.00 |
| 05/03/26 2:16:31 AM | 37 | 0.0 | 3.0 | 53 | 81 | 71.7 | 58.2 | 29.894 | 7.14 | 0.0 | 0 | 0.00 | 0.00 | 0.00 | 0.00 |
| 05/03/26 2:17:22 AM | 32 | 0.0 | 3.0 | 53 | 81 | 71.7 | 58.2 | 29.895 | 7.14 | 0.0 | 0 | 0.00 | 0.00 | 0.00 | 0.00 |
| 05/03/26 2:18:35 AM | 34 | 0.0 | 3.0 | 53 | 81 | 71.7 | 58.1 | 29.898 | 7.14 | 0.0 | 0 | 0.00 | 0.00 | 0.00 | 0.00 |
| 05/03/26 2:19:24 AM | 38 | 0.0 | 3.0 | 53 | 81 | 71.6 | 58.1 | 29.895 | 7.14 | 0.0 | 0 | 0.00 | 0.00 | 0.00 | 0.00 |
| 05/03/26 2:20:34 AM | 32 | 0.0 | 3.0 | 53 | 81 | 71.7 | 58.1 | 29.894 | 7.14 | 0.0 | 0 | 0.00 | 0.00 | 0.00 | 0.00 |
| 05/03/26 2:21:28 AM | 34 | 0.0 | 3.0 | 53 | 81 | 71.6 | 58.1 | 29.896 | 7.14 | 0.0 | 0 | 0.00 | 0.00 | 0.00 | 0.00 |
| 05/03/26 2:22:20 AM | 32 | 0.0 | 3.0 | 53 | 81 | 71.6 | 58.0 | 29.893 | 7.14 | 0.0 | 0 | 0.00 | 0.00 | 0.00 | 0.00 |
| 05/03/26 2:23:33 AM | 36 | 0.0 | 3.0 | 53 | 81 | 71.6 | 58.0 | 29.892 | 7.14 | 0.0 | 0 | 0.00 | 0.00 | 0.00 | 0.00 |
| 05/03/26 2:24:24 AM | 34 | 0.0 | 3.0 | 53 | 81 | 71.6 | 58.0 | 29.893 | 7.14 | 0.0 | 0 | 0.00 | 0.00 | 0.00 | 0.00 |
| 05/03/26 2:25:31 AM | 34 | 0.0 | 3.0 | 53 | 81 | 71.5 | 57.9 | 29.893 | 7.14 | 0.0 | 0 | 0.00 | 0.00 | 0.00 | 0.00 |
| 05/03/26 2:26:26 AM | 38 | 0.0 | 3.0 | 53 | 81 | 71.6 | 57.9 | 29.890 | 7.14 | 0.0 | 0 | 0.00 | 0.00 | 0.00 | 0.00 |
| 05/03/26 2:27:18 AM | 35 | 0.0 | 3.0 | 53 | 81 | 71.6 | 57.9 | 29.892 | 7.14 | 0.0 | 0 | 0.00 | 0.00 | 0.00 | 0.00 |
| 05/03/26 2:28:30 AM | 38 | 0.0 | 3.0 | 53 | 81 | 71.6 | 57.8 | 29.892 | 7.14 | 0.0 | 0 | 0.00 | 0.00 | 0.00 | 0.00 |
| 05/03/26 2:29:22 AM | 36 | 0.0 | 3.0 | 53 | 81 | 71.5 | 57.8 | 29.892 | 7.14 | 0.0 | 0 | 0.00 | 0.00 | 0.00 | 0.00 |
| 05/03/26 2:30:53 AM | 37 | 0.0 | 3.0 | 53 | 81 | 71.5 | 57.8 | 29.893 | 7.14 | 0.0 | 0 | 0.00 | 0.00 | 0.00 | 0.00 |
| 05/03/26 2:31:23 AM | 36 | 0.0 | 3.0 | 53 | 81 | 71.6 | 57.7 | 29.893 | 7.14 | 0.0 | 0 | 0.00 | 0.00 | 0.00 | 0.00 |
| 05/03/26 2:32:36 AM | 32 | 0.0 | 3.0 | 53 | 81 | 71.6 | 57.7 | 29.893 | 7.14 | 0.0 | 0 | 0.00 | 0.00 | 0.00 | 0.00 |
| 05/03/26 2:33:28 AM | 34 | 0.0 | 3.0 | 53 | 81 | 71.6 | 57.7 | 29.892 | 7.14 | 0.0 | 0 | 0.00 | 0.00 | 0.00 | 0.00 |
| 05/03/26 2:34:20 AM | 38 | 0.0 | 3.0 | 53 | 81 | 71.6 | 57.7 | 29.895 | 7.14 | 0.0 | 0 | 0.00 | 0.00 | 0.00 | 0.00 |
| 05/03/26 2:35:32 AM | 34 | 0.0 | 3.0 | 53 | 81 | 71.6 | 57.6 | 29.892 | 7.14 | 0.0 | 0 | 0.00 | 0.00 | 0.00 | 0.00 |
| 05/03/26 2:36:21 AM | 36 | 0.0 | 3.0 | 53 | 81 | 71.6 | 57.6 | 29.895 | 7.14 | 0.0 | 0 | 0.00 | 0.00 | 0.00 | 0.00 |
| 05/03/26 2:37:34 AM | 34 | 0.0 | 3.0 | 53 | 81 | 71.6 | 57.6 | 29.894 | 7.14 | 0.0 | 0 | 0.00 | 0.00 | 0.00 | 0.00 |
| 05/03/26 2:38:25 AM | 37 | 0.0 | 3.0 | 53 | 81 | 71.6 | 57.6 | 29.892 | 7.14 | 0.0 | 0 | 0.00 | 0.00 | 0.00 | 0.00 |
| 05/03/26 2:39:17 AM | 35 | 0.0 | 3.0 | 53 | 81 | 71.6 | 57.5 | 29.891 | 7.14 | 0.0 | 0 | 0.00 | 0.00 | 0.00 | 0.00 |
| 05/03/26 2:40:30 AM | 36 | 0.0 | 3.0 | 53 | 81 | 71.6 | 57.5 | 29.895 | 7.14 | 0.0 | 0 | 0.00 | 0.00 | 0.00 | 0.00 |
| 05/03/26 2:41:19 AM | 36 | 0.0 | 3.0 | 53 | 81 | 71.6 | 57.5 | 29.893 | 7.14 | 0.0 | 0 | 0.00 | 0.00 | 0.00 | 0.00 |
| 05/03/26 2:42:28 AM | 36 | 0.0 | 3.0 | 53 | 81 | 71.6 | 57.5 | 29.896 | 7.14 | 0.0 | 0 | 0.00 | 0.00 | 0.00 | 0.00 |
| 05/03/26 2:43:20 AM | 34 | 0.0 | 3.0 | 53 | 81 | 71.6 | 57.4 | 29.893 | 7.14 | 0.0 | 0 | 0.00 | 0.00 | 0.00 | 0.00 |
| 05/03/26 2:44:36 AM | 36 | 0.0 | 3.0 | 53 | 81 | 71.6 | 57.4 | 29.895 | 7.14 | 0.0 | 0 | 0.00 | 0.00 | 0.00 | 0.00 |
| 05/03/26 2:45:52 AM | 36 | 0.0 | 3.0 | 53 | 81 | 71.6 | 57.4 | 29.890 | 7.14 | 0.0 | 0 | 0.00 | 0.00 | 0.00 | 0.00 |
| 05/03/26 2:46:19 AM | 34 | 0.0 | 3.0 | 53 | 81 | 71.6 | 57.3 | 29.891 | 7.14 | 0.0 | 0 | 0.00 | 0.00 | 0.00 | 0.00 |
| 05/03/26 2:47:26 AM | 35 | 0.0 | 3.0 | 53 | 81 | 71.5 | 57.3 | 29.890 | 7.14 | 0.0 | 0 | 0.00 | 0.00 | 0.00 | 0.00 |
| 05/03/26 2:48:21 AM | 36 | 0.0 | 3.0 | 53 | 81 | 71.6 | 57.3 | 29.887 | 7.14 | 0.0 | 0 | 0.00 | 0.00 | 0.00 | 0.00 |
| 05/03/26 2:49:33 AM | 35 | 0.0 | 3.0 | 53 | 81 | 71.5 | 57.2 | 29.889 | 7.14 | 0.0 | 0 | 0.00 | 0.00 | 0.00 | 0.00 |
| 05/03/26 2:50:25 AM | 37 | 0.0 | 3.0 | 53 | 81 | 71.6 | 57.2 | 29.888 | 7.14 | 0.0 | 0 | 0.00 | 0.00 | 0.00 | 0.00 |
| 05/03/26 2:51:17 AM | 31 | 0.0 | 3.0 | 53 | 81 | 71.5 | 57.2 | 29.888 | 7.14 | 0.0 | 0 | 0.00 | 0.00 | 0.00 | 0.00 |
| 05/03/26 2:52:26 AM | 36 | 0.0 | 3.0 | 53 | 82 | 71.5 | 57.1 | 29.889 | 7.14 | 0.0 | 0 | 0.00 | 0.00 | 0.00 | 0.00 |
| 05/03/26 2:53:18 AM | 37 | 0.0 | 3.0 | 53 | 82 | 71.5 | 57.1 | 29.893 | 7.14 | 0.0 | 0 | 0.00 | 0.00 | 0.00 | 0.00 |
| 05/03/26 2:54:31 AM | 34 | 0.0 | 3.0 | 53 | 82 | 71.5 | 57.1 | 29.891 | 7.14 | 0.0 | 0 | 0.00 | 0.00 | 0.00 | 0.00 |
| 05/03/26 2:55:25 AM | 38 | 0.0 | 3.0 | 53 | 82 | 71.5 | 57.1 | 29.893 | 7.14 | 0.0 | 0 | 0.00 | 0.00 | 0.00 | 0.00 |
| 05/03/26 2:56:35 AM | 34 | 0.0 | 3.0 | 53 | 82 | 71.5 | 57.0 | 29.892 | 7.14 | 0.0 | 0 | 0.00 | 0.00 | 0.00 | 0.00 |
| 05/03/26 2:57:27 AM | 38 | 0.0 | 3.0 | 53 | 82 | 71.5 | 57.0 | 29.893 | 7.14 | 0.0 | 0 | 0.00 | 0.00 | 0.00 | 0.00 |
| 05/03/26 2:58:37 AM | 36 | 0.0 | 3.0 | 53 | 82 | 71.5 | 56.9 | 29.892 | 7.14 | 0.0 | 0 | 0.00 | 0.00 | 0.00 | 0.00 |
| 05/03/26 2:59:28 AM | 37 | 0.0 | 3.0 | 53 | 82 | 71.5 | 56.8 | 29.892 | 7.14 | 0.0 | 0 | 0.00 | 0.00 | 0.00 | 0.00 |
| 05/03/26 3:00:23 AM | 37 | 0.0 | 3.0 | 53 | 82 | 71.5 | 56.8 | 29.892 | 7.14 | 0.0 | 0 | 0.00 | 0.00 | 0.00 | 0.00 |
| 05/03/26 3:01:33 AM | 37 | 0.0 | 3.0 | 53 | 82 | 71.4 | 56.7 | 29.893 | 7.14 | 0.0 | 0 | 0.00 | 0.00 | 0.00 | 0.00 |
| 05/03/26 3:02:24 AM | 38 | 0.0 | 3.0 | 53 | 82 | 71.5 | 56.7 | 29.892 | 7.14 | 0.0 | 0 | 0.00 | 0.00 | 0.00 | 0.00 |
| 05/03/26 3:03:31 AM | 37 | 0.0 | 3.0 | 53 | 82 | 71.5 | 56.7 | 29.895 | 7.14 | 0.0 | 0 | 0.00 | 0.00 | 0.00 | 0.00 |
| 05/03/26 3:04:26 AM | 30 | 0.0 | 3.0 | 53 | 82 | 71.5 | 56.6 | 29.896 | 7.14 | 0.0 | 0 | 0.00 | 0.00 | 0.00 | 0.00 |
| 05/03/26 3:05:18 AM | 37 | 0.0 | 3.0 | 53 | 82 | 71.4 | 56.6 | 29.894 | 7.14 | 0.0 | 0 | 0.00 | 0.00 | 0.00 | 0.00 |
| 05/03/26 3:06:30 AM | 34 | 0.0 | 3.0 | 53 | 82 | 71.4 | 56.6 | 29.896 | 7.14 | 0.0 | 0 | 0.00 | 0.00 | 0.00 | 0.00 |
| 05/03/26 3:07:22 AM | 37 | 0.0 | 3.0 | 53 | 82 | 71.5 | 56.5 | 29.897 | 7.14 | 0.0 | 0 | 0.00 | 0.00 | 0.00 | 0.00 |
| 05/03/26 3:08:29 AM | 36 | 0.0 | 3.0 | 53 | 82 | 71.4 | 56.4 | 29.896 | 7.14 | 0.0 | 0 | 0.00 | 0.00 | 0.00 | 0.00 |
| 05/03/26 3:09:24 AM | 36 | 0.0 | 3.0 | 53 | 82 | 71.4 | 56.4 | 29.896 | 7.14 | 0.0 | 0 | 0.00 | 0.00 | 0.00 | 0.00 |
| 05/03/26 3:10:33 AM | 36 | 0.0 | 3.0 | 53 | 83 | 71.4 | 56.4 | 29.898 | 7.14 | 0.0 | 0 | 0.00 | 0.00 | 0.00 | 0.00 |
| 05/03/26 3:11:25 AM | 37 | 0.0 | 3.0 | 53 | 83 | 71.4 | 56.4 | 29.898 | 7.14 | 0.0 | 0 | 0.00 | 0.00 | 0.00 | 0.00 |
| 05/03/26 3:12:17 AM | 38 | 0.0 | 3.0 | 53 | 83 | 71.4 | 56.4 | 29.898 | 7.14 | 0.0 | 0 | 0.00 | 0.00 | 0.00 | 0.00 |
| 05/03/26 3:13:29 AM | 36 | 0.0 | 3.0 | 53 | 83 | 71.3 | 56.4 | 29.898 | 7.14 | 0.0 | 0 | 0.00 | 0.00 | 0.00 | 0.00 |
| 05/03/26 3:14:18 AM | 37 | 0.0 | 3.0 | 53 | 83 | 71.3 | 56.3 | 29.898 | 7.14 | 0.0 | 0 | 0.00 | 0.00 | 0.00 | 0.00 |
| 05/03/26 3:15:31 AM | 35 | 0.0 | 3.0 | 53 | 83 | 71.4 | 56.3 | 29.895 | 7.14 | 0.0 | 0 | 0.00 | 0.00 | 0.00 | 0.00 |
| 05/03/26 3:16:23 AM | 31 | 0.0 | 3.0 | 53 | 83 | 71.3 | 56.2 | 29.896 | 7.14 | 0.0 | 0 | 0.00 | 0.00 | 0.00 | 0.00 |
| 05/03/26 3:17:33 AM | 32 | 0.0 | 3.0 | 53 | 83 | 71.4 | 56.3 | 29.900 | 7.14 | 0.0 | 0 | 0.00 | 0.00 | 0.00 | 0.00 |
| 05/03/26 3:18:27 AM | 34 | 0.0 | 3.0 | 53 | 83 | 71.4 | 56.2 | 29.898 | 7.14 | 0.0 | 0 | 0.00 | 0.00 | 0.00 | 0.00 |
| 05/03/26 3:19:34 AM | 37 | 0.0 | 3.0 | 53 | 83 | 71.3 | 56.2 | 29.899 | 7.14 | 0.0 | 0 | 0.00 | 0.00 | 0.00 | 0.00 |
| 05/03/26 3:20:26 AM | 36 | 0.0 | 3.0 | 53 | 83 | 71.3 | 56.2 | 29.898 | 7.14 | 0.0 | 0 | 0.00 | 0.00 | 0.00 | 0.00 |
| 05/03/26 3:21:18 AM | 34 | 0.0 | 3.0 | 53 | 83 | 71.3 | 56.2 | 29.897 | 7.14 | 0.0 | 0 | 0.00 | 0.00 | 0.00 | 0.00 |
| 05/03/26 3:22:31 AM | 36 | 0.0 | 3.0 | 53 | 84 | 71.3 | 56.2 | 29.895 | 7.14 | 0.0 | 0 | 0.00 | 0.00 | 0.00 | 0.00 |
| 05/03/26 3:23:22 AM | 36 | 0.0 | 3.0 | 53 | 84 | 71.3 | 56.2 | 29.898 | 7.14 | 0.0 | 0 | 0.00 | 0.00 | 0.00 | 0.00 |
| 05/03/26 3:24:32 AM | 31 | 0.0 | 3.0 | 53 | 84 | 71.3 | 56.2 | 29.895 | 7.14 | 0.0 | 0 | 0.00 | 0.00 | 0.00 | 0.00 |
| 05/03/26 3:25:24 AM | 32 | 0.0 | 3.0 | 53 | 84 | 71.3 | 56.2 | 29.894 | 7.14 | 0.0 | 0 | 0.00 | 0.00 | 0.00 | 0.00 |
| 05/03/26 3:26:34 AM | 34 | 0.0 | 3.0 | 53 | 84 | 71.3 | 56.2 | 29.896 | 7.14 | 0.0 | 0 | 0.00 | 0.00 | 0.00 | 0.00 |
| 05/03/26 3:27:25 AM | 36 | 0.0 | 3.0 | 53 | 84 | 71.3 | 56.1 | 29.895 | 7.14 | 0.0 | 0 | 0.00 | 0.00 | 0.00 | 0.00 |
| 05/03/26 3:28:17 AM | 36 | 0.0 | 3.0 | 53 | 84 | 71.2 | 56.1 | 29.891 | 7.14 | 0.0 | 0 | 0.00 | 0.00 | 0.00 | 0.00 |
| 05/03/26 3:29:30 AM | 35 | 0.0 | 3.0 | 53 | 84 | 71.2 | 56.1 | 29.894 | 7.14 | 0.0 | 0 | 0.00 | 0.00 | 0.00 | 0.00 |
| 05/03/26 3:30:43 AM | 34 | 0.0 | 3.0 | 53 | 84 | 71.3 | 56.1 | 29.890 | 7.14 | 0.0 | 0 | 0.00 | 0.00 | 0.00 | 0.00 |
| 05/03/26 3:31:34 AM | 37 | 0.0 | 3.0 | 53 | 84 | 71.2 | 56.0 | 29.891 | 7.14 | 0.0 | 0 | 0.00 | 0.00 | 0.00 | 0.00 |
| 05/03/26 3:32:26 AM | 34 | 0.0 | 3.0 | 53 | 84 | 71.2 | 56.0 | 29.888 | 7.14 | 0.0 | 0 | 0.00 | 0.00 | 0.00 | 0.00 |
| 05/03/26 3:33:21 AM | 36 | 0.0 | 3.0 | 53 | 84 | 71.2 | 56.0 | 29.892 | 7.14 | 0.0 | 0 | 0.00 | 0.00 | 0.00 | 0.00 |
| 05/03/26 3:34:31 AM | 36 | 0.0 | 3.0 | 53 | 84 | 71.1 | 56.0 | 29.892 | 7.14 | 0.0 | 0 | 0.00 | 0.00 | 0.00 | 0.00 |
| 05/03/26 3:35:22 AM | 37 | 0.0 | 3.0 | 53 | 84 | 71.2 | 56.0 | 29.889 | 7.14 | 0.0 | 0 | 0.00 | 0.00 | 0.00 | 0.00 |
| 05/03/26 3:36:32 AM | 34 | 0.0 | 3.0 | 53 | 84 | 71.2 | 56.0 | 29.890 | 7.14 | 0.0 | 0 | 0.00 | 0.00 | 0.00 | 0.00 |
| 05/03/26 3:37:24 AM | 36 | 0.0 | 3.0 | 53 | 85 | 71.2 | 56.1 | 29.889 | 7.14 | 0.0 | 0 | 0.00 | 0.00 | 0.00 | 0.00 |
| 05/03/26 3:38:19 AM | 38 | 0.0 | 3.0 | 53 | 85 | 71.1 | 56.1 | 29.891 | 7.14 | 0.0 | 0 | 0.00 | 0.00 | 0.00 | 0.00 |
| 05/03/26 3:39:29 AM | 32 | 0.0 | 3.0 | 53 | 85 | 71.2 | 56.1 | 29.889 | 7.14 | 0.0 | 0 | 0.00 | 0.00 | 0.00 | 0.00 |
| 05/03/26 3:40:20 AM | 34 | 0.0 | 3.0 | 53 | 85 | 71.2 | 56.1 | 29.888 | 7.14 | 0.0 | 0 | 0.00 | 0.00 | 0.00 | 0.00 |
| 05/03/26 3:41:30 AM | 35 | 0.0 | 3.0 | 53 | 85 | 71.2 | 56.0 | 29.889 | 7.14 | 0.0 | 0 | 0.00 | 0.00 | 0.00 | 0.00 |
| 05/03/26 3:42:22 AM | 34 | 0.0 | 3.0 | 53 | 85 | 71.2 | 56.0 | 29.889 | 7.14 | 0.0 | 0 | 0.00 | 0.00 | 0.00 | 0.00 |
| 05/03/26 3:43:31 AM | 37 | 0.0 | 3.0 | 53 | 85 | 71.2 | 56.0 | 29.890 | 7.14 | 0.0 | 0 | 0.00 | 0.00 | 0.00 | 0.00 |
| 05/03/26 3:44:23 AM | 35 | 0.0 | 3.0 | 53 | 85 | 71.1 | 56.0 | 29.891 | 7.14 | 0.0 | 0 | 0.00 | 0.00 | 0.00 | 0.00 |
| 05/03/26 3:45:36 AM | 36 | 0.0 | 3.0 | 53 | 85 | 71.2 | 56.0 | 29.892 | 7.14 | 0.0 | 0 | 0.00 | 0.00 | 0.00 | 0.00 |
| 05/03/26 3:46:25 AM | 35 | 0.0 | 3.0 | 53 | 85 | 71.2 | 56.0 | 29.890 | 7.14 | 0.0 | 0 | 0.00 | 0.00 | 0.00 | 0.00 |
| 05/03/26 3:47:35 AM | 34 | 0.0 | 3.0 | 53 | 85 | 71.2 | 56.0 | 29.891 | 7.14 | 0.0 | 0 | 0.00 | 0.00 | 0.00 | 0.00 |
| 05/03/26 3:48:26 AM | 32 | 0.0 | 3.0 | 53 | 85 | 71.2 | 55.9 | 29.891 | 7.14 | 0.0 | 0 | 0.00 | 0.00 | 0.00 | 0.00 |
| 05/03/26 3:49:21 AM | 35 | 0.0 | 3.0 | 53 | 85 | 71.1 | 55.9 | 29.892 | 7.14 | 0.0 | 0 | 0.00 | 0.00 | 0.00 | 0.00 |
| 05/03/26 3:50:31 AM | 36 | 0.0 | 3.0 | 53 | 84 | 71.2 | 55.9 | 29.890 | 7.14 | 0.0 | 0 | 0.00 | 0.00 | 0.00 | 0.00 |
| 05/03/26 3:51:22 AM | 31 | 0.0 | 3.0 | 53 | 84 | 71.1 | 55.8 | 29.890 | 7.14 | 0.0 | 0 | 0.00 | 0.00 | 0.00 | 0.00 |
| 05/03/26 3:52:32 AM | 35 | 0.0 | 3.0 | 53 | 84 | 71.2 | 55.7 | 29.891 | 7.14 | 0.0 | 0 | 0.00 | 0.00 | 0.00 | 0.00 |
| 05/03/26 3:53:24 AM | 35 | 0.0 | 3.0 | 53 | 84 | 71.1 | 55.7 | 29.891 | 7.14 | 0.0 | 0 | 0.00 | 0.00 | 0.00 | 0.00 |
| 05/03/26 3:54:16 AM | 35 | 0.0 | 3.0 | 53 | 84 | 71.1 | 55.6 | 29.891 | 7.14 | 0.0 | 0 | 0.00 | 0.00 | 0.00 | 0.00 |
| 05/03/26 3:55:29 AM | 36 | 1.0 | 3.0 | 53 | 84 | 71.1 | 55.5 | 29.891 | 7.14 | 0.0 | 0 | 0.00 | 0.00 | 0.00 | 0.00 |
| 05/03/26 3:56:20 AM | 36 | 3.0 | 3.0 | 53 | 84 | 71.1 | 55.4 | 29.889 | 7.14 | 0.0 | 0 | 0.00 | 0.00 | 0.00 | 0.00 |
| 05/03/26 3:57:30 AM | 34 | 2.0 | 3.0 | 53 | 84 | 71.1 | 55.3 | 29.890 | 7.14 | 0.0 | 0 | 0.00 | 0.00 | 0.00 | 0.00 |
| 05/03/26 3:58:22 AM | 36 | 2.0 | 3.0 | 53 | 84 | 71.1 | 55.3 | 29.890 | 7.14 | 0.0 | 0 | 0.00 | 0.00 | 0.00 | 0.00 |
| 05/03/26 3:59:35 AM | 34 | 2.0 | 3.0 | 53 | 85 | 71.1 | 55.3 | 29.892 | 7.14 | 0.0 | 0 | 0.00 | 0.00 | 0.00 | 0.00 |
| 05/03/26 4:00:26 AM | 34 | 3.0 | 3.0 | 53 | 85 | 71.1 | 55.3 | 29.892 | 7.14 | 0.0 | 0 | 0.00 | 0.00 | 0.00 | 0.00 |
| 05/03/26 4:01:18 AM | 35 | 2.0 | 3.0 | 53 | 85 | 71.1 | 55.3 | 29.893 | 7.14 | 0.0 | 0 | 0.00 | 0.00 | 0.00 | 0.00 |
| 05/03/26 4:02:25 AM | 32 | 1.0 | 3.0 | 53 | 85 | 71.1 | 55.3 | 29.891 | 7.14 | 0.0 | 0 | 0.00 | 0.00 | 0.00 | 0.00 |
| 05/03/26 4:03:16 AM | 36 | 1.0 | 3.0 | 53 | 85 | 71.1 | 55.3 | 29.890 | 7.14 | 0.0 | 0 | 0.00 | 0.00 | 0.00 | 0.00 |
| 05/03/26 4:04:29 AM | 35 | 0.0 | 3.0 | 53 | 85 | 71.1 | 55.3 | 29.888 | 7.14 | 0.0 | 0 | 0.00 | 0.00 | 0.00 | 0.00 |
| 05/03/26 4:05:21 AM | 36 | 0.0 | 3.0 | 53 | 85 | 71.1 | 55.3 | 29.890 | 7.14 | 0.0 | 0 | 0.00 | 0.00 | 0.00 | 0.00 |
| 05/03/26 4:06:34 AM | 37 | 0.0 | 3.0 | 53 | 85 | 71.1 | 55.3 | 29.887 | 7.14 | 0.0 | 0 | 0.00 | 0.00 | 0.00 | 0.00 |
| 05/03/26 4:07:25 AM | 36 | 0.0 | 3.0 | 53 | 85 | 71.0 | 55.3 | 29.887 | 7.14 | 0.0 | 0 | 0.00 | 0.00 | 0.00 | 0.00 |
| 05/03/26 4:08:44 AM | 36 | 0.0 | 3.0 | 53 | 85 | 71.1 | 55.3 | 29.888 | 7.14 | 0.0 | 0 | 0.00 | 0.00 | 0.00 | 0.00 |
| 05/03/26 4:09:18 AM | 37 | 0.0 | 3.0 | 53 | 85 | 71.1 | 55.3 | 29.891 | 7.14 | 0.0 | 0 | 0.00 | 0.00 | 0.00 | 0.00 |
| 05/03/26 4:10:31 AM | 36 | 0.0 | 3.0 | 53 | 85 | 71.0 | 55.3 | 29.889 | 7.14 | 0.0 | 0 | 0.00 | 0.00 | 0.00 | 0.00 |
| 05/03/26 4:11:22 AM | 30 | 0.0 | 3.0 | 53 | 85 | 71.0 | 55.3 | 29.889 | 7.14 | 0.0 | 0 | 0.00 | 0.00 | 0.00 | 0.00 |
| 05/03/26 4:12:35 AM | 31 | 0.0 | 3.0 | 53 | 85 | 71.1 | 55.3 | 29.888 | 7.14 | 0.0 | 0 | 0.00 | 0.00 | 0.00 | 0.00 |
| 05/03/26 4:13:24 AM | 35 | 0.0 | 3.0 | 53 | 85 | 71.0 | 55.3 | 29.888 | 7.14 | 0.0 | 0 | 0.00 | 0.00 | 0.00 | 0.00 |
| 05/03/26 4:14:34 AM | 36 | 0.0 | 3.0 | 53 | 85 | 71.0 | 55.3 | 29.888 | 7.14 | 0.0 | 0 | 0.00 | 0.00 | 0.00 | 0.00 |
| 05/03/26 4:15:28 AM | 37 | 0.0 | 3.0 | 53 | 85 | 71.0 | 55.3 | 29.888 | 7.14 | 0.0 | 0 | 0.00 | 0.00 | 0.00 | 0.00 |
| 05/03/26 4:16:17 AM | 35 | 0.0 | 3.0 | 53 | 86 | 71.0 | 55.3 | 29.887 | 7.14 | 0.0 | 0 | 0.00 | 0.00 | 0.00 | 0.00 |
| 05/03/26 4:17:30 AM | 36 | 0.0 | 3.0 | 53 | 86 | 71.0 | 55.3 | 29.890 | 7.14 | 0.0 | 0 | 0.00 | 0.00 | 0.00 | 0.00 |
| 05/03/26 4:18:25 AM | 32 | 0.0 | 3.0 | 53 | 86 | 71.0 | 55.3 | 29.889 | 7.14 | 0.0 | 0 | 0.00 | 0.00 | 0.00 | 0.00 |
| 05/03/26 4:19:32 AM | 38 | 0.0 | 3.0 | 53 | 86 | 71.0 | 55.3 | 29.889 | 7.14 | 0.0 | 0 | 0.00 | 0.00 | 0.00 | 0.00 |
| 05/03/26 4:20:23 AM | 32 | 0.0 | 3.0 | 53 | 86 | 71.0 | 55.3 | 29.889 | 7.14 | 0.0 | 0 | 0.00 | 0.00 | 0.00 | 0.00 |
| 05/03/26 4:21:33 AM | 32 | 0.0 | 3.0 | 53 | 86 | 71.0 | 55.3 | 29.888 | 7.14 | 0.0 | 0 | 0.00 | 0.00 | 0.00 | 0.00 |
| 05/03/26 4:22:25 AM | 38 | 0.0 | 3.0 | 53 | 86 | 71.0 | 55.4 | 29.886 | 7.14 | 0.0 | 0 | 0.00 | 0.00 | 0.00 | 0.00 |
| 05/03/26 4:23:16 AM | 31 | 0.0 | 3.0 | 53 | 86 | 71.0 | 55.4 | 29.885 | 7.14 | 0.0 | 0 | 0.00 | 0.00 | 0.00 | 0.00 |
| 05/03/26 4:24:26 AM | 36 | 0.0 | 3.0 | 53 | 86 | 71.0 | 55.4 | 29.884 | 7.14 | 0.0 | 0 | 0.00 | 0.00 | 0.00 | 0.00 |
| 05/03/26 4:25:18 AM | 34 | 0.0 | 3.0 | 53 | 86 | 71.0 | 55.5 | 29.886 | 7.14 | 0.0 | 0 | 0.00 | 0.00 | 0.00 | 0.00 |
| 05/03/26 4:26:31 AM | 32 | 0.0 | 3.0 | 53 | 86 | 71.0 | 55.5 | 29.885 | 7.14 | 0.0 | 0 | 0.00 | 0.00 | 0.00 | 0.00 |
| 05/03/26 4:27:22 AM | 36 | 0.0 | 3.0 | 53 | 86 | 71.0 | 55.6 | 29.885 | 7.14 | 0.0 | 0 | 0.00 | 0.00 | 0.00 | 0.00 |
| 05/03/26 4:28:35 AM | 34 | 0.0 | 3.0 | 53 | 86 | 71.0 | 55.7 | 29.886 | 7.14 | 0.0 | 0 | 0.00 | 0.00 | 0.00 | 0.00 |
| 05/03/26 4:29:21 AM | 36 | 0.0 | 3.0 | 53 | 86 | 71.0 | 55.7 | 29.886 | 7.14 | 0.0 | 0 | 0.00 | 0.00 | 0.00 | 0.00 |
| 05/03/26 4:30:37 AM | 34 | 0.0 | 3.0 | 53 | 86 | 71.0 | 55.7 | 29.885 | 7.14 | 0.0 | 0 | 0.00 | 0.00 | 0.00 | 0.00 |
| 05/03/26 4:31:26 AM | 38 | 1.0 | 3.0 | 53 | 86 | 71.0 | 55.7 | 29.884 | 7.14 | 0.0 | 0 | 0.00 | 0.00 | 0.00 | 0.00 |
| 05/03/26 4:32:17 AM | 32 | 1.0 | 3.0 | 53 | 86 | 71.0 | 55.8 | 29.884 | 7.14 | 0.0 | 0 | 0.00 | 0.00 | 0.00 | 0.00 |
| 05/03/26 4:33:30 AM | 34 | 0.0 | 3.0 | 53 | 86 | 71.0 | 55.8 | 29.887 | 7.14 | 0.0 | 0 | 0.00 | 0.00 | 0.00 | 0.00 |
| 05/03/26 4:34:25 AM | 31 | 0.0 | 3.0 | 53 | 86 | 71.0 | 55.9 | 29.886 | 7.14 | 0.0 | 0 | 0.00 | 0.00 | 0.00 | 0.00 |
| 05/03/26 4:35:32 AM | 38 | 0.0 | 3.0 | 53 | 86 | 71.1 | 55.9 | 29.886 | 7.14 | 0.0 | 0 | 0.00 | 0.00 | 0.00 | 0.00 |
| 05/03/26 4:36:23 AM | 35 | 0.0 | 3.0 | 53 | 86 | 71.0 | 55.9 | 29.887 | 7.14 | 0.0 | 0 | 0.00 | 0.00 | 0.00 | 0.00 |
| 05/03/26 4:37:36 AM | 38 | 2.0 | 3.0 | 53 | 87 | 71.1 | 55.9 | 29.884 | 7.14 | 0.0 | 0 | 0.00 | 0.00 | 0.00 | 0.00 |
| 05/03/26 4:38:28 AM | 36 | 2.0 | 4.0 | 53 | 87 | 71.1 | 56.0 | 29.888 | 7.14 | 0.0 | 0 | 0.00 | 0.00 | 0.00 | 0.00 |
| 05/03/26 4:39:20 AM | 36 | 1.0 | 4.0 | 53 | 87 | 71.1 | 56.0 | 29.887 | 7.14 | 0.0 | 0 | 0.00 | 0.00 | 0.00 | 0.00 |
| 05/03/26 4:40:30 AM | 35 | 3.0 | 4.0 | 53 | 87 | 71.0 | 56.0 | 29.885 | 7.14 | 0.0 | 0 | 0.00 | 0.00 | 0.00 | 0.00 |
| 05/03/26 4:41:21 AM | 35 | 1.0 | 4.0 | 53 | 87 | 71.0 | 56.1 | 29.887 | 7.14 | 0.0 | 0 | 0.00 | 0.00 | 0.00 | 0.00 |
| 05/03/26 4:42:34 AM | 34 | 2.0 | 4.0 | 53 | 87 | 71.0 | 56.1 | 29.889 | 7.14 | 0.0 | 0 | 0.00 | 0.00 | 0.00 | 0.00 |
| 05/03/26 4:43:26 AM | 38 | 2.0 | 4.0 | 53 | 87 | 71.0 | 56.2 | 29.887 | 7.14 | 0.0 | 0 | 0.00 | 0.00 | 0.00 | 0.00 |
| 05/03/26 4:44:18 AM | 32 | 2.0 | 4.0 | 53 | 87 | 71.1 | 56.2 | 29.888 | 7.14 | 0.0 | 0 | 0.00 | 0.00 | 0.00 | 0.00 |
| 05/03/26 4:45:27 AM | 32 | 2.0 | 4.0 | 53 | 87 | 71.1 | 56.2 | 29.887 | 7.14 | 0.0 | 0 | 0.00 | 0.00 | 0.00 | 0.00 |
| 05/03/26 4:46:19 AM | 36 | 0.0 | 4.0 | 53 | 87 | 71.1 | 56.3 | 29.885 | 7.14 | 0.0 | 0 | 0.00 | 0.00 | 0.00 | 0.00 |
| 05/03/26 4:47:32 AM | 36 | 1.0 | 4.0 | 53 | 87 | 71.0 | 56.3 | 29.886 | 7.14 | 0.0 | 0 | 0.00 | 0.00 | 0.00 | 0.00 |
| 05/03/26 4:48:24 AM | 35 | 2.0 | 4.0 | 53 | 87 | 71.0 | 56.3 | 29.885 | 7.14 | 0.0 | 0 | 0.00 | 0.00 | 0.00 | 0.00 |
| 05/03/26 4:49:37 AM | 36 | 2.0 | 4.0 | 53 | 87 | 71.0 | 56.3 | 29.885 | 7.14 | 0.0 | 0 | 0.00 | 0.00 | 0.00 | 0.00 |
| 05/03/26 4:50:28 AM | 36 | 4.0 | 4.0 | 53 | 87 | 71.0 | 56.4 | 29.886 | 7.14 | 0.0 | 0 | 0.00 | 0.00 | 0.00 | 0.00 |
| 05/03/26 4:51:35 AM | 35 | 3.0 | 4.0 | 53 | 87 | 71.0 | 56.4 | 29.887 | 7.14 | 0.0 | 0 | 0.00 | 0.00 | 0.00 | 0.00 |
| 05/03/26 4:52:27 AM | 35 | 2.0 | 4.0 | 53 | 87 | 71.0 | 56.4 | 29.887 | 7.14 | 0.0 | 0 | 0.00 | 0.00 | 0.00 | 0.00 |
| 05/03/26 4:53:19 AM | 35 | 1.0 | 4.0 | 53 | 87 | 71.1 | 56.4 | 29.885 | 7.14 | 0.0 | 0 | 0.00 | 0.00 | 0.00 | 0.00 |
| 05/03/26 4:54:28 AM | 36 | 0.0 | 4.0 | 53 | 87 | 71.0 | 56.4 | 29.887 | 7.14 | 0.0 | 0 | 0.00 | 0.00 | 0.00 | 0.00 |
| 05/03/26 4:55:23 AM | 38 | 2.0 | 4.0 | 53 | 87 | 71.0 | 56.4 | 29.885 | 7.14 | 0.0 | 0 | 0.00 | 0.00 | 0.00 | 0.00 |
| 05/03/26 4:56:30 AM | 36 | 1.0 | 4.0 | 53 | 87 | 71.0 | 56.4 | 29.883 | 7.14 | 0.0 | 0 | 0.00 | 0.00 | 0.00 | 0.00 |
| 05/03/26 4:57:22 AM | 32 | 1.0 | 4.0 | 53 | 87 | 71.0 | 56.4 | 29.885 | 7.14 | 0.0 | 0 | 0.00 | 0.00 | 0.00 | 0.00 |
| 05/03/26 4:58:35 AM | 32 | 0.0 | 4.0 | 53 | 87 | 71.0 | 56.4 | 29.885 | 7.14 | 0.0 | 0 | 0.00 | 0.00 | 0.00 | 0.00 |
| 05/03/26 4:59:29 AM | 35 | 1.0 | 4.0 | 53 | 87 | 71.0 | 56.4 | 29.884 | 7.14 | 0.0 | 0 | 0.00 | 0.00 | 0.00 | 0.00 |
| 05/03/26 5:00:21 AM | 35 | 1.0 | 4.0 | 53 | 87 | 71.0 | 56.4 | 29.885 | 7.14 | 0.0 | 0 | 0.00 | 0.00 | 0.00 | 0.00 |
| 05/03/26 5:01:31 AM | 36 | 0.0 | 4.0 | 53 | 87 | 71.0 | 56.4 | 29.882 | 7.14 | 0.0 | 0 | 0.00 | 0.00 | 0.00 | 0.00 |
| 05/03/26 5:02:23 AM | 36 | 0.0 | 4.0 | 53 | 87 | 71.0 | 56.5 | 29.884 | 7.14 | 0.0 | 0 | 0.00 | 0.00 | 0.00 | 0.00 |
| 05/03/26 5:03:36 AM | 35 | 0.0 | 4.0 | 53 | 87 | 71.0 | 56.4 | 29.885 | 7.14 | 0.0 | 0 | 0.00 | 0.00 | 0.00 | 0.00 |
| 05/03/26 5:04:27 AM | 36 | 0.0 | 4.0 | 53 | 87 | 71.0 | 56.5 | 29.886 | 7.14 | 0.0 | 0 | 0.00 | 0.00 | 0.00 | 0.00 |
| 05/03/26 5:05:19 AM | 36 | 0.0 | 4.0 | 53 | 87 | 71.0 | 56.5 | 29.886 | 7.14 | 0.0 | 0 | 0.00 | 0.00 | 0.00 | 0.00 |
| 05/03/26 5:06:29 AM | 36 | 2.0 | 4.0 | 53 | 87 | 70.9 | 56.5 | 29.883 | 7.14 | 0.0 | 0 | 0.00 | 0.00 | 0.00 | 0.00 |
| 05/03/26 5:07:18 AM | 38 | 2.0 | 4.0 | 53 | 87 | 70.8 | 56.5 | 29.885 | 7.14 | 0.0 | 0 | 0.00 | 0.00 | 0.00 | 0.00 |
| 05/03/26 5:08:31 AM | 36 | 2.0 | 4.0 | 54 | 87 | 70.7 | 56.5 | 29.883 | 7.14 | 0.0 | 0 | 0.00 | 0.00 | 0.00 | 0.00 |
| 05/03/26 5:09:22 AM | 36 | 2.0 | 4.0 | 54 | 87 | 70.6 | 56.6 | 29.886 | 7.14 | 0.0 | 0 | 0.00 | 0.00 | 0.00 | 0.00 |
| 05/03/26 5:10:35 AM | 35 | 2.0 | 4.0 | 54 | 87 | 70.5 | 56.6 | 29.884 | 7.14 | 0.0 | 0 | 0.00 | 0.00 | 0.00 | 0.00 |
| 05/03/26 5:11:27 AM | 38 | 1.0 | 4.0 | 54 | 87 | 70.4 | 56.6 | 29.887 | 7.14 | 0.0 | 0 | 0.00 | 0.00 | 0.00 | 0.00 |
| 05/03/26 5:12:16 AM | 36 | 0.0 | 4.0 | 54 | 87 | 70.3 | 56.6 | 29.886 | 7.14 | 0.0 | 0 | 0.00 | 0.00 | 0.00 | 0.00 |
| 05/03/26 5:13:29 AM | 36 | 1.0 | 4.0 | 54 | 87 | 70.2 | 56.6 | 29.884 | 7.14 | 0.0 | 0 | 0.00 | 0.00 | 0.00 | 0.00 |
| 05/03/26 5:14:20 AM | 36 | 0.0 | 4.0 | 55 | 87 | 70.2 | 56.6 | 29.883 | 7.14 | 0.0 | 0 | 0.00 | 0.00 | 0.00 | 0.00 |
| 05/03/26 5:15:33 AM | 34 | 0.0 | 4.0 | 55 | 87 | 70.0 | 56.6 | 29.884 | 7.14 | 0.0 | 0 | 0.00 | 0.00 | 0.00 | 0.00 |
| 05/03/26 5:16:25 AM | 36 | 0.0 | 4.0 | 55 | 87 | 70.0 | 56.6 | 29.885 | 7.14 | 0.0 | 0 | 0.00 | 0.00 | 0.00 | 0.00 |
| 05/03/26 5:17:17 AM | 36 | 0.0 | 4.0 | 55 | 87 | 69.8 | 56.6 | 29.884 | 7.14 | 0.0 | 0 | 0.00 | 0.00 | 0.00 | 0.00 |
| 05/03/26 5:18:27 AM | 34 | 2.0 | 4.0 | 55 | 87 | 69.8 | 56.6 | 29.884 | 7.14 | 0.0 | 0 | 0.00 | 0.00 | 0.00 | 0.00 |
| 05/03/26 5:19:18 AM | 30 | 3.0 | 4.0 | 55 | 87 | 69.7 | 56.6 | 29.884 | 7.14 | 0.0 | 0 | 0.00 | 0.00 | 0.00 | 0.00 |
| 05/03/26 5:20:31 AM | 32 | 3.0 | 4.0 | 56 | 87 | 69.6 | 56.7 | 29.883 | 7.14 | 0.0 | 0 | 0.00 | 0.00 | 0.00 | 0.00 |
| 05/03/26 5:21:23 AM | 37 | 3.0 | 4.0 | 56 | 87 | 69.5 | 56.7 | 29.883 | 7.14 | 0.0 | 0 | 0.00 | 0.00 | 0.00 | 0.00 |
| 05/03/26 5:22:33 AM | 36 | 3.0 | 4.0 | 56 | 87 | 69.4 | 56.6 | 29.882 | 7.14 | 0.0 | 0 | 0.00 | 0.00 | 0.00 | 0.00 |
| 05/03/26 5:23:25 AM | 37 | 2.0 | 4.0 | 56 | 87 | 69.3 | 56.6 | 29.884 | 7.14 | 0.0 | 0 | 0.00 | 0.00 | 0.00 | 0.00 |
| 05/03/26 5:24:38 AM | 31 | 2.0 | 4.0 | 56 | 87 | 69.3 | 56.6 | 29.883 | 7.14 | 0.0 | 0 | 0.00 | 0.00 | 0.00 | 0.00 |
| 05/03/26 5:25:29 AM | 29 | 2.0 | 4.0 | 56 | 87 | 69.2 | 56.6 | 29.883 | 7.14 | 0.0 | 0 | 0.00 | 0.00 | 0.00 | 0.00 |
| 05/03/26 5:26:21 AM | 36 | 2.0 | 4.0 | 56 | 87 | 69.1 | 56.7 | 29.883 | 7.14 | 0.0 | 0 | 0.00 | 0.00 | 0.00 | 0.00 |
| 05/03/26 5:27:34 AM | 34 | 1.0 | 4.0 | 56 | 87 | 69.1 | 56.6 | 29.885 | 7.14 | 0.0 | 0 | 0.00 | 0.00 | 0.00 | 0.00 |
| 05/03/26 5:28:23 AM | 36 | 2.0 | 4.0 | 56 | 87 | 69.0 | 56.7 | 29.885 | 7.14 | 0.0 | 0 | 0.00 | 0.00 | 0.00 | 0.00 |
| 05/03/26 5:29:36 AM | 34 | 2.0 | 4.0 | 57 | 87 | 68.9 | 56.7 | 29.884 | 7.14 | 0.0 | 0 | 0.00 | 0.00 | 0.00 | 0.00 |
| 05/03/26 5:30:30 AM | 38 | 3.0 | 4.0 | 57 | 87 | 68.9 | 56.7 | 29.886 | 7.14 | 0.0 | 0 | 0.00 | 0.00 | 0.00 | 0.00 |
| 05/03/26 5:31:22 AM | 36 | 3.0 | 4.0 | 57 | 87 | 68.8 | 56.6 | 29.886 | 7.14 | 0.0 | 0 | 0.00 | 0.00 | 0.00 | 0.00 |
| 05/03/26 5:32:35 AM | 38 | 4.0 | 4.0 | 57 | 87 | 68.8 | 56.6 | 29.885 | 7.14 | 0.0 | 0 | 0.00 | 0.00 | 0.00 | 0.00 |
| 05/03/26 5:33:24 AM | 32 | 2.0 | 4.0 | 57 | 87 | 68.7 | 56.6 | 29.885 | 7.14 | 0.0 | 0 | 0.00 | 0.00 | 0.00 | 0.00 |
| 05/03/26 5:34:34 AM | 38 | 3.0 | 4.0 | 57 | 87 | 68.6 | 56.6 | 29.886 | 7.14 | 0.0 | 0 | 0.00 | 0.00 | 0.00 | 0.00 |
| 05/03/26 5:35:25 AM | 39 | 2.0 | 4.0 | 57 | 87 | 68.6 | 56.6 | 29.884 | 7.14 | 0.0 | 0 | 0.00 | 0.00 | 0.00 | 0.00 |
| 05/03/26 5:36:17 AM | 38 | 4.0 | 5.0 | 57 | 87 | 68.5 | 56.6 | 29.884 | 7.14 | 0.0 | 0 | 0.00 | 0.00 | 0.00 | 0.00 |
| 05/03/26 5:37:30 AM | 35 | 3.0 | 5.0 | 57 | 87 | 68.5 | 56.6 | 29.886 | 7.14 | 0.0 | 0 | 0.00 | 0.00 | 0.00 | 0.00 |
| 05/03/26 5:38:22 AM | 31 | 3.0 | 5.0 | 57 | 87 | 68.4 | 56.6 | 29.884 | 7.14 | 0.0 | 0 | 0.00 | 0.00 | 0.00 | 0.00 |
| 05/03/26 5:39:32 AM | 36 | 4.0 | 5.0 | 57 | 87 | 68.4 | 56.6 | 29.886 | 7.14 | 0.0 | 0 | 0.00 | 0.00 | 0.00 | 0.00 |
| 05/03/26 5:40:23 AM | 38 | 3.0 | 5.0 | 57 | 87 | 68.3 | 56.6 | 29.887 | 7.14 | 0.0 | 0 | 0.00 | 0.00 | 0.00 | 0.00 |
| 05/03/26 5:41:36 AM | 38 | 3.0 | 5.0 | 57 | 87 | 68.3 | 56.6 | 29.888 | 7.14 | 0.0 | 0 | 0.00 | 0.00 | 0.00 | 0.00 |
| 05/03/26 5:42:28 AM | 38 | 2.0 | 5.0 | 58 | 87 | 68.2 | 56.6 | 29.886 | 7.14 | 0.0 | 0 | 0.00 | 0.00 | 0.00 | 0.00 |
| 05/03/26 5:43:20 AM | 36 | 4.0 | 5.0 | 58 | 87 | 68.2 | 56.6 | 29.887 | 7.14 | 0.0 | 0 | 0.00 | 0.00 | 0.00 | 0.00 |
| 05/03/26 5:44:26 AM | 38 | 4.0 | 5.0 | 58 | 87 | 68.1 | 56.6 | 29.887 | 7.14 | 0.0 | 0 | 0.00 | 0.00 | 0.00 | 0.00 |
| 05/03/26 5:45:21 AM | 36 | 5.0 | 6.0 | 58 | 87 | 68.1 | 56.6 | 29.886 | 7.14 | 0.0 | 0 | 0.00 | 0.00 | 0.00 | 0.00 |
| 05/03/26 5:46:31 AM | 35 | 2.0 | 6.0 | 58 | 87 | 68.1 | 56.6 | 29.886 | 7.14 | 0.0 | 0 | 0.00 | 0.00 | 0.00 | 0.00 |
| 05/03/26 5:47:23 AM | 38 | 3.0 | 6.0 | 58 | 87 | 68.0 | 56.6 | 29.887 | 7.14 | 0.0 | 0 | 0.00 | 0.00 | 0.00 | 0.00 |
| 05/03/26 5:48:36 AM | 32 | 3.0 | 6.0 | 58 | 87 | 67.9 | 56.6 | 29.889 | 7.14 | 0.0 | 0 | 0.00 | 0.00 | 0.00 | 0.00 |
| 05/03/26 5:49:27 AM | 35 | 5.0 | 6.0 | 58 | 87 | 67.9 | 56.6 | 29.888 | 7.14 | 0.0 | 0 | 0.00 | 0.00 | 0.00 | 0.00 |
| 05/03/26 5:50:16 AM | 36 | 2.0 | 6.0 | 58 | 87 | 67.9 | 56.6 | 29.889 | 7.14 | 0.0 | 0 | 0.00 | 0.00 | 0.00 | 0.00 |
| 05/03/26 5:51:29 AM | 35 | 2.0 | 6.0 | 58 | 87 | 67.8 | 56.6 | 29.889 | 7.14 | 0.0 | 0 | 0.00 | 0.00 | 0.00 | 0.00 |
| 05/03/26 5:52:21 AM | 38 | 3.0 | 6.0 | 58 | 87 | 67.8 | 56.6 | 29.890 | 7.14 | 0.0 | 0 | 0.00 | 0.00 | 0.00 | 0.00 |
| 05/03/26 5:53:34 AM | 37 | 3.0 | 6.0 | 58 | 87 | 67.8 | 56.6 | 29.891 | 7.14 | 0.0 | 0 | 0.00 | 0.00 | 0.00 | 0.00 |
| 05/03/26 5:54:25 AM | 35 | 2.0 | 6.0 | 58 | 87 | 67.7 | 56.6 | 29.895 | 7.14 | 0.0 | 0 | 0.00 | 0.00 | 0.00 | 0.00 |
| 05/03/26 5:55:35 AM | 35 | 2.0 | 6.0 | 58 | 87 | 67.7 | 56.7 | 29.895 | 7.14 | 0.0 | 0 | 0.00 | 0.00 | 0.00 | 0.00 |
| 05/03/26 5:56:27 AM | 38 | 1.0 | 6.0 | 59 | 87 | 67.7 | 56.7 | 29.895 | 7.14 | 0.0 | 0 | 0.00 | 0.00 | 0.00 | 0.00 |
| 05/03/26 5:57:19 AM | 32 | 2.0 | 6.0 | 59 | 87 | 67.6 | 56.7 | 29.898 | 7.14 | 0.0 | 0 | 0.00 | 0.00 | 0.00 | 0.00 |
| 05/03/26 5:58:32 AM | 35 | 1.0 | 6.0 | 59 | 87 | 67.6 | 56.7 | 29.901 | 7.14 | 0.0 | 0 | 0.00 | 0.00 | 0.00 | 0.00 |
| 05/03/26 5:59:24 AM | 35 | 0.0 | 6.0 | 59 | 87 | 67.6 | 56.7 | 29.897 | 7.14 | 0.0 | 0 | 0.00 | 0.00 | 0.00 | 0.00 |
| 05/03/26 6:00:33 AM | 31 | 0.0 | 6.0 | 59 | 87 | 67.6 | 56.7 | 29.901 | 7.14 | 0.0 | 0 | 0.00 | 0.00 | 0.00 | 0.00 |
| 05/03/26 6:01:22 AM | 34 | 0.0 | 6.0 | 59 | 87 | 67.5 | 56.7 | 29.903 | 7.14 | 0.0 | 0 | 0.00 | 0.00 | 0.00 | 0.00 |
| 05/03/26 6:02:35 AM | 37 | 0.0 | 6.0 | 59 | 87 | 67.5 | 56.7 | 29.904 | 7.14 | 0.0 | 0 | 0.00 | 0.00 | 0.00 | 0.00 |
| 05/03/26 6:03:27 AM | 36 | 0.0 | 6.0 | 59 | 87 | 67.5 | 56.7 | 29.903 | 7.14 | 0.0 | 0 | 0.00 | 0.00 | 0.00 | 0.00 |
| 05/03/26 6:04:19 AM | 38 | 0.0 | 6.0 | 59 | 87 | 67.4 | 56.7 | 29.903 | 7.14 | 0.0 | 0 | 0.00 | 0.00 | 0.00 | 0.00 |
| 05/03/26 6:05:32 AM | 36 | 0.0 | 6.0 | 59 | 87 | 67.4 | 56.7 | 29.906 | 7.14 | 0.0 | 0 | 0.00 | 0.00 | 0.00 | 0.00 |
| 05/03/26 6:06:20 AM | 38 | 0.0 | 6.0 | 59 | 87 | 67.4 | 56.8 | 29.908 | 7.14 | 0.0 | 0 | 0.00 | 0.00 | 0.00 | 0.00 |
| 05/03/26 6:07:30 AM | 36 | 0.0 | 6.0 | 59 | 87 | 67.4 | 56.7 | 29.906 | 7.14 | 0.0 | 0 | 0.00 | 0.00 | 0.00 | 0.00 |
| 05/03/26 6:08:22 AM | 36 | 0.0 | 6.0 | 59 | 87 | 67.3 | 56.8 | 29.907 | 7.14 | 0.0 | 0 | 0.00 | 0.00 | 0.00 | 0.00 |
| 05/03/26 6:09:26 AM | 31 | 0.0 | 6.0 | 59 | 87 | 67.3 | 56.8 | 29.908 | 7.14 | 0.0 | 0 | 0.00 | 0.00 | 0.00 | 0.00 |
| 05/03/26 6:10:18 AM | 37 | 0.0 | 6.0 | 59 | 87 | 67.2 | 56.8 | 29.908 | 7.14 | 0.0 | 0 | 0.00 | 0.00 | 0.00 | 0.00 |
| 05/03/26 6:11:28 AM | 36 | 0.0 | 6.0 | 59 | 87 | 67.2 | 56.8 | 29.909 | 7.14 | 0.0 | 0 | 0.00 | 0.00 | 0.00 | 0.00 |
| 05/03/26 6:12:19 AM | 35 | 0.0 | 6.0 | 59 | 87 | 67.2 | 56.8 | 29.910 | 7.14 | 0.0 | 0 | 0.00 | 0.00 | 0.00 | 0.00 |
| 05/03/26 6:13:32 AM | 38 | 0.0 | 6.0 | 59 | 87 | 67.2 | 56.8 | 29.908 | 7.14 | 0.0 | 0 | 0.00 | 0.00 | 0.00 | 0.00 |
| 05/03/26 6:14:24 AM | 36 | 0.0 | 6.0 | 59 | 87 | 67.2 | 56.8 | 29.910 | 7.14 | 0.0 | 0 | 0.00 | 0.00 | 0.00 | 0.00 |
| 05/03/26 6:15:37 AM | 38 | 0.0 | 6.0 | 60 | 87 | 67.1 | 56.8 | 29.909 | 7.14 | 0.0 | 0 | 0.00 | 0.00 | 0.00 | 0.00 |
| 05/03/26 6:16:29 AM | 38 | 0.0 | 6.0 | 60 | 87 | 67.1 | 56.8 | 29.908 | 7.14 | 0.0 | 0 | 0.00 | 0.00 | 0.00 | 0.00 |
| 05/03/26 6:17:18 AM | 32 | 0.0 | 6.0 | 60 | 87 | 67.1 | 56.8 | 29.909 | 7.14 | 0.0 | 0 | 0.00 | 0.00 | 0.00 | 0.00 |
| 05/03/26 6:18:28 AM | 37 | 0.0 | 6.0 | 60 | 87 | 67.0 | 56.8 | 29.908 | 7.14 | 0.0 | 0 | 0.00 | 0.00 | 0.00 | 0.00 |
| 05/03/26 6:19:22 AM | 36 | 0.0 | 6.0 | 60 | 87 | 67.1 | 56.8 | 29.908 | 7.14 | 0.0 | 0 | 0.00 | 0.00 | 0.00 | 0.00 |
| 05/03/26 6:20:32 AM | 35 | 0.0 | 6.0 | 60 | 87 | 67.0 | 56.8 | 29.913 | 7.14 | 0.0 | 0 | 0.00 | 0.00 | 0.00 | 0.00 |
| 05/03/26 6:21:27 AM | 36 | 0.0 | 6.0 | 60 | 87 | 67.0 | 56.8 | 29.908 | 7.14 | 0.0 | 0 | 0.00 | 0.00 | 0.00 | 0.00 |
| 05/03/26 6:22:34 AM | 36 | 0.0 | 6.0 | 60 | 87 | 66.9 | 56.9 | 29.910 | 7.14 | 0.0 | 0 | 0.00 | 0.00 | 0.00 | 0.00 |
| 05/03/26 6:23:26 AM | 38 | 0.0 | 6.0 | 60 | 87 | 66.9 | 56.9 | 29.911 | 7.14 | 0.0 | 0 | 0.00 | 0.00 | 0.00 | 0.00 |
| 05/03/26 6:24:18 AM | 36 | 0.0 | 6.0 | 60 | 87 | 66.9 | 56.9 | 29.909 | 7.14 | 0.0 | 0 | 0.00 | 0.00 | 0.00 | 0.00 |
| 05/03/26 6:25:31 AM | 38 | 0.0 | 6.0 | 60 | 87 | 66.8 | 56.9 | 29.909 | 7.14 | 0.0 | 0 | 0.00 | 0.00 | 0.00 | 0.00 |
| 05/03/26 6:26:22 AM | 35 | 0.0 | 6.0 | 60 | 87 | 66.8 | 56.9 | 29.911 | 7.14 | 0.0 | 0 | 0.00 | 0.00 | 0.00 | 0.00 |
| 05/03/26 6:27:32 AM | 38 | 0.0 | 6.0 | 60 | 87 | 66.8 | 56.9 | 29.910 | 7.14 | 0.0 | 0 | 0.00 | 0.00 | 0.00 | 0.00 |
| 05/03/26 6:28:24 AM | 32 | 0.0 | 6.0 | 60 | 87 | 66.8 | 56.9 | 29.912 | 7.14 | 0.0 | 0 | 0.00 | 0.00 | 0.00 | 0.00 |
| 05/03/26 6:29:37 AM | 35 | 0.0 | 6.0 | 60 | 87 | 66.8 | 56.9 | 29.910 | 7.14 | 0.0 | 0 | 0.00 | 0.00 | 0.00 | 0.00 |
| 05/03/26 6:30:50 AM | 34 | 0.0 | 6.0 | 60 | 87 | 66.8 | 56.9 | 29.911 | 7.14 | 0.0 | 0 | 0.00 | 0.00 | 0.00 | 0.00 |
| 05/03/26 6:31:20 AM | 36 | 0.0 | 6.0 | 60 | 87 | 66.8 | 56.9 | 29.912 | 7.14 | 0.0 | 0 | 0.00 | 0.00 | 0.00 | 0.00 |
| 05/03/26 6:32:33 AM | 34 | 0.0 | 6.0 | 61 | 87 | 66.8 | 56.9 | 29.910 | 7.14 | 0.0 | 0 | 0.00 | 0.00 | 0.00 | 0.00 |
| 05/03/26 6:33:22 AM | 37 | 0.0 | 6.0 | 61 | 87 | 66.7 | 56.9 | 29.910 | 7.14 | 0.0 | 0 | 0.00 | 0.00 | 0.00 | 0.00 |
| 05/03/26 6:34:35 AM | 36 | 0.0 | 6.0 | 61 | 87 | 66.8 | 56.9 | 29.914 | 7.14 | 0.0 | 0 | 0.00 | 0.00 | 0.00 | 0.00 |
| 05/03/26 6:35:27 AM | 32 | 2.0 | 6.0 | 61 | 87 | 66.7 | 56.9 | 29.910 | 7.14 | 0.0 | 5 | 0.00 | 0.00 | 0.00 | 0.00 |
| 05/03/26 6:36:19 AM | 31 | 2.0 | 6.0 | 61 | 87 | 66.7 | 56.9 | 29.910 | 7.14 | 0.0 | 5 | 0.00 | 0.00 | 0.00 | 0.00 |
| 05/03/26 6:37:35 AM | 36 | 4.0 | 6.0 | 61 | 87 | 66.6 | 56.9 | 29.911 | 7.14 | 0.0 | 5 | 0.00 | 0.00 | 0.00 | 0.00 |
| 05/03/26 6:38:23 AM | 30 | 3.0 | 6.0 | 61 | 87 | 66.7 | 56.9 | 29.908 | 7.14 | 0.0 | 5 | 0.00 | 0.00 | 0.00 | 0.00 |
| 05/03/26 6:39:33 AM | 36 | 2.0 | 6.0 | 61 | 87 | 66.6 | 56.9 | 29.910 | 7.14 | 0.0 | 5 | 0.00 | 0.00 | 0.00 | 0.00 |
| 05/03/26 6:40:25 AM | 35 | 2.0 | 6.0 | 61 | 87 | 66.6 | 57.0 | 29.909 | 7.14 | 0.0 | 5 | 0.00 | 0.00 | 0.00 | 0.00 |
| 05/03/26 6:41:35 AM | 34 | 1.0 | 6.0 | 61 | 87 | 66.6 | 56.9 | 29.910 | 7.14 | 0.0 | 5 | 0.00 | 0.00 | 0.00 | 0.00 |
| 05/03/26 6:42:27 AM | 36 | 1.0 | 6.0 | 61 | 87 | 66.6 | 57.0 | 29.908 | 7.14 | 0.0 | 7 | 0.00 | 0.00 | 0.00 | 0.00 |
| 05/03/26 6:43:18 AM | 36 | 1.0 | 6.0 | 61 | 87 | 66.5 | 57.0 | 29.909 | 7.14 | 0.0 | 7 | 0.00 | 0.00 | 0.00 | 0.00 |
| 05/03/26 6:44:28 AM | 34 | 0.0 | 6.0 | 61 | 87 | 66.5 | 57.0 | 29.909 | 7.14 | 0.0 | 7 | 0.00 | 0.00 | 0.00 | 0.00 |
| 05/03/26 6:45:23 AM | 31 | 0.0 | 6.0 | 61 | 87 | 66.6 | 57.0 | 29.907 | 7.14 | 0.0 | 7 | 0.00 | 0.00 | 0.00 | 0.00 |
| 05/03/26 6:46:36 AM | 37 | 0.0 | 6.0 | 61 | 87 | 66.5 | 57.0 | 29.905 | 7.14 | 0.0 | 7 | 0.00 | 0.00 | 0.00 | 0.00 |
| 05/03/26 6:47:25 AM | 37 | 0.0 | 6.0 | 61 | 87 | 66.5 | 57.0 | 29.908 | 7.14 | 0.0 | 7 | 0.00 | 0.00 | 0.00 | 0.00 |
| 05/03/26 6:48:20 AM | 38 | 0.0 | 6.0 | 61 | 87 | 66.5 | 57.0 | 29.907 | 7.14 | 0.0 | 9 | 0.00 | 0.00 | 0.00 | 0.00 |
| 05/03/26 6:49:27 AM | 35 | 0.0 | 6.0 | 61 | 87 | 66.5 | 57.0 | 29.908 | 7.14 | 0.0 | 9 | 0.00 | 0.00 | 0.00 | 0.00 |
| 05/03/26 6:50:18 AM | 35 | 0.0 | 6.0 | 62 | 87 | 66.5 | 57.1 | 29.905 | 7.14 | 0.0 | 9 | 0.00 | 0.00 | 0.00 | 0.00 |
| 05/03/26 6:51:31 AM | 36 | 0.0 | 6.0 | 62 | 87 | 66.5 | 57.1 | 29.910 | 7.14 | 0.0 | 9 | 0.00 | 0.00 | 0.00 | 0.00 |
| 05/03/26 6:52:23 AM | 36 | 1.0 | 6.0 | 62 | 87 | 66.5 | 57.0 | 29.909 | 7.14 | 0.0 | 9 | 0.00 | 0.00 | 0.00 | 0.00 |
| 05/03/26 6:53:36 AM | 35 | 1.0 | 6.0 | 62 | 87 | 66.5 | 57.1 | 29.912 | 7.14 | 0.0 | 11 | 0.00 | 0.00 | 0.00 | 0.00 |
| 05/03/26 6:54:28 AM | 38 | 1.0 | 6.0 | 62 | 87 | 66.5 | 57.1 | 29.910 | 7.14 | 0.0 | 11 | 0.00 | 0.00 | 0.00 | 0.00 |
| 05/03/26 6:55:17 AM | 36 | 1.0 | 6.0 | 62 | 87 | 66.5 | 57.1 | 29.910 | 7.14 | 0.0 | 11 | 0.00 | 0.00 | 0.00 | 0.00 |
| 05/03/26 6:56:29 AM | 35 | 2.0 | 6.0 | 62 | 87 | 66.4 | 57.1 | 29.912 | 7.14 | 0.0 | 11 | 0.00 | 0.00 | 0.00 | 0.00 |
| 05/03/26 6:57:21 AM | 34 | 1.0 | 6.0 | 62 | 87 | 66.4 | 57.1 | 29.912 | 7.14 | 0.0 | 11 | 0.00 | 0.00 | 0.00 | 0.00 |
| 05/03/26 6:58:34 AM | 36 | 2.0 | 6.0 | 62 | 87 | 66.4 | 57.1 | 29.911 | 7.14 | 0.0 | 12 | 0.00 | 0.00 | 0.00 | 0.00 |
| 05/03/26 6:59:26 AM | 32 | 2.0 | 6.0 | 62 | 87 | 66.4 | 57.1 | 29.912 | 7.14 | 0.0 | 12 | 0.00 | 0.00 | 0.00 | 0.00 |
| 05/03/26 7:00:36 AM | 35 | 3.0 | 6.0 | 62 | 87 | 66.4 | 57.1 | 29.913 | 7.14 | 0.0 | 12 | 0.00 | 0.00 | 0.00 | 0.00 |
| 05/03/26 7:01:28 AM | 38 | 2.0 | 6.0 | 62 | 87 | 66.4 | 57.1 | 29.914 | 7.14 | 0.0 | 11 | 0.00 | 0.00 | 0.00 | 0.00 |
| 05/03/26 7:02:19 AM | 31 | 2.0 | 6.0 | 62 | 87 | 66.4 | 57.1 | 29.915 | 7.14 | 0.0 | 11 | 0.00 | 0.00 | 0.00 | 0.00 |
| 05/03/26 7:03:29 AM | 34 | 2.0 | 6.0 | 63 | 87 | 66.4 | 57.1 | 29.916 | 7.14 | 0.0 | 12 | 0.00 | 0.00 | 0.00 | 0.00 |
| 05/03/26 7:04:24 AM | 37 | 1.0 | 6.0 | 63 | 87 | 66.3 | 57.1 | 29.913 | 7.14 | 0.0 | 12 | 0.00 | 0.00 | 0.00 | 0.00 |
| 05/03/26 7:05:16 AM | 36 | 2.0 | 6.0 | 63 | 87 | 66.3 | 57.1 | 29.914 | 7.14 | 0.0 | 12 | 0.00 | 0.00 | 0.00 | 0.00 |
| 05/03/26 7:06:23 AM | 36 | 3.0 | 6.0 | 63 | 87 | 66.3 | 57.1 | 29.913 | 7.14 | 0.0 | 12 | 0.00 | 0.00 | 0.00 | 0.00 |
| 05/03/26 7:07:33 AM | 35 | 2.0 | 6.0 | 63 | 87 | 66.3 | 57.1 | 29.916 | 7.14 | 0.0 | 12 | 0.00 | 0.00 | 0.00 | 0.00 |
| 05/03/26 7:08:27 AM | 36 | 2.0 | 6.0 | 63 | 87 | 66.3 | 57.1 | 29.916 | 7.14 | 0.0 | 12 | 0.00 | 0.00 | 0.00 | 0.00 |
| 05/03/26 7:09:19 AM | 34 | 2.0 | 6.0 | 63 | 87 | 66.3 | 57.1 | 29.918 | 7.14 | 0.0 | 12 | 0.00 | 0.00 | 0.00 | 0.00 |
| 05/03/26 7:10:29 AM | 38 | 3.0 | 6.0 | 63 | 87 | 66.3 | 57.1 | 29.916 | 7.14 | 0.0 | 12 | 0.00 | 0.00 | 0.00 | 0.00 |
| 05/03/26 7:11:18 AM | 36 | 3.0 | 6.0 | 63 | 87 | 66.3 | 57.1 | 29.919 | 7.14 | 0.0 | 12 | 0.00 | 0.00 | 0.00 | 0.00 |
| 05/03/26 7:12:31 AM | 34 | 4.0 | 6.0 | 63 | 87 | 66.3 | 57.0 | 29.918 | 7.14 | 0.0 | 12 | 0.00 | 0.00 | 0.00 | 0.00 |
| 05/03/26 7:13:23 AM | 38 | 4.0 | 6.0 | 63 | 87 | 66.3 | 57.1 | 29.920 | 7.14 | 0.0 | 12 | 0.00 | 0.00 | 0.00 | 0.00 |
| 05/03/26 7:14:36 AM | 31 | 3.0 | 6.0 | 63 | 87 | 66.3 | 57.1 | 29.918 | 7.14 | 0.0 | 12 | 0.00 | 0.00 | 0.00 | 0.00 |
| 05/03/26 7:15:49 AM | 30 | 2.0 | 6.0 | 63 | 87 | 66.3 | 57.1 | 29.920 | 7.14 | 0.0 | 12 | 0.00 | 0.00 | 0.00 | 0.00 |
| 05/03/26 7:16:22 AM | 37 | 2.0 | 6.0 | 63 | 87 | 66.3 | 57.0 | 29.922 | 7.14 | 0.0 | 12 | 0.00 | 0.00 | 0.00 | 0.00 |
| 05/03/26 7:17:29 AM | 35 | 3.0 | 6.0 | 63 | 87 | 66.2 | 57.1 | 29.921 | 7.14 | 0.0 | 12 | 0.00 | 0.00 | 0.00 | 0.00 |
| 05/03/26 7:18:21 AM | 36 | 1.0 | 6.0 | 63 | 87 | 66.2 | 57.1 | 29.921 | 7.14 | 0.0 | 12 | 0.00 | 0.00 | 0.00 | 0.00 |
| 05/03/26 7:19:34 AM | 34 | 3.0 | 6.0 | 63 | 87 | 66.2 | 57.0 | 29.920 | 7.14 | 0.0 | 14 | 0.00 | 0.00 | 0.00 | 0.00 |
| 05/03/26 7:20:26 AM | 36 | 2.0 | 6.0 | 63 | 87 | 66.2 | 57.0 | 29.918 | 7.14 | 0.0 | 14 | 0.00 | 0.00 | 0.00 | 0.00 |
| 05/03/26 7:21:17 AM | 36 | 2.0 | 6.0 | 63 | 87 | 66.2 | 57.0 | 29.921 | 7.14 | 0.0 | 14 | 0.00 | 0.00 | 0.00 | 0.00 |
| 05/03/26 7:22:27 AM | 32 | 3.0 | 6.0 | 63 | 87 | 66.2 | 57.0 | 29.918 | 7.14 | 0.0 | 14 | 0.00 | 0.00 | 0.00 | 0.00 |
| 05/03/26 7:23:19 AM | 37 | 2.0 | 6.0 | 63 | 87 | 66.1 | 57.0 | 29.921 | 7.14 | 0.0 | 14 | 0.00 | 0.00 | 0.00 | 0.00 |
| 05/03/26 7:24:29 AM | 35 | 2.0 | 6.0 | 63 | 87 | 66.1 | 57.0 | 29.918 | 7.14 | 0.0 | 14 | 0.00 | 0.00 | 0.00 | 0.00 |
| 05/03/26 7:25:21 AM | 38 | 3.0 | 6.0 | 63 | 87 | 66.1 | 57.0 | 29.920 | 7.14 | 0.0 | 14 | 0.00 | 0.00 | 0.00 | 0.00 |
| 05/03/26 7:26:34 AM | 31 | 2.0 | 6.0 | 63 | 87 | 66.1 | 57.0 | 29.922 | 7.14 | 0.0 | 16 | 0.00 | 0.00 | 0.00 | 0.00 |
| 05/03/26 7:27:23 AM | 36 | 1.0 | 6.0 | 64 | 87 | 66.1 | 57.0 | 29.920 | 7.14 | 0.0 | 16 | 0.00 | 0.00 | 0.00 | 0.00 |
| 05/03/26 7:28:33 AM | 35 | 1.0 | 6.0 | 64 | 88 | 66.1 | 57.0 | 29.921 | 7.14 | 0.0 | 16 | 0.00 | 0.00 | 0.00 | 0.00 |
| 05/03/26 7:29:27 AM | 35 | 2.0 | 6.0 | 64 | 88 | 66.1 | 57.0 | 29.922 | 7.14 | 0.0 | 16 | 0.00 | 0.00 | 0.00 | 0.00 |
| 05/03/26 7:30:19 AM | 36 | 1.0 | 6.0 | 64 | 88 | 66.1 | 57.0 | 29.919 | 7.14 | 0.0 | 16 | 0.00 | 0.00 | 0.00 | 0.00 |
| 05/03/26 7:31:32 AM | 34 | 2.0 | 6.0 | 64 | 88 | 66.1 | 57.0 | 29.918 | 7.14 | 0.0 | 16 | 0.00 | 0.00 | 0.00 | 0.00 |
| 05/03/26 7:32:24 AM | 38 | 1.0 | 6.0 | 64 | 88 | 66.0 | 57.0 | 29.919 | 7.14 | 0.0 | 16 | 0.00 | 0.00 | 0.00 | 0.00 |
| 05/03/26 7:33:31 AM | 36 | 3.0 | 6.0 | 64 | 88 | 66.1 | 57.0 | 29.917 | 7.14 | 0.0 | 18 | 0.00 | 0.00 | 0.00 | 0.00 |
| 05/03/26 7:34:23 AM | 32 | 2.0 | 6.0 | 64 | 88 | 66.0 | 56.9 | 29.920 | 7.14 | 0.0 | 18 | 0.00 | 0.00 | 0.00 | 0.00 |
| 05/03/26 7:35:18 AM | 38 | 1.0 | 6.0 | 64 | 87 | 66.0 | 56.9 | 29.917 | 7.14 | 0.0 | 16 | 0.00 | 0.00 | 0.00 | 0.00 |
| 05/03/26 7:36:30 AM | 35 | 0.0 | 6.0 | 64 | 87 | 66.0 | 56.9 | 29.918 | 7.14 | 0.0 | 18 | 0.00 | 0.00 | 0.00 | 0.00 |
| 05/03/26 7:37:22 AM | 38 | 1.0 | 6.0 | 64 | 87 | 66.0 | 56.9 | 29.917 | 7.14 | 0.0 | 18 | 0.00 | 0.00 | 0.00 | 0.00 |
| 05/03/26 7:38:29 AM | 31 | 1.0 | 6.0 | 64 | 87 | 66.0 | 56.9 | 29.920 | 7.14 | 0.0 | 18 | 0.00 | 0.00 | 0.00 | 0.00 |
| 05/03/26 7:39:21 AM | 30 | 1.0 | 6.0 | 64 | 87 | 66.0 | 56.9 | 29.917 | 7.14 | 0.0 | 19 | 0.00 | 0.00 | 0.00 | 0.00 |
| 05/03/26 7:40:34 AM | 35 | 0.0 | 6.0 | 64 | 87 | 66.0 | 56.9 | 29.918 | 7.14 | 0.0 | 19 | 0.00 | 0.00 | 0.00 | 0.00 |
| 05/03/26 7:41:29 AM | 36 | 4.0 | 6.0 | 64 | 87 | 65.9 | 56.9 | 29.919 | 7.14 | 0.0 | 19 | 0.00 | 0.00 | 0.00 | 0.00 |
| 05/03/26 7:42:17 AM | 37 | 3.0 | 6.0 | 64 | 87 | 65.9 | 56.9 | 29.922 | 7.14 | 0.0 | 19 | 0.00 | 0.00 | 0.00 | 0.00 |
| 05/03/26 7:43:28 AM | 36 | 2.0 | 6.0 | 64 | 87 | 65.9 | 56.9 | 29.920 | 7.14 | 0.0 | 19 | 0.00 | 0.00 | 0.00 | 0.00 |
| 05/03/26 7:44:19 AM | 36 | 1.0 | 6.0 | 64 | 88 | 65.9 | 56.9 | 29.924 | 7.14 | 0.0 | 19 | 0.00 | 0.00 | 0.00 | 0.00 |
| 05/03/26 7:45:32 AM | 36 | 2.0 | 6.0 | 64 | 88 | 66.0 | 56.9 | 29.920 | 7.14 | 0.0 | 19 | 0.00 | 0.00 | 0.00 | 0.00 |
| 05/03/26 7:46:24 AM | 38 | 3.0 | 6.0 | 64 | 88 | 65.9 | 56.9 | 29.920 | 7.14 | 0.0 | 19 | 0.00 | 0.00 | 0.00 | 0.00 |
| 05/03/26 7:47:34 AM | 38 | 1.0 | 6.0 | 64 | 88 | 65.9 | 56.9 | 29.923 | 7.14 | 0.0 | 19 | 0.00 | 0.00 | 0.00 | 0.00 |
| 05/03/26 7:48:26 AM | 35 | 2.0 | 6.0 | 64 | 88 | 65.9 | 57.0 | 29.922 | 7.14 | 0.0 | 19 | 0.00 | 0.00 | 0.00 | 0.00 |
| 05/03/26 7:49:36 AM | 35 | 2.0 | 6.0 | 64 | 88 | 65.9 | 57.0 | 29.922 | 7.14 | 0.0 | 19 | 0.00 | 0.00 | 0.00 | 0.00 |
| 05/03/26 7:50:28 AM | 31 | 3.0 | 6.0 | 64 | 88 | 65.9 | 56.9 | 29.923 | 7.14 | 0.0 | 19 | 0.00 | 0.00 | 0.00 | 0.00 |
| 05/03/26 7:51:20 AM | 31 | 2.0 | 6.0 | 64 | 88 | 65.9 | 57.0 | 29.922 | 7.14 | 0.0 | 19 | 0.00 | 0.00 | 0.00 | 0.00 |
| 05/03/26 7:52:33 AM | 31 | 1.0 | 6.0 | 64 | 88 | 65.9 | 57.0 | 29.925 | 7.14 | 0.0 | 19 | 0.00 | 0.00 | 0.00 | 0.00 |
| 05/03/26 7:53:24 AM | 34 | 0.0 | 6.0 | 64 | 88 | 65.8 | 56.9 | 29.925 | 7.14 | 0.0 | 21 | 0.00 | 0.00 | 0.00 | 0.00 |
| 05/03/26 7:54:31 AM | 36 | 0.0 | 6.0 | 65 | 88 | 65.8 | 57.0 | 29.924 | 7.14 | 0.0 | 21 | 0.00 | 0.00 | 0.00 | 0.00 |
| 05/03/26 7:55:23 AM | 38 | 3.0 | 6.0 | 65 | 88 | 65.8 | 57.0 | 29.923 | 7.14 | 0.0 | 21 | 0.00 | 0.00 | 0.00 | 0.00 |
| 05/03/26 7:56:36 AM | 36 | 2.0 | 6.0 | 65 | 88 | 65.8 | 57.0 | 29.926 | 7.14 | 0.0 | 23 | 0.00 | 0.00 | 0.00 | 0.00 |
| 05/03/26 7:57:28 AM | 36 | 0.0 | 6.0 | 65 | 88 | 65.9 | 57.0 | 29.926 | 7.14 | 0.0 | 23 | 0.00 | 0.00 | 0.00 | 0.00 |
| 05/03/26 7:58:20 AM | 32 | 0.0 | 6.0 | 65 | 88 | 65.8 | 57.0 | 29.924 | 7.14 | 0.0 | 23 | 0.00 | 0.00 | 0.00 | 0.00 |
| 05/03/26 7:59:27 AM | 38 | 0.0 | 6.0 | 65 | 88 | 65.8 | 57.0 | 29.925 | 7.14 | 0.0 | 23 | 0.00 | 0.00 | 0.00 | 0.00 |
| 05/03/26 8:00:21 AM | 32 | 3.0 | 6.0 | 65 | 88 | 65.8 | 57.0 | 29.923 | 7.14 | 0.0 | 23 | 0.00 | 0.00 | 0.00 | 0.00 |
| 05/03/26 8:01:34 AM | 35 | 3.0 | 6.0 | 65 | 88 | 65.7 | 57.0 | 29.925 | 7.14 | 0.0 | 23 | 0.00 | 0.00 | 0.00 | 0.00 |
| 05/03/26 8:02:26 AM | 31 | 2.0 | 6.0 | 65 | 88 | 65.7 | 57.0 | 29.925 | 7.14 | 0.0 | 23 | 0.00 | 0.00 | 0.00 | 0.00 |
| 05/03/26 8:03:18 AM | 34 | 2.0 | 6.0 | 65 | 88 | 65.7 | 57.0 | 29.925 | 7.14 | 0.0 | 23 | 0.00 | 0.00 | 0.00 | 0.00 |
| 05/03/26 8:04:31 AM | 36 | 1.0 | 6.0 | 65 | 88 | 65.7 | 57.0 | 29.924 | 7.14 | 0.0 | 23 | 0.00 | 0.00 | 0.00 | 0.00 |
| 05/03/26 8:05:20 AM | 35 | 2.0 | 6.0 | 65 | 88 | 65.7 | 57.0 | 29.925 | 7.14 | 0.0 | 23 | 0.00 | 0.00 | 0.00 | 0.00 |
| 05/03/26 8:06:33 AM | 38 | 2.0 | 6.0 | 65 | 88 | 65.7 | 57.0 | 29.926 | 7.14 | 0.0 | 23 | 0.00 | 0.00 | 0.00 | 0.00 |
| 05/03/26 8:07:25 AM | 35 | 1.0 | 6.0 | 65 | 88 | 65.7 | 57.0 | 29.925 | 7.14 | 0.0 | 23 | 0.00 | 0.00 | 0.00 | 0.00 |
| 05/03/26 8:08:47 AM | 32 | 2.0 | 6.0 | 65 | 88 | 65.7 | 57.0 | 29.924 | 7.14 | 0.0 | 25 | 0.00 | 0.00 | 0.00 | 0.00 |
| 05/03/26 8:09:20 AM | 37 | 0.0 | 6.0 | 65 | 88 | 65.7 | 57.0 | 29.927 | 7.14 | 0.0 | 25 | 0.00 | 0.00 | 0.00 | 0.00 |
| 05/03/26 8:10:27 AM | 32 | 1.0 | 6.0 | 65 | 88 | 65.7 | 57.0 | 29.926 | 7.14 | 0.0 | 25 | 0.00 | 0.00 | 0.00 | 0.00 |
| 05/03/26 8:11:19 AM | 38 | 0.0 | 6.0 | 65 | 88 | 65.7 | 57.0 | 29.928 | 7.14 | 0.0 | 25 | 0.00 | 0.00 | 0.00 | 0.00 |
| 05/03/26 8:12:32 AM | 37 | 0.0 | 6.0 | 65 | 88 | 65.7 | 57.0 | 29.929 | 7.14 | 0.0 | 25 | 0.00 | 0.00 | 0.00 | 0.00 |
| 05/03/26 8:13:24 AM | 38 | 0.0 | 6.0 | 65 | 88 | 65.6 | 57.0 | 29.930 | 7.14 | 0.0 | 25 | 0.00 | 0.00 | 0.00 | 0.00 |
| 05/03/26 8:14:19 AM | 38 | 0.0 | 6.0 | 66 | 88 | 65.6 | 57.0 | 29.929 | 7.14 | 0.0 | 25 | 0.00 | 0.00 | 0.00 | 0.00 |
| 05/03/26 8:15:32 AM | 38 | 0.0 | 6.0 | 66 | 88 | 65.6 | 57.0 | 29.928 | 7.14 | 0.0 | 26 | 0.00 | 0.00 | 0.00 | 0.00 |
| 05/03/26 8:16:17 AM | 38 | 0.0 | 6.0 | 66 | 88 | 65.6 | 57.0 | 29.930 | 7.14 | 0.0 | 26 | 0.00 | 0.00 | 0.00 | 0.00 |
| 05/03/26 8:17:30 AM | 37 | 0.0 | 6.0 | 66 | 88 | 65.6 | 57.0 | 29.926 | 7.14 | 0.0 | 26 | 0.00 | 0.00 | 0.00 | 0.00 |
| 05/03/26 8:18:22 AM | 37 | 0.0 | 6.0 | 66 | 88 | 65.6 | 57.1 | 29.929 | 7.14 | 0.0 | 30 | 0.00 | 0.00 | 0.00 | 0.00 |
| 05/03/26 8:19:35 AM | 35 | 0.0 | 6.0 | 66 | 88 | 65.5 | 57.1 | 29.928 | 7.14 | 0.0 | 30 | 0.00 | 0.00 | 0.00 | 0.00 |
| 05/03/26 8:20:27 AM | 35 | 0.0 | 6.0 | 66 | 88 | 65.5 | 57.1 | 29.929 | 7.14 | 0.0 | 32 | 0.00 | 0.00 | 0.00 | 0.00 |
| 05/03/26 8:21:16 AM | 36 | 0.0 | 6.0 | 66 | 88 | 65.5 | 57.1 | 29.929 | 7.14 | 0.0 | 32 | 0.00 | 0.00 | 0.00 | 0.00 |
| 05/03/26 8:22:29 AM | 35 | 0.0 | 6.0 | 66 | 88 | 65.6 | 57.1 | 29.929 | 7.14 | 0.0 | 33 | 0.00 | 0.00 | 0.00 | 0.00 |
| 05/03/26 8:23:21 AM | 35 | 0.0 | 6.0 | 66 | 88 | 65.5 | 57.1 | 29.927 | 7.14 | 0.0 | 33 | 0.00 | 0.00 | 0.00 | 0.00 |
| 05/03/26 8:24:34 AM | 35 | 0.0 | 6.0 | 66 | 88 | 65.5 | 57.1 | 29.929 | 7.14 | 0.0 | 33 | 0.00 | 0.00 | 0.00 | 0.00 |
| 05/03/26 8:25:25 AM | 35 | 0.0 | 6.0 | 66 | 88 | 65.5 | 57.1 | 29.929 | 7.14 | 0.0 | 33 | 0.00 | 0.00 | 0.00 | 0.00 |
| 05/03/26 8:26:32 AM | 35 | 0.0 | 6.0 | 66 | 88 | 65.5 | 57.1 | 29.928 | 7.14 | 0.0 | 33 | 0.00 | 0.00 | 0.00 | 0.00 |
| 05/03/26 8:27:24 AM | 38 | 2.0 | 6.0 | 66 | 88 | 65.5 | 57.1 | 29.929 | 7.14 | 0.0 | 37 | 0.00 | 0.00 | 0.00 | 0.00 |
| 05/03/26 8:28:37 AM | 36 | 1.0 | 6.0 | 66 | 88 | 65.5 | 57.1 | 29.930 | 7.14 | 0.0 | 39 | 0.00 | 0.00 | 0.00 | 0.00 |
| 05/03/26 8:29:26 AM | 38 | 1.0 | 6.0 | 66 | 88 | 65.5 | 57.2 | 29.930 | 7.14 | 0.0 | 40 | 0.00 | 0.00 | 0.00 | 0.00 |
| 05/03/26 8:30:21 AM | 34 | 0.0 | 6.0 | 66 | 88 | 65.5 | 57.2 | 29.929 | 7.14 | 0.0 | 44 | 0.00 | 0.00 | 0.00 | 0.00 |
| 05/03/26 8:31:31 AM | 35 | 0.0 | 6.0 | 66 | 88 | 65.5 | 57.2 | 29.931 | 7.14 | 0.0 | 46 | 0.00 | 0.00 | 0.00 | 0.00 |
| 05/03/26 8:32:20 AM | 39 | 0.0 | 6.0 | 66 | 88 | 65.5 | 57.2 | 29.931 | 7.14 | 0.0 | 46 | 0.00 | 0.00 | 0.00 | 0.00 |
| 05/03/26 8:33:33 AM | 32 | 0.0 | 6.0 | 66 | 88 | 65.5 | 57.2 | 29.933 | 7.14 | 0.0 | 47 | 0.00 | 0.00 | 0.00 | 0.00 |
| 05/03/26 8:34:25 AM | 36 | 0.0 | 6.0 | 66 | 88 | 65.4 | 57.2 | 29.930 | 7.14 | 0.0 | 47 | 0.00 | 0.00 | 0.00 | 0.00 |
| 05/03/26 8:35:16 AM | 31 | 0.0 | 6.0 | 66 | 88 | 65.4 | 57.2 | 29.931 | 7.14 | 0.0 | 47 | 0.00 | 0.00 | 0.00 | 0.00 |
| 05/03/26 8:36:29 AM | 32 | 0.0 | 6.0 | 67 | 88 | 65.4 | 57.2 | 29.931 | 7.14 | 0.0 | 49 | 0.00 | 0.00 | 0.00 | 0.00 |
| 05/03/26 8:37:18 AM | 34 | 0.0 | 6.0 | 67 | 88 | 65.4 | 57.2 | 29.933 | 7.14 | 0.0 | 51 | 0.00 | 0.00 | 0.00 | 0.00 |
| 05/03/26 8:38:31 AM | 32 | 0.0 | 6.0 | 67 | 88 | 65.4 | 57.2 | 29.933 | 7.14 | 0.0 | 51 | 0.00 | 0.00 | 0.00 | 0.00 |
| 05/03/26 8:39:23 AM | 36 | 0.0 | 6.0 | 67 | 88 | 65.4 | 57.2 | 29.932 | 7.14 | 0.0 | 51 | 0.00 | 0.00 | 0.00 | 0.00 |
| 05/03/26 8:40:33 AM | 38 | 0.0 | 6.0 | 67 | 88 | 65.4 | 57.3 | 29.934 | 7.14 | 0.0 | 53 | 0.00 | 0.00 | 0.00 | 0.00 |
| 05/03/26 8:41:25 AM | 38 | 0.0 | 6.0 | 67 | 89 | 65.4 | 57.3 | 29.933 | 7.14 | 0.0 | 53 | 0.00 | 0.00 | 0.00 | 0.00 |
| 05/03/26 8:42:32 AM | 32 | 0.0 | 6.0 | 67 | 88 | 65.4 | 57.3 | 29.937 | 7.14 | 0.0 | 53 | 0.00 | 0.00 | 0.00 | 0.00 |
| 05/03/26 8:43:24 AM | 36 | 0.0 | 6.0 | 67 | 89 | 65.3 | 57.3 | 29.935 | 7.14 | 0.0 | 53 | 0.00 | 0.00 | 0.00 | 0.00 |
| 05/03/26 8:44:37 AM | 38 | 0.0 | 6.0 | 67 | 89 | 65.4 | 57.3 | 29.931 | 7.14 | 0.0 | 53 | 0.00 | 0.00 | 0.00 | 0.00 |
| 05/03/26 8:45:32 AM | 32 | 0.0 | 6.0 | 67 | 89 | 65.4 | 57.3 | 29.934 | 7.14 | 0.0 | 53 | 0.00 | 0.00 | 0.00 | 0.00 |
| 05/03/26 8:46:20 AM | 36 | 0.0 | 6.0 | 67 | 89 | 65.4 | 57.3 | 29.931 | 7.14 | 0.0 | 53 | 0.00 | 0.00 | 0.00 | 0.00 |
| 05/03/26 8:47:33 AM | 36 | 0.0 | 6.0 | 67 | 89 | 65.4 | 57.3 | 29.929 | 7.14 | 0.0 | 53 | 0.00 | 0.00 | 0.00 | 0.00 |
| 05/03/26 8:48:22 AM | 38 | 0.0 | 6.0 | 67 | 89 | 65.3 | 57.3 | 29.928 | 7.14 | 0.0 | 56 | 0.00 | 0.00 | 0.00 | 0.00 |
| 05/03/26 8:49:35 AM | 38 | 0.0 | 6.0 | 67 | 89 | 65.3 | 57.4 | 29.927 | 7.14 | 0.0 | 58 | 0.00 | 0.00 | 0.00 | 0.00 |
| 05/03/26 8:50:27 AM | 38 | 0.0 | 6.0 | 67 | 89 | 65.3 | 57.4 | 29.929 | 7.14 | 0.0 | 60 | 0.00 | 0.00 | 0.00 | 0.00 |
| 05/03/26 8:51:19 AM | 39 | 0.0 | 6.0 | 67 | 89 | 65.3 | 57.4 | 29.928 | 7.14 | 0.0 | 62 | 0.00 | 0.00 | 0.00 | 0.00 |
| 05/03/26 8:52:32 AM | 38 | 0.0 | 6.0 | 67 | 89 | 65.3 | 57.4 | 29.927 | 7.14 | 0.0 | 67 | 0.00 | 0.00 | 0.00 | 0.00 |
| 05/03/26 8:53:18 AM | 38 | 0.0 | 6.0 | 67 | 89 | 65.3 | 57.4 | 29.932 | 7.14 | 0.0 | 70 | 0.00 | 0.00 | 0.00 | 0.00 |
| 05/03/26 8:54:31 AM | 38 | 0.0 | 6.0 | 67 | 89 | 65.3 | 57.4 | 29.928 | 7.14 | 0.0 | 77 | 0.00 | 0.00 | 0.00 | 0.00 |
| 05/03/26 8:55:25 AM | 32 | 0.0 | 6.0 | 67 | 89 | 65.3 | 57.5 | 29.928 | 7.14 | 0.0 | 77 | 0.00 | 0.00 | 0.00 | 0.00 |
| 05/03/26 8:56:35 AM | 32 | 0.0 | 6.0 | 67 | 89 | 65.2 | 57.5 | 29.928 | 7.14 | 0.0 | 83 | 0.00 | 0.00 | 0.00 | 0.00 |
| 05/03/26 8:57:27 AM | 38 | 0.0 | 6.0 | 67 | 89 | 65.3 | 57.5 | 29.931 | 7.14 | 0.0 | 83 | 0.00 | 0.00 | 0.00 | 0.00 |
| 05/03/26 8:58:19 AM | 38 | 1.0 | 6.0 | 67 | 89 | 65.3 | 57.5 | 29.927 | 7.14 | 0.0 | 90 | 0.00 | 0.00 | 0.00 | 0.00 |
| 05/03/26 8:59:26 AM | 31 | 3.0 | 6.0 | 67 | 89 | 65.2 | 57.5 | 29.926 | 7.14 | 0.0 | 93 | 0.00 | 0.00 | 0.00 | 0.00 |
| 05/03/26 9:00:21 AM | 37 | 1.0 | 6.0 | 67 | 89 | 65.3 | 57.5 | 29.929 | 7.14 | 0.0 | 93 | 0.00 | 0.00 | 0.00 | 0.00 |
| 05/03/26 9:01:34 AM | 31 | 3.0 | 6.0 | 67 | 89 | 65.3 | 57.5 | 29.930 | 7.14 | 0.0 | 98 | 0.00 | 0.00 | 0.00 | 0.00 |
| 05/03/26 9:02:26 AM | 32 | 2.0 | 6.0 | 67 | 89 | 65.3 | 57.5 | 29.925 | 7.14 | 0.0 | 98 | 0.00 | 0.00 | 0.00 | 0.00 |
| 05/03/26 9:03:18 AM | 36 | 1.0 | 6.0 | 67 | 89 | 65.2 | 57.6 | 29.927 | 7.14 | 0.0 | 102 | 0.00 | 0.00 | 0.00 | 0.00 |
| 05/03/26 9:04:28 AM | 35 | 2.0 | 6.0 | 68 | 89 | 65.2 | 57.6 | 29.928 | 7.14 | 0.0 | 104 | 0.00 | 0.00 | 0.00 | 0.00 |
| 05/03/26 9:05:19 AM | 36 | 1.0 | 6.0 | 68 | 89 | 65.2 | 57.6 | 29.930 | 7.14 | 0.0 | 104 | 0.00 | 0.00 | 0.00 | 0.00 |
| 05/03/26 9:06:29 AM | 37 | 1.0 | 6.0 | 68 | 89 | 65.3 | 57.6 | 29.928 | 7.14 | 0.0 | 104 | 0.00 | 0.00 | 0.00 | 0.00 |
| 05/03/26 9:07:24 AM | 34 | 2.0 | 6.0 | 68 | 89 | 65.3 | 57.6 | 29.929 | 7.14 | 0.0 | 102 | 0.00 | 0.00 | 0.00 | 0.00 |
| 05/03/26 9:08:34 AM | 38 | 2.0 | 6.0 | 68 | 89 | 65.3 | 57.6 | 29.932 | 7.14 | 0.0 | 102 | 0.00 | 0.00 | 0.00 | 0.00 |
| 05/03/26 9:09:23 AM | 32 | 3.0 | 6.0 | 68 | 89 | 65.3 | 57.6 | 29.932 | 7.14 | 0.0 | 102 | 0.00 | 0.00 | 0.00 | 0.00 |
| 05/03/26 9:10:36 AM | 38 | 3.0 | 6.0 | 68 | 89 | 65.3 | 57.6 | 29.932 | 7.14 | 0.0 | 102 | 0.00 | 0.00 | 0.00 | 0.00 |
| 05/03/26 9:11:25 AM | 31 | 2.0 | 6.0 | 68 | 89 | 65.3 | 57.6 | 29.934 | 7.14 | 0.0 | 102 | 0.00 | 0.00 | 0.00 | 0.00 |
| 05/03/26 9:12:17 AM | 36 | 1.0 | 6.0 | 68 | 89 | 65.3 | 57.6 | 29.932 | 7.14 | 0.0 | 102 | 0.00 | 0.00 | 0.00 | 0.00 |
| 05/03/26 9:13:30 AM | 31 | 2.0 | 6.0 | 68 | 89 | 65.3 | 57.6 | 29.934 | 7.14 | 0.0 | 100 | 0.00 | 0.00 | 0.00 | 0.00 |
| 05/03/26 9:14:25 AM | 38 | 2.0 | 6.0 | 68 | 89 | 65.3 | 57.6 | 29.938 | 7.14 | 0.0 | 100 | 0.00 | 0.00 | 0.00 | 0.00 |
| 05/03/26 9:15:32 AM | 38 | 3.0 | 6.0 | 68 | 89 | 65.3 | 57.7 | 29.936 | 7.14 | 0.0 | 98 | 0.00 | 0.00 | 0.00 | 0.00 |
| 05/03/26 9:16:23 AM | 38 | 3.0 | 6.0 | 68 | 89 | 65.3 | 57.7 | 29.935 | 7.14 | 0.0 | 97 | 0.00 | 0.00 | 0.00 | 0.00 |
| 05/03/26 9:17:37 AM | 38 | 3.0 | 6.0 | 68 | 89 | 65.3 | 57.7 | 29.933 | 7.14 | 0.0 | 98 | 0.00 | 0.00 | 0.00 | 0.00 |
| 05/03/26 9:18:29 AM | 36 | 0.0 | 6.0 | 68 | 89 | 65.4 | 57.7 | 29.933 | 7.14 | 0.0 | 98 | 0.00 | 0.00 | 0.00 | 0.00 |
| 05/03/26 9:19:20 AM | 35 | 2.0 | 6.0 | 68 | 89 | 65.3 | 57.8 | 29.934 | 7.14 | 0.0 | 98 | 0.00 | 0.00 | 0.00 | 0.00 |
| 05/03/26 9:20:27 AM | 38 | 0.0 | 6.0 | 68 | 89 | 65.4 | 57.8 | 29.930 | 7.14 | 0.0 | 100 | 0.00 | 0.00 | 0.00 | 0.00 |
| 05/03/26 9:21:19 AM | 32 | 0.0 | 6.0 | 68 | 89 | 65.4 | 57.8 | 29.931 | 7.14 | 0.0 | 102 | 0.00 | 0.00 | 0.00 | 0.00 |
| 05/03/26 9:22:32 AM | 39 | 3.0 | 6.0 | 68 | 89 | 65.4 | 57.9 | 29.932 | 7.14 | 0.0 | 104 | 0.00 | 0.00 | 0.00 | 0.00 |
| 05/03/26 9:23:24 AM | 38 | 2.0 | 6.0 | 68 | 89 | 65.4 | 57.9 | 29.934 | 7.14 | 0.0 | 105 | 0.00 | 0.00 | 0.00 | 0.00 |
| 05/03/26 9:24:34 AM | 35 | 1.0 | 6.0 | 68 | 89 | 65.4 | 57.9 | 29.931 | 7.14 | 0.0 | 107 | 0.00 | 0.00 | 0.00 | 0.00 |
| 05/03/26 9:25:23 AM | 36 | 1.0 | 6.0 | 68 | 89 | 65.4 | 57.9 | 29.932 | 7.14 | 0.0 | 107 | 0.00 | 0.00 | 0.00 | 0.00 |
| 05/03/26 9:26:36 AM | 35 | 1.0 | 6.0 | 68 | 89 | 65.4 | 57.9 | 29.932 | 7.14 | 0.5 | 111 | 0.00 | 0.00 | 0.00 | 0.00 |
| 05/03/26 9:27:28 AM | 38 | 0.0 | 6.0 | 68 | 89 | 65.4 | 57.9 | 29.934 | 7.14 | 0.5 | 114 | 0.00 | 0.00 | 0.00 | 0.00 |
| 05/03/26 9:28:20 AM | 35 | 0.0 | 6.0 | 68 | 89 | 65.4 | 57.8 | 29.935 | 7.14 | 0.5 | 120 | 0.00 | 0.00 | 0.00 | 0.00 |
| 05/03/26 9:29:33 AM | 38 | 0.0 | 6.0 | 68 | 89 | 65.4 | 57.8 | 29.933 | 7.14 | 0.5 | 125 | 0.00 | 0.00 | 0.00 | 0.00 |
| 05/03/26 9:30:28 AM | 36 | 0.0 | 6.0 | 68 | 89 | 65.4 | 57.9 | 29.932 | 7.14 | 0.6 | 130 | 0.00 | 0.00 | 0.00 | 0.00 |
| 05/03/26 9:31:35 AM | 38 | 0.0 | 6.0 | 68 | 89 | 65.4 | 57.9 | 29.931 | 7.14 | 0.6 | 135 | 0.00 | 0.00 | 0.00 | 0.00 |
| 05/03/26 9:32:27 AM | 34 | 1.0 | 6.0 | 68 | 89 | 65.4 | 57.9 | 29.930 | 7.14 | 0.6 | 141 | 0.00 | 0.00 | 0.00 | 0.00 |
| 05/03/26 9:33:22 AM | 38 | 1.0 | 6.0 | 68 | 89 | 65.4 | 57.9 | 29.933 | 7.14 | 0.6 | 148 | 0.00 | 0.00 | 0.00 | 0.00 |
| 05/03/26 9:34:32 AM | 35 | 0.0 | 6.0 | 68 | 89 | 65.4 | 58.0 | 29.932 | 7.14 | 0.7 | 153 | 0.00 | 0.00 | 0.00 | 0.00 |
| 05/03/26 9:35:23 AM | 35 | 0.0 | 6.0 | 68 | 89 | 65.4 | 57.9 | 29.934 | 7.14 | 0.7 | 153 | 0.00 | 0.00 | 0.00 | 0.00 |
| 05/03/26 9:36:33 AM | 35 | 0.0 | 6.0 | 68 | 89 | 65.4 | 58.0 | 29.934 | 7.14 | 0.7 | 160 | 0.00 | 0.00 | 0.00 | 0.00 |
| 05/03/26 9:37:25 AM | 38 | 0.0 | 6.0 | 68 | 89 | 65.4 | 58.0 | 29.935 | 7.14 | 0.7 | 165 | 0.00 | 0.00 | 0.00 | 0.00 |
| 05/03/26 9:38:17 AM | 38 | 0.0 | 6.0 | 68 | 89 | 65.4 | 58.0 | 29.932 | 7.14 | 0.7 | 171 | 0.00 | 0.00 | 0.00 | 0.00 |
| 05/03/26 9:39:27 AM | 36 | 0.0 | 6.0 | 68 | 89 | 65.4 | 58.1 | 29.932 | 7.14 | 0.7 | 174 | 0.00 | 0.00 | 0.00 | 0.00 |
| 05/03/26 9:40:22 AM | 38 | 0.0 | 6.0 | 68 | 89 | 65.4 | 58.1 | 29.933 | 7.14 | 0.7 | 172 | 0.00 | 0.00 | 0.00 | 0.00 |
| 05/03/26 9:41:29 AM | 38 | 0.0 | 6.0 | 68 | 89 | 65.4 | 58.2 | 29.935 | 7.14 | 0.7 | 163 | 0.00 | 0.00 | 0.00 | 0.00 |
| 05/03/26 9:42:21 AM | 36 | 0.0 | 6.0 | 68 | 89 | 65.4 | 58.2 | 29.935 | 7.14 | 0.7 | 162 | 0.00 | 0.00 | 0.00 | 0.00 |
| 05/03/26 9:43:34 AM | 36 | 0.0 | 6.0 | 68 | 89 | 65.4 | 58.3 | 29.935 | 7.14 | 0.7 | 163 | 0.00 | 0.00 | 0.00 | 0.00 |
| 05/03/26 9:44:26 AM | 34 | 0.0 | 6.0 | 68 | 89 | 65.4 | 58.3 | 29.934 | 7.14 | 0.7 | 163 | 0.00 | 0.00 | 0.00 | 0.00 |
| 05/03/26 9:45:21 AM | 38 | 0.0 | 6.0 | 68 | 89 | 65.4 | 58.4 | 29.933 | 7.14 | 0.7 | 162 | 0.00 | 0.00 | 0.00 | 0.00 |
| 05/03/26 9:46:30 AM | 34 | 0.0 | 6.0 | 68 | 89 | 65.4 | 58.4 | 29.933 | 7.14 | 0.7 | 160 | 0.00 | 0.00 | 0.00 | 0.00 |
| 05/03/26 9:47:19 AM | 31 | 0.0 | 6.0 | 68 | 89 | 65.4 | 58.5 | 29.932 | 7.14 | 0.7 | 156 | 0.00 | 0.00 | 0.00 | 0.00 |
| 05/03/26 9:48:29 AM | 35 | 2.0 | 6.0 | 68 | 89 | 65.4 | 58.5 | 29.931 | 7.14 | 0.7 | 156 | 0.00 | 0.00 | 0.00 | 0.00 |
| 05/03/26 9:49:21 AM | 36 | 1.0 | 6.0 | 68 | 89 | 65.4 | 58.5 | 29.934 | 7.14 | 0.7 | 151 | 0.00 | 0.00 | 0.00 | 0.00 |
| 05/03/26 9:50:34 AM | 36 | 0.0 | 6.0 | 68 | 88 | 65.4 | 58.5 | 29.934 | 7.14 | 0.7 | 149 | 0.00 | 0.00 | 0.00 | 0.00 |
| 05/03/26 9:51:26 AM | 32 | 0.0 | 6.0 | 68 | 88 | 65.4 | 58.5 | 29.933 | 7.14 | 0.7 | 148 | 0.00 | 0.00 | 0.00 | 0.00 |
| 05/03/26 9:52:33 AM | 34 | 2.0 | 6.0 | 68 | 88 | 65.4 | 58.5 | 29.936 | 7.14 | 0.7 | 146 | 0.00 | 0.00 | 0.00 | 0.00 |
| 05/03/26 9:53:28 AM | 35 | 2.0 | 6.0 | 68 | 88 | 65.4 | 58.5 | 29.935 | 7.14 | 0.7 | 144 | 0.00 | 0.00 | 0.00 | 0.00 |
| 05/03/26 9:54:17 AM | 36 | 1.0 | 6.0 | 68 | 88 | 65.5 | 58.5 | 29.935 | 7.14 | 0.7 | 144 | 0.00 | 0.00 | 0.00 | 0.00 |
| 05/03/26 9:55:30 AM | 36 | 0.0 | 6.0 | 68 | 88 | 65.4 | 58.4 | 29.934 | 7.14 | 0.7 | 146 | 0.00 | 0.00 | 0.00 | 0.00 |
| 05/03/26 9:56:22 AM | 32 | 0.0 | 6.0 | 68 | 88 | 65.5 | 58.4 | 29.937 | 7.14 | 0.7 | 146 | 0.00 | 0.00 | 0.00 | 0.00 |
| 05/03/26 9:57:29 AM | 35 | 0.0 | 6.0 | 68 | 88 | 65.4 | 58.4 | 29.936 | 7.14 | 0.7 | 149 | 0.00 | 0.00 | 0.00 | 0.00 |
| 05/03/26 9:58:21 AM | 36 | 0.0 | 6.0 | 68 | 88 | 65.5 | 58.4 | 29.934 | 7.14 | 0.7 | 149 | 0.00 | 0.00 | 0.00 | 0.00 |
| 05/03/26 9:59:34 AM | 32 | 0.0 | 6.0 | 68 | 88 | 65.5 | 58.5 | 29.935 | 7.14 | 0.7 | 149 | 0.00 | 0.00 | 0.00 | 0.00 |
| 05/03/26 10:00:50 AM | 34 | 0.0 | 6.0 | 68 | 88 | 65.5 | 58.5 | 29.933 | 7.14 | 0.7 | 151 | 0.00 | 0.00 | 0.00 | 0.00 |
| 05/03/26 10:01:20 AM | 38 | 0.0 | 6.0 | 68 | 88 | 65.4 | 58.4 | 29.934 | 7.14 | 0.7 | 151 | 0.00 | 0.00 | 0.00 | 0.00 |
| 05/03/26 10:02:30 AM | 36 | 0.0 | 6.0 | 68 | 88 | 65.5 | 58.5 | 29.935 | 7.14 | 0.7 | 155 | 0.00 | 0.00 | 0.00 | 0.00 |
| 05/03/26 10:03:19 AM | 36 | 0.0 | 6.0 | 68 | 88 | 65.5 | 58.5 | 29.935 | 7.14 | 0.7 | 156 | 0.00 | 0.00 | 0.00 | 0.00 |
| 05/03/26 10:04:35 AM | 38 | 2.0 | 6.0 | 68 | 88 | 65.4 | 58.5 | 29.938 | 7.14 | 0.7 | 155 | 0.00 | 0.00 | 0.00 | 0.00 |
| 05/03/26 10:05:24 AM | 38 | 0.0 | 6.0 | 68 | 88 | 65.4 | 58.5 | 29.938 | 7.14 | 0.7 | 153 | 0.00 | 0.00 | 0.00 | 0.00 |
| 05/03/26 10:06:19 AM | 36 | 0.0 | 6.0 | 68 | 88 | 65.5 | 58.6 | 29.938 | 7.14 | 0.7 | 153 | 0.00 | 0.00 | 0.00 | 0.00 |
| 05/03/26 10:07:29 AM | 38 | 0.0 | 6.0 | 68 | 88 | 65.4 | 58.6 | 29.938 | 7.14 | 0.7 | 151 | 0.00 | 0.00 | 0.00 | 0.00 |
| 05/03/26 10:08:21 AM | 35 | 0.0 | 6.0 | 68 | 88 | 65.5 | 58.6 | 29.941 | 7.14 | 0.7 | 149 | 0.00 | 0.00 | 0.00 | 0.00 |
| 05/03/26 10:09:22 AM | 34 | 0.0 | 6.0 | 68 | 88 | 65.4 | 58.7 | 29.940 | 7.14 | 0.7 | 148 | 0.00 | 0.00 | 0.00 | 0.00 |
| 05/03/26 10:10:32 AM | 38 | 0.0 | 6.0 | 68 | 88 | 65.5 | 58.8 | 29.941 | 7.14 | 0.7 | 144 | 0.00 | 0.00 | 0.00 | 0.00 |
| 05/03/26 10:11:24 AM | 36 | 0.0 | 6.0 | 68 | 88 | 65.5 | 58.8 | 29.942 | 7.14 | 0.7 | 144 | 0.00 | 0.00 | 0.00 | 0.00 |
| 05/03/26 10:12:16 AM | 36 | 3.0 | 6.0 | 68 | 88 | 65.5 | 58.8 | 29.941 | 7.14 | 0.7 | 144 | 0.00 | 0.00 | 0.00 | 0.00 |
| 05/03/26 10:13:29 AM | 36 | 0.0 | 6.0 | 68 | 88 | 65.5 | 58.9 | 29.940 | 7.14 | 0.7 | 144 | 0.00 | 0.00 | 0.00 | 0.00 |
| 05/03/26 10:14:18 AM | 35 | 0.0 | 6.0 | 68 | 88 | 65.5 | 58.9 | 29.943 | 7.14 | 0.7 | 148 | 0.00 | 0.00 | 0.00 | 0.00 |
| 05/03/26 10:15:31 AM | 38 | 2.0 | 6.0 | 68 | 87 | 65.5 | 58.9 | 29.938 | 7.14 | 0.7 | 148 | 0.00 | 0.00 | 0.00 | 0.00 |
| 05/03/26 10:16:23 AM | 38 | 0.0 | 6.0 | 68 | 87 | 65.5 | 58.8 | 29.939 | 7.14 | 0.7 | 149 | 0.00 | 0.00 | 0.00 | 0.00 |
| 05/03/26 10:17:36 AM | 35 | 0.0 | 6.0 | 68 | 87 | 65.5 | 58.9 | 29.939 | 7.14 | 0.7 | 149 | 0.00 | 0.00 | 0.00 | 0.00 |
| 05/03/26 10:18:28 AM | 36 | 0.0 | 6.0 | 68 | 87 | 65.5 | 58.9 | 29.938 | 7.14 | 0.7 | 149 | 0.00 | 0.00 | 0.00 | 0.00 |
| 05/03/26 10:19:19 AM | 32 | 0.0 | 6.0 | 68 | 87 | 65.5 | 59.0 | 29.938 | 7.14 | 0.8 | 151 | 0.00 | 0.00 | 0.00 | 0.00 |
| 05/03/26 10:20:27 AM | 38 | 3.0 | 6.0 | 68 | 87 | 65.5 | 59.0 | 29.941 | 7.14 | 0.8 | 151 | 0.00 | 0.00 | 0.00 | 0.00 |
| 05/03/26 10:21:19 AM | 32 | 2.0 | 6.0 | 68 | 87 | 65.5 | 59.0 | 29.940 | 7.14 | 0.8 | 153 | 0.00 | 0.00 | 0.00 | 0.00 |
| 05/03/26 10:22:32 AM | 38 | 2.0 | 6.0 | 68 | 87 | 65.5 | 59.1 | 29.942 | 7.14 | 0.8 | 153 | 0.00 | 0.00 | 0.00 | 0.00 |
| 05/03/26 10:23:24 AM | 35 | 2.0 | 6.0 | 68 | 87 | 65.6 | 59.1 | 29.941 | 7.14 | 0.8 | 151 | 0.00 | 0.00 | 0.00 | 0.00 |
| 05/03/26 10:24:33 AM | 37 | 2.0 | 6.0 | 68 | 87 | 65.6 | 59.1 | 29.941 | 7.14 | 0.8 | 148 | 0.00 | 0.00 | 0.00 | 0.00 |
| 05/03/26 10:25:22 AM | 37 | 1.0 | 6.0 | 68 | 86 | 65.6 | 59.1 | 29.943 | 7.14 | 0.8 | 148 | 0.00 | 0.00 | 0.00 | 0.00 |
| 05/03/26 10:26:35 AM | 38 | 2.0 | 6.0 | 68 | 86 | 65.6 | 59.2 | 29.942 | 7.14 | 0.8 | 149 | 0.00 | 0.00 | 0.00 | 0.00 |
| 05/03/26 10:27:27 AM | 32 | 0.0 | 6.0 | 68 | 86 | 65.6 | 59.2 | 29.944 | 7.14 | 0.8 | 149 | 0.00 | 0.00 | 0.00 | 0.00 |
| 05/03/26 10:28:19 AM | 38 | 1.0 | 6.0 | 68 | 86 | 65.6 | 59.2 | 29.942 | 7.14 | 0.8 | 148 | 0.00 | 0.00 | 0.00 | 0.00 |
| 05/03/26 10:29:32 AM | 35 | 1.0 | 6.0 | 68 | 86 | 65.6 | 59.2 | 29.942 | 7.14 | 0.8 | 148 | 0.00 | 0.00 | 0.00 | 0.00 |
| 05/03/26 10:30:21 AM | 37 | 1.0 | 6.0 | 68 | 86 | 65.6 | 59.3 | 29.943 | 7.14 | 0.8 | 155 | 0.00 | 0.00 | 0.00 | 0.00 |
| 05/03/26 10:31:34 AM | 30 | 0.0 | 6.0 | 68 | 86 | 65.6 | 59.3 | 29.944 | 7.14 | 0.8 | 160 | 0.00 | 0.00 | 0.00 | 0.00 |
| 05/03/26 10:32:26 AM | 38 | 0.0 | 6.0 | 68 | 86 | 65.6 | 59.3 | 29.942 | 7.14 | 0.9 | 169 | 0.00 | 0.00 | 0.00 | 0.00 |
| 05/03/26 10:33:18 AM | 34 | 0.0 | 6.0 | 68 | 86 | 65.6 | 59.3 | 29.942 | 7.14 | 0.9 | 178 | 0.00 | 0.00 | 0.00 | 0.00 |
| 05/03/26 10:34:31 AM | 36 | 0.0 | 6.0 | 68 | 86 | 65.6 | 59.4 | 29.943 | 7.14 | 0.9 | 188 | 0.00 | 0.00 | 0.00 | 0.00 |
| 05/03/26 10:35:23 AM | 36 | 0.0 | 6.0 | 68 | 86 | 65.6 | 59.4 | 29.941 | 7.14 | 1.0 | 193 | 0.00 | 0.00 | 0.00 | 0.00 |
| 05/03/26 10:36:30 AM | 35 | 0.0 | 6.0 | 68 | 86 | 65.7 | 59.5 | 29.941 | 7.14 | 1.0 | 193 | 0.00 | 0.00 | 0.00 | 0.00 |
| 05/03/26 10:37:25 AM | 35 | 0.0 | 6.0 | 68 | 86 | 65.6 | 59.5 | 29.940 | 7.14 | 1.0 | 192 | 0.00 | 0.00 | 0.00 | 0.00 |
| 05/03/26 10:38:35 AM | 38 | 2.0 | 6.0 | 68 | 86 | 65.7 | 59.5 | 29.940 | 7.14 | 1.0 | 188 | 0.00 | 0.00 | 0.00 | 0.00 |
| 05/03/26 10:39:29 AM | 36 | 3.0 | 6.0 | 68 | 85 | 65.7 | 59.6 | 29.942 | 7.14 | 1.0 | 185 | 0.00 | 0.00 | 0.00 | 0.00 |
| 05/03/26 10:40:21 AM | 36 | 2.0 | 6.0 | 68 | 85 | 65.7 | 59.7 | 29.940 | 7.14 | 1.0 | 181 | 0.00 | 0.00 | 0.00 | 0.00 |
| 05/03/26 10:41:28 AM | 34 | 2.0 | 6.0 | 68 | 85 | 65.7 | 59.7 | 29.943 | 7.14 | 1.0 | 179 | 0.00 | 0.00 | 0.00 | 0.00 |
| 05/03/26 10:42:20 AM | 36 | 1.0 | 6.0 | 68 | 85 | 65.6 | 59.7 | 29.941 | 7.14 | 1.0 | 179 | 0.00 | 0.00 | 0.00 | 0.00 |
| 05/03/26 10:43:33 AM | 35 | 1.0 | 6.0 | 68 | 85 | 65.7 | 59.7 | 29.942 | 7.14 | 1.0 | 179 | 0.00 | 0.00 | 0.00 | 0.00 |
| 05/03/26 10:44:25 AM | 38 | 1.0 | 6.0 | 68 | 84 | 65.7 | 59.7 | 29.942 | 7.14 | 1.0 | 181 | 0.00 | 0.00 | 0.00 | 0.00 |
| 05/03/26 10:45:41 AM | 34 | 0.0 | 6.0 | 68 | 84 | 65.6 | 59.8 | 29.944 | 7.14 | 1.0 | 179 | 0.00 | 0.00 | 0.00 | 0.00 |
| 05/03/26 10:46:30 AM | 37 | 6.0 | 6.0 | 68 | 84 | 65.7 | 59.8 | 29.941 | 7.14 | 1.0 | 179 | 0.00 | 0.00 | 0.00 | 0.00 |
| 05/03/26 10:47:19 AM | 38 | 2.0 | 6.0 | 68 | 85 | 65.7 | 59.9 | 29.939 | 7.14 | 1.0 | 178 | 0.00 | 0.00 | 0.00 | 0.00 |
| 05/03/26 10:48:32 AM | 37 | 3.0 | 6.0 | 68 | 84 | 65.7 | 59.9 | 29.941 | 7.14 | 1.0 | 179 | 0.00 | 0.00 | 0.00 | 0.00 |
| 05/03/26 10:49:21 AM | 35 | 4.0 | 6.0 | 68 | 84 | 65.7 | 59.9 | 29.944 | 7.14 | 1.0 | 181 | 0.00 | 0.00 | 0.00 | 0.00 |
| 05/03/26 10:50:34 AM | 31 | 2.0 | 6.0 | 68 | 84 | 65.7 | 59.9 | 29.942 | 7.14 | 1.0 | 179 | 0.00 | 0.00 | 0.00 | 0.00 |
| 05/03/26 10:51:26 AM | 36 | 3.0 | 6.0 | 68 | 84 | 65.7 | 60.0 | 29.944 | 7.14 | 1.0 | 179 | 0.00 | 0.00 | 0.00 | 0.00 |
| 05/03/26 10:52:36 AM | 35 | 3.0 | 6.0 | 68 | 84 | 65.8 | 60.0 | 29.944 | 7.14 | 1.0 | 176 | 0.00 | 0.00 | 0.00 | 0.00 |
| 05/03/26 10:53:28 AM | 32 | 1.0 | 6.0 | 68 | 84 | 65.7 | 60.1 | 29.943 | 7.14 | 1.0 | 174 | 0.00 | 0.00 | 0.00 | 0.00 |
| 05/03/26 10:54:19 AM | 36 | 2.0 | 6.0 | 68 | 84 | 65.8 | 60.2 | 29.945 | 7.14 | 1.0 | 172 | 0.00 | 0.00 | 0.00 | 0.00 |
| 05/03/26 10:55:33 AM | 35 | 2.0 | 6.0 | 68 | 84 | 65.8 | 60.3 | 29.944 | 7.14 | 0.9 | 169 | 0.00 | 0.00 | 0.00 | 0.00 |
| 05/03/26 10:56:27 AM | 36 | 1.0 | 6.0 | 68 | 84 | 65.9 | 60.3 | 29.944 | 7.14 | 0.9 | 169 | 0.00 | 0.00 | 0.00 | 0.00 |
| 05/03/26 10:57:19 AM | 34 | 3.0 | 6.0 | 68 | 84 | 65.9 | 60.4 | 29.943 | 7.14 | 0.9 | 169 | 0.00 | 0.00 | 0.00 | 0.00 |
| 05/03/26 10:58:26 AM | 36 | 1.0 | 6.0 | 68 | 83 | 65.9 | 60.4 | 29.947 | 7.14 | 0.9 | 171 | 0.00 | 0.00 | 0.00 | 0.00 |
| 05/03/26 10:59:18 AM | 32 | 1.0 | 6.0 | 68 | 83 | 65.9 | 60.5 | 29.946 | 7.14 | 1.0 | 172 | 0.00 | 0.00 | 0.00 | 0.00 |
| 05/03/26 11:00:52 AM | 36 | 1.0 | 6.0 | 68 | 83 | 65.9 | 60.5 | 29.948 | 7.14 | 1.0 | 174 | 0.00 | 0.00 | 0.00 | 0.00 |
| 05/03/26 11:01:23 AM | 31 | 1.0 | 6.0 | 68 | 83 | 66.0 | 60.5 | 29.947 | 7.14 | 1.0 | 174 | 0.00 | 0.00 | 0.00 | 0.00 |
| 05/03/26 11:02:33 AM | 35 | 3.0 | 6.0 | 68 | 83 | 66.0 | 60.5 | 29.945 | 7.14 | 1.0 | 174 | 0.00 | 0.00 | 0.00 | 0.00 |
| 05/03/26 11:03:22 AM | 36 | 2.0 | 6.0 | 68 | 83 | 66.0 | 60.5 | 29.946 | 7.14 | 1.0 | 174 | 0.00 | 0.00 | 0.00 | 0.00 |
| 05/03/26 11:04:35 AM | 35 | 2.0 | 6.0 | 68 | 83 | 66.0 | 60.5 | 29.945 | 7.14 | 1.0 | 172 | 0.00 | 0.00 | 0.00 | 0.00 |
| 05/03/26 11:05:27 AM | 36 | 2.0 | 6.0 | 68 | 82 | 66.0 | 60.6 | 29.948 | 7.14 | 1.0 | 172 | 0.00 | 0.00 | 0.00 | 0.00 |
| 05/03/26 11:06:19 AM | 37 | 3.0 | 6.0 | 68 | 82 | 66.0 | 60.6 | 29.943 | 7.14 | 1.0 | 171 | 0.00 | 0.00 | 0.00 | 0.00 |
| 05/03/26 11:07:32 AM | 35 | 2.0 | 6.0 | 68 | 82 | 66.0 | 60.6 | 29.944 | 7.14 | 1.0 | 171 | 0.00 | 0.00 | 0.00 | 0.00 |
| 05/03/26 11:08:24 AM | 36 | 2.0 | 6.0 | 68 | 82 | 66.0 | 60.6 | 29.947 | 7.14 | 1.0 | 172 | 0.00 | 0.00 | 0.00 | 0.00 |
| 05/03/26 11:09:34 AM | 34 | 4.0 | 6.0 | 68 | 82 | 66.0 | 60.6 | 29.946 | 7.14 | 1.0 | 179 | 0.00 | 0.00 | 0.00 | 0.00 |
| 05/03/26 11:10:26 AM | 37 | 4.0 | 6.0 | 68 | 82 | 66.1 | 60.7 | 29.945 | 7.14 | 1.0 | 179 | 0.00 | 0.00 | 0.00 | 0.00 |
| 05/03/26 11:11:18 AM | 31 | 4.0 | 6.0 | 68 | 82 | 66.0 | 60.7 | 29.941 | 7.14 | 1.1 | 186 | 0.00 | 0.00 | 0.00 | 0.00 |
| 05/03/26 11:12:28 AM | 38 | 4.0 | 6.0 | 68 | 82 | 66.0 | 60.7 | 29.945 | 7.14 | 1.1 | 202 | 0.00 | 0.00 | 0.00 | 0.00 |
| 05/03/26 11:13:20 AM | 29 | 3.0 | 6.0 | 68 | 82 | 66.1 | 60.7 | 29.945 | 7.14 | 1.1 | 209 | 0.00 | 0.00 | 0.00 | 0.00 |
| 05/03/26 11:14:30 AM | 31 | 3.0 | 6.0 | 68 | 82 | 66.1 | 60.7 | 29.944 | 7.14 | 1.2 | 214 | 0.00 | 0.00 | 0.00 | 0.00 |
| 05/03/26 11:15:43 AM | 36 | 5.0 | 6.0 | 68 | 82 | 66.1 | 60.8 | 29.943 | 7.14 | 1.2 | 221 | 0.00 | 0.00 | 0.00 | 0.00 |
| 05/03/26 11:16:35 AM | 34 | 6.0 | 6.0 | 68 | 82 | 66.1 | 60.8 | 29.945 | 7.14 | 1.3 | 229 | 0.00 | 0.00 | 0.00 | 0.00 |
| 05/03/26 11:17:27 AM | 37 | 4.0 | 6.0 | 68 | 82 | 66.1 | 60.8 | 29.943 | 7.14 | 1.3 | 236 | 0.00 | 0.00 | 0.00 | 0.00 |
| 05/03/26 11:18:19 AM | 35 | 1.0 | 6.0 | 68 | 82 | 66.1 | 60.8 | 29.944 | 7.14 | 1.4 | 244 | 0.00 | 0.00 | 0.00 | 0.00 |
| 05/03/26 11:19:32 AM | 38 | 1.0 | 6.0 | 68 | 82 | 66.1 | 60.8 | 29.944 | 7.14 | 1.4 | 257 | 0.00 | 0.00 | 0.00 | 0.00 |
| 05/03/26 11:20:20 AM | 34 | 1.0 | 6.0 | 68 | 82 | 66.1 | 60.9 | 29.946 | 7.14 | 1.5 | 271 | 0.00 | 0.00 | 0.00 | 0.00 |
| 05/03/26 11:21:33 AM | 37 | 3.0 | 6.0 | 68 | 82 | 66.1 | 60.9 | 29.943 | 7.14 | 1.6 | 271 | 0.00 | 0.00 | 0.00 | 0.00 |
| 05/03/26 11:22:25 AM | 34 | 2.0 | 6.0 | 68 | 82 | 66.1 | 60.9 | 29.945 | 7.14 | 1.7 | 302 | 0.00 | 0.00 | 0.00 | 0.00 |
| 05/03/26 11:23:17 AM | 32 | 2.0 | 6.0 | 68 | 82 | 66.1 | 60.9 | 29.943 | 7.14 | 1.8 | 323 | 0.00 | 0.00 | 0.00 | 0.00 |
| 05/03/26 11:24:30 AM | 35 | 4.0 | 6.0 | 68 | 82 | 66.1 | 61.0 | 29.943 | 7.14 | 2.0 | 323 | 0.00 | 0.00 | 0.00 | 0.00 |
| 05/03/26 11:25:16 AM | 30 | 1.0 | 6.0 | 68 | 82 | 66.1 | 61.1 | 29.943 | 7.14 | 2.1 | 366 | 0.00 | 0.00 | 0.00 | 0.00 |
| 05/03/26 11:26:29 AM | 35 | 2.0 | 6.0 | 68 | 82 | 66.1 | 61.2 | 29.943 | 7.14 | 2.2 | 417 | 0.00 | 0.00 | 0.00 | 0.00 |
| 05/03/26 11:27:21 AM | 36 | 1.0 | 6.0 | 68 | 81 | 66.1 | 61.2 | 29.944 | 7.14 | 2.4 | 424 | 0.00 | 0.00 | 0.00 | 0.00 |
| 05/03/26 11:28:34 AM | 36 | 0.0 | 6.0 | 68 | 81 | 66.1 | 61.3 | 29.943 | 7.14 | 2.3 | 408 | 0.00 | 0.00 | 0.00 | 0.00 |
| 05/03/26 11:29:26 AM | 32 | 3.0 | 6.0 | 68 | 81 | 66.1 | 61.3 | 29.943 | 7.14 | 2.3 | 401 | 0.00 | 0.00 | 0.00 | 0.00 |
| 05/03/26 11:30:42 AM | 37 | 3.0 | 6.0 | 68 | 81 | 66.1 | 61.4 | 29.943 | 7.14 | 2.3 | 397 | 0.00 | 0.00 | 0.00 | 0.00 |
| 05/03/26 11:31:28 AM | 37 | 3.0 | 6.0 | 68 | 82 | 66.1 | 61.6 | 29.942 | 7.14 | 2.3 | 397 | 0.00 | 0.00 | 0.00 | 0.00 |
| 05/03/26 11:32:23 AM | 36 | 2.0 | 6.0 | 68 | 81 | 66.2 | 61.7 | 29.942 | 7.14 | 2.4 | 397 | 0.00 | 0.00 | 0.00 | 0.00 |
| 05/03/26 11:33:33 AM | 36 | 3.0 | 6.0 | 68 | 80 | 66.2 | 61.7 | 29.943 | 7.14 | 2.4 | 399 | 0.00 | 0.00 | 0.00 | 0.00 |
| 05/03/26 11:34:25 AM | 36 | 2.0 | 6.0 | 68 | 80 | 66.1 | 61.7 | 29.942 | 7.14 | 2.4 | 406 | 0.00 | 0.00 | 0.00 | 0.00 |
| 05/03/26 11:35:20 AM | 36 | 1.0 | 6.0 | 68 | 80 | 66.1 | 61.8 | 29.943 | 7.14 | 2.5 | 415 | 0.00 | 0.00 | 0.00 | 0.00 |
| 05/03/26 11:36:27 AM | 35 | 2.0 | 6.0 | 68 | 80 | 66.2 | 61.9 | 29.942 | 7.14 | 2.5 | 424 | 0.00 | 0.00 | 0.00 | 0.00 |
| 05/03/26 11:37:19 AM | 37 | 2.0 | 6.0 | 68 | 80 | 66.2 | 62.0 | 29.942 | 7.14 | 2.6 | 431 | 0.00 | 0.00 | 0.00 | 0.00 |
| 05/03/26 11:38:32 AM | 35 | 1.0 | 6.0 | 68 | 80 | 66.2 | 62.1 | 29.942 | 7.14 | 2.6 | 434 | 0.00 | 0.00 | 0.00 | 0.00 |
| 05/03/26 11:39:24 AM | 38 | 5.0 | 6.0 | 68 | 80 | 66.2 | 62.2 | 29.942 | 7.14 | 2.7 | 434 | 0.00 | 0.00 | 0.00 | 0.00 |
| 05/03/26 11:40:16 AM | 34 | 5.0 | 6.0 | 68 | 80 | 66.2 | 62.3 | 29.943 | 7.14 | 2.7 | 431 | 0.00 | 0.00 | 0.00 | 0.00 |
| 05/03/26 11:41:29 AM | 35 | 1.0 | 6.0 | 68 | 79 | 66.2 | 62.5 | 29.943 | 7.14 | 2.6 | 422 | 0.00 | 0.00 | 0.00 | 0.00 |
| 05/03/26 11:42:18 AM | 37 | 0.0 | 6.0 | 68 | 79 | 66.2 | 62.5 | 29.943 | 7.14 | 2.5 | 422 | 0.00 | 0.00 | 0.00 | 0.00 |
| 05/03/26 11:43:28 AM | 35 | 6.0 | 7.0 | 68 | 79 | 66.3 | 62.6 | 29.942 | 7.14 | 2.3 | 374 | 0.00 | 0.00 | 0.00 | 0.00 |
| 05/03/26 11:44:20 AM | 36 | 6.0 | 7.0 | 68 | 79 | 66.3 | 62.6 | 29.942 | 7.14 | 2.3 | 360 | 0.00 | 0.00 | 0.00 | 0.00 |
| 05/03/26 11:45:36 AM | 35 | 4.0 | 7.0 | 68 | 79 | 66.3 | 62.7 | 29.943 | 7.14 | 2.2 | 355 | 0.00 | 0.00 | 0.00 | 0.00 |
| 05/03/26 11:46:28 AM | 36 | 5.0 | 7.0 | 68 | 79 | 66.3 | 62.8 | 29.943 | 7.14 | 2.2 | 355 | 0.00 | 0.00 | 0.00 | 0.00 |
| 05/03/26 11:47:35 AM | 34 | 3.0 | 7.0 | 68 | 79 | 66.3 | 62.8 | 29.940 | 7.14 | 2.2 | 360 | 0.00 | 0.00 | 0.00 | 0.00 |
| 05/03/26 11:48:27 AM | 34 | 1.0 | 7.0 | 68 | 78 | 66.3 | 62.7 | 29.943 | 7.14 | 2.3 | 366 | 0.00 | 0.00 | 0.00 | 0.00 |
| 05/03/26 11:49:19 AM | 35 | 5.0 | 7.0 | 68 | 78 | 66.3 | 62.7 | 29.942 | 7.14 | 2.3 | 367 | 0.00 | 0.00 | 0.00 | 0.00 |
| 05/03/26 11:50:32 AM | 35 | 6.0 | 7.0 | 68 | 78 | 66.3 | 62.7 | 29.942 | 7.14 | 2.4 | 385 | 0.00 | 0.00 | 0.00 | 0.00 |
| 05/03/26 11:51:24 AM | 32 | 5.0 | 8.0 | 68 | 78 | 66.3 | 62.7 | 29.942 | 7.14 | 2.5 | 399 | 0.00 | 0.00 | 0.00 | 0.00 |
| 05/03/26 11:52:31 AM | 35 | 6.0 | 8.0 | 68 | 78 | 66.4 | 62.7 | 29.942 | 7.14 | 2.5 | 418 | 0.00 | 0.00 | 0.00 | 0.00 |
| 05/03/26 11:53:23 AM | 34 | 4.0 | 8.0 | 68 | 78 | 66.4 | 62.7 | 29.943 | 7.14 | 2.6 | 434 | 0.00 | 0.00 | 0.00 | 0.00 |
| 05/03/26 11:54:36 AM | 34 | 4.0 | 8.0 | 68 | 78 | 66.4 | 62.8 | 29.943 | 7.14 | 2.7 | 464 | 0.00 | 0.00 | 0.00 | 0.00 |
| 05/03/26 11:55:25 AM | 34 | 3.0 | 8.0 | 68 | 79 | 66.5 | 62.8 | 29.944 | 7.14 | 2.8 | 464 | 0.00 | 0.00 | 0.00 | 0.00 |
| 05/03/26 11:56:20 AM | 36 | 5.0 | 9.0 | 68 | 78 | 66.4 | 62.9 | 29.941 | 7.14 | 2.9 | 483 | 0.00 | 0.00 | 0.00 | 0.00 |
| 05/03/26 11:57:30 AM | 35 | 4.0 | 9.0 | 68 | 78 | 66.5 | 62.9 | 29.941 | 7.14 | 3.0 | 485 | 0.00 | 0.00 | 0.00 | 0.00 |
| 05/03/26 11:58:19 AM | 32 | 4.0 | 9.0 | 68 | 78 | 66.5 | 63.0 | 29.942 | 7.14 | 3.0 | 480 | 0.00 | 0.00 | 0.00 | 0.00 |
| 05/03/26 11:59:29 AM | 35 | 6.0 | 9.0 | 68 | 78 | 66.5 | 63.1 | 29.939 | 7.14 | 3.5 | 636 | 0.00 | 0.00 | 0.00 | 0.00 |
| 05/03/26 12:00:45 PM | 35 | 6.0 | 9.0 | 68 | 78 | 66.5 | 63.2 | 29.938 | 7.14 | 3.4 | 563 | 0.00 | 0.00 | 0.00 | 0.00 |
| 05/03/26 12:01:34 PM | 37 | 2.0 | 9.0 | 68 | 78 | 66.5 | 63.2 | 29.942 | 7.14 | 2.8 | 563 | 0.00 | 0.00 | 0.00 | 0.00 |
| 05/03/26 12:02:26 PM | 35 | 4.0 | 9.0 | 68 | 78 | 66.5 | 63.2 | 29.941 | 7.14 | 2.6 | 563 | 0.00 | 0.00 | 0.00 | 0.00 |
| 05/03/26 12:03:18 PM | 38 | 4.0 | 10.0 | 68 | 78 | 66.6 | 63.3 | 29.941 | 7.14 | 2.5 | 563 | 0.00 | 0.00 | 0.00 | 0.00 |
| 05/03/26 12:04:28 PM | 35 | 5.0 | 10.0 | 68 | 78 | 66.6 | 63.4 | 29.940 | 7.14 | 2.5 | 378 | 0.00 | 0.00 | 0.00 | 0.00 |
| 05/03/26 12:05:20 PM | 38 | 2.0 | 10.0 | 68 | 78 | 66.7 | 63.5 | 29.941 | 7.14 | 2.8 | 417 | 0.00 | 0.00 | 0.00 | 0.00 |
| 05/03/26 12:06:33 PM | 34 | 4.0 | 10.0 | 68 | 77 | 66.7 | 63.5 | 29.942 | 7.14 | 2.7 | 454 | 0.00 | 0.00 | 0.00 | 0.00 |
| 05/03/26 12:07:25 PM | 37 | 5.0 | 10.0 | 68 | 77 | 66.8 | 63.6 | 29.939 | 7.14 | 2.5 | 397 | 0.00 | 0.00 | 0.00 | 0.00 |
| 05/03/26 12:08:47 PM | 35 | 9.0 | 11.0 | 68 | 76 | 66.7 | 63.6 | 29.939 | 7.14 | 2.4 | 385 | 0.00 | 0.00 | 0.00 | 0.00 |
| 05/03/26 12:09:18 PM | 32 | 8.0 | 11.0 | 68 | 76 | 66.8 | 63.6 | 29.942 | 7.14 | 2.4 | 385 | 0.00 | 0.00 | 0.00 | 0.00 |
| 05/03/26 12:10:28 PM | 37 | 6.0 | 11.0 | 68 | 76 | 66.8 | 63.5 | 29.941 | 7.14 | 2.4 | 376 | 0.00 | 0.00 | 0.00 | 0.00 |
| 05/03/26 12:11:20 PM | 34 | 5.0 | 11.0 | 68 | 76 | 66.8 | 63.5 | 29.942 | 7.14 | 2.4 | 376 | 0.00 | 0.00 | 0.00 | 0.00 |
| 05/03/26 12:12:33 PM | 36 | 4.0 | 11.0 | 68 | 76 | 66.9 | 63.5 | 29.941 | 7.14 | 2.7 | 436 | 0.00 | 0.00 | 0.00 | 0.00 |
| 05/03/26 12:13:25 PM | 35 | 7.0 | 11.0 | 68 | 76 | 66.8 | 63.5 | 29.942 | 7.14 | 2.7 | 425 | 0.00 | 0.00 | 0.00 | 0.00 |
| 05/03/26 12:14:17 PM | 35 | 5.0 | 11.0 | 68 | 76 | 66.9 | 63.6 | 29.941 | 7.14 | 2.7 | 454 | 0.00 | 0.00 | 0.00 | 0.00 |
| 05/03/26 12:15:27 PM | 36 | 7.0 | 11.0 | 68 | 76 | 66.9 | 63.6 | 29.940 | 7.14 | 3.1 | 494 | 0.00 | 0.00 | 0.00 | 0.00 |
| 05/03/26 12:16:19 PM | 34 | 3.0 | 11.0 | 68 | 76 | 67.0 | 63.6 | 29.941 | 7.14 | 3.3 | 538 | 0.00 | 0.00 | 0.00 | 0.00 |
| 05/03/26 12:17:32 PM | 36 | 1.0 | 11.0 | 68 | 76 | 67.0 | 63.5 | 29.939 | 7.14 | 3.4 | 541 | 0.00 | 0.00 | 0.00 | 0.00 |
| 05/03/26 12:18:24 PM | 32 | 4.0 | 11.0 | 68 | 76 | 67.0 | 63.5 | 29.940 | 7.14 | 3.4 | 527 | 0.00 | 0.00 | 0.00 | 0.00 |
| 05/03/26 12:19:34 PM | 36 | 7.0 | 11.0 | 68 | 76 | 67.0 | 63.5 | 29.938 | 7.14 | 3.4 | 513 | 0.00 | 0.00 | 0.00 | 0.00 |
| 05/03/26 12:20:23 PM | 35 | 7.0 | 11.0 | 68 | 76 | 67.0 | 63.5 | 29.939 | 7.14 | 3.4 | 497 | 0.00 | 0.00 | 0.00 | 0.00 |
| 05/03/26 12:21:36 PM | 34 | 6.0 | 11.0 | 68 | 76 | 67.1 | 63.6 | 29.940 | 7.14 | 3.4 | 501 | 0.00 | 0.00 | 0.00 | 0.00 |
| 05/03/26 12:22:28 PM | 32 | 8.0 | 11.0 | 68 | 76 | 67.0 | 63.6 | 29.940 | 7.14 | 3.5 | 538 | 0.00 | 0.00 | 0.00 | 0.00 |
| 05/03/26 12:23:23 PM | 36 | 3.0 | 11.0 | 68 | 76 | 67.1 | 63.7 | 29.938 | 7.14 | 4.6 | 538 | 0.00 | 0.00 | 0.00 | 0.00 |
| 05/03/26 12:24:33 PM | 36 | 6.0 | 11.0 | 68 | 76 | 67.1 | 63.8 | 29.939 | 7.14 | 6.0 | 538 | 0.00 | 0.00 | 0.00 | 0.00 |
| 05/03/26 12:25:19 PM | 35 | 6.0 | 12.0 | 68 | 76 | 67.2 | 64.0 | 29.939 | 7.14 | 4.0 | 538 | 0.00 | 0.00 | 0.00 | 0.00 |
| 05/03/26 12:26:32 PM | 34 | 4.0 | 12.0 | 68 | 76 | 67.3 | 64.1 | 29.937 | 7.14 | 4.0 | 622 | 0.00 | 0.00 | 0.00 | 0.00 |
| 05/03/26 12:27:24 PM | 32 | 5.0 | 12.0 | 68 | 75 | 67.2 | 64.1 | 29.935 | 7.14 | 3.3 | 494 | 0.00 | 0.00 | 0.00 | 0.00 |
| 05/03/26 12:28:16 PM | 34 | 5.0 | 12.0 | 68 | 75 | 67.2 | 64.1 | 29.936 | 7.14 | 3.4 | 534 | 0.00 | 0.00 | 0.00 | 0.00 |
| 05/03/26 12:29:29 PM | 36 | 7.0 | 12.0 | 68 | 75 | 67.3 | 64.1 | 29.936 | 7.14 | 5.7 | 534 | 0.00 | 0.00 | 0.00 | 0.00 |
| 05/03/26 12:30:45 PM | 37 | 6.0 | 12.0 | 68 | 75 | 67.3 | 64.1 | 29.935 | 7.14 | 6.0 | 534 | 0.00 | 0.00 | 0.00 | 0.00 |
| 05/03/26 12:31:31 PM | 36 | 6.0 | 12.0 | 68 | 75 | 67.3 | 64.2 | 29.936 | 7.14 | 4.3 | 742 | 0.00 | 0.00 | 0.00 | 0.00 |
| 05/03/26 12:32:23 PM | 36 | 7.0 | 12.0 | 68 | 75 | 67.4 | 64.2 | 29.934 | 7.14 | 4.3 | 742 | 0.00 | 0.00 | 0.00 | 0.00 |
| 05/03/26 12:33:33 PM | 34 | 11.0 | 12.0 | 68 | 75 | 67.4 | 64.4 | 29.935 | 7.14 | 3.8 | 742 | 0.00 | 0.00 | 0.00 | 0.00 |
| 05/03/26 12:34:28 PM | 36 | 3.0 | 12.0 | 68 | 74 | 67.4 | 64.4 | 29.933 | 7.14 | 3.8 | 591 | 0.00 | 0.00 | 0.00 | 0.00 |
| 05/03/26 12:35:23 PM | 35 | 3.0 | 12.0 | 68 | 74 | 67.5 | 64.5 | 29.933 | 7.14 | 3.4 | 510 | 0.00 | 0.00 | 0.00 | 0.00 |
| 05/03/26 12:36:30 PM | 32 | 3.0 | 12.0 | 68 | 75 | 67.5 | 64.6 | 29.934 | 7.14 | 3.3 | 478 | 0.00 | 0.00 | 0.00 | 0.00 |
| 05/03/26 12:37:25 PM | 37 | 7.0 | 12.0 | 68 | 74 | 67.5 | 64.7 | 29.932 | 7.14 | 3.3 | 482 | 0.00 | 0.00 | 0.00 | 0.00 |
| 05/03/26 12:38:17 PM | 35 | 6.0 | 12.0 | 68 | 74 | 67.5 | 64.7 | 29.934 | 7.14 | 3.3 | 487 | 0.00 | 0.00 | 0.00 | 0.00 |
| 05/03/26 12:39:27 PM | 35 | 6.0 | 12.0 | 68 | 74 | 67.5 | 64.8 | 29.932 | 7.14 | 3.3 | 487 | 0.00 | 0.00 | 0.00 | 0.00 |
| 05/03/26 12:40:22 PM | 35 | 4.0 | 12.0 | 68 | 73 | 67.6 | 64.8 | 29.931 | 7.14 | 3.3 | 487 | 0.00 | 0.00 | 0.00 | 0.00 |
| 05/03/26 12:41:32 PM | 37 | 6.0 | 12.0 | 68 | 73 | 67.6 | 64.8 | 29.931 | 7.14 | 3.3 | 512 | 0.00 | 0.00 | 0.00 | 0.00 |
| 05/03/26 12:42:21 PM | 36 | 4.0 | 12.0 | 68 | 72 | 67.6 | 64.8 | 29.928 | 7.14 | 3.5 | 547 | 0.00 | 0.00 | 0.00 | 0.00 |
| 05/03/26 12:43:34 PM | 34 | 8.0 | 12.0 | 68 | 73 | 67.6 | 64.8 | 29.930 | 7.14 | 3.7 | 570 | 0.00 | 0.00 | 0.00 | 0.00 |
| 05/03/26 12:44:26 PM | 36 | 3.0 | 12.0 | 68 | 73 | 67.6 | 64.8 | 29.930 | 7.14 | 4.3 | 570 | 0.00 | 0.00 | 0.00 | 0.00 |
| 05/03/26 12:45:18 PM | 35 | 7.0 | 12.0 | 68 | 73 | 67.6 | 64.8 | 29.930 | 7.14 | 4.3 | 570 | 0.00 | 0.00 | 0.00 | 0.00 |
| 05/03/26 12:46:31 PM | 35 | 9.0 | 12.0 | 68 | 73 | 67.7 | 64.9 | 29.928 | 7.14 | 3.4 | 519 | 0.00 | 0.00 | 0.00 | 0.00 |
| 05/03/26 12:47:17 PM | 35 | 10.0 | 12.0 | 68 | 73 | 67.7 | 64.9 | 29.927 | 7.14 | 3.5 | 559 | 0.00 | 0.00 | 0.00 | 0.00 |
| 05/03/26 12:48:30 PM | 31 | 5.0 | 12.0 | 68 | 73 | 67.7 | 64.9 | 29.929 | 7.14 | 3.7 | 564 | 0.00 | 0.00 | 0.00 | 0.00 |
| 05/03/26 12:49:22 PM | 38 | 4.0 | 12.0 | 68 | 73 | 67.7 | 64.9 | 29.929 | 7.14 | 4.9 | 891 | 0.00 | 0.00 | 0.00 | 0.00 |
| 05/03/26 12:50:36 PM | 32 | 11.0 | 12.0 | 68 | 73 | 67.7 | 64.9 | 29.928 | 7.14 | 3.8 | 891 | 0.00 | 0.00 | 0.00 | 0.00 |
| 05/03/26 12:51:27 PM | 35 | 7.0 | 12.0 | 68 | 73 | 67.7 | 64.9 | 29.928 | 7.14 | 4.1 | 715 | 0.00 | 0.00 | 0.00 | 0.00 |
| 05/03/26 12:52:19 PM | 35 | 9.0 | 12.0 | 68 | 73 | 67.7 | 64.8 | 29.928 | 7.14 | 3.8 | 715 | 0.00 | 0.00 | 0.00 | 0.00 |
| 05/03/26 12:53:27 PM | 32 | 3.0 | 12.0 | 68 | 72 | 67.7 | 64.6 | 29.931 | 7.14 | 3.5 | 554 | 0.00 | 0.00 | 0.00 | 0.00 |
| 05/03/26 12:54:18 PM | 37 | 5.0 | 12.0 | 68 | 72 | 67.7 | 64.5 | 29.929 | 7.14 | 3.4 | 517 | 0.00 | 0.00 | 0.00 | 0.00 |
| 05/03/26 12:55:31 PM | 38 | 3.0 | 12.0 | 68 | 73 | 67.8 | 64.4 | 29.929 | 7.14 | 3.9 | 503 | 0.00 | 0.00 | 0.00 | 0.00 |
| 05/03/26 12:56:20 PM | 36 | 9.0 | 12.0 | 68 | 73 | 67.8 | 64.4 | 29.928 | 7.14 | 3.3 | 503 | 0.00 | 0.00 | 0.00 | 0.00 |
| 05/03/26 12:57:34 PM | 35 | 7.0 | 12.0 | 68 | 74 | 67.8 | 64.4 | 29.929 | 7.14 | 3.7 | 533 | 0.00 | 0.00 | 0.00 | 0.00 |
| 05/03/26 12:58:20 PM | 32 | 10.0 | 12.0 | 68 | 74 | 67.8 | 64.4 | 29.929 | 7.14 | 3.7 | 724 | 0.00 | 0.00 | 0.00 | 0.00 |
| 05/03/26 12:59:33 PM | 36 | 4.0 | 12.0 | 68 | 73 | 67.8 | 64.4 | 29.928 | 7.14 | 4.6 | 698 | 0.00 | 0.00 | 0.00 | 0.00 |
| 05/03/26 1:00:28 PM | 32 | 3.0 | 12.0 | 68 | 73 | 67.8 | 64.4 | 29.927 | 7.14 | 4.4 | 700 | 0.00 | 0.00 | 0.00 | 0.00 |
| 05/03/26 1:01:20 PM | 37 | 4.0 | 12.0 | 68 | 73 | 67.9 | 64.4 | 29.927 | 7.14 | 4.0 | 622 | 0.00 | 0.00 | 0.00 | 0.00 |
| 05/03/26 1:02:30 PM | 35 | 3.0 | 12.0 | 68 | 73 | 67.9 | 64.4 | 29.928 | 7.14 | 4.3 | 661 | 0.00 | 0.00 | 0.00 | 0.00 |
| 05/03/26 1:03:19 PM | 32 | 2.0 | 12.0 | 68 | 74 | 67.9 | 64.4 | 29.925 | 7.14 | 5.2 | 661 | 0.00 | 0.00 | 0.00 | 0.00 |
| 05/03/26 1:04:32 PM | 34 | 3.0 | 12.0 | 68 | 74 | 67.9 | 64.5 | 29.926 | 7.14 | 4.2 | 663 | 0.00 | 0.00 | 0.00 | 0.00 |
| 05/03/26 1:05:24 PM | 34 | 8.0 | 12.0 | 68 | 74 | 67.9 | 64.7 | 29.925 | 7.14 | 4.0 | 636 | 0.00 | 0.00 | 0.00 | 0.00 |
| 05/03/26 1:06:34 PM | 34 | 5.0 | 12.0 | 68 | 73 | 68.0 | 64.8 | 29.925 | 7.14 | 6.0 | 1004 | 0.00 | 0.00 | 0.00 | 0.00 |
| 05/03/26 1:07:26 PM | 34 | 4.0 | 12.0 | 68 | 73 | 68.0 | 64.9 | 29.926 | 7.14 | 3.4 | 1004 | 0.00 | 0.00 | 0.00 | 0.00 |
| 05/03/26 1:08:18 PM | 35 | 4.0 | 12.0 | 68 | 73 | 68.0 | 65.0 | 29.926 | 7.14 | 3.3 | 526 | 0.00 | 0.00 | 0.00 | 0.00 |
| 05/03/26 1:09:28 PM | 35 | 4.0 | 12.0 | 68 | 72 | 67.9 | 65.0 | 29.926 | 7.14 | 3.2 | 494 | 0.00 | 0.00 | 0.00 | 0.00 |
| 05/03/26 1:10:20 PM | 34 | 4.0 | 12.0 | 68 | 71 | 68.1 | 65.0 | 29.924 | 7.14 | 4.7 | 494 | 0.00 | 0.00 | 0.00 | 0.00 |
| 05/03/26 1:11:30 PM | 36 | 3.0 | 12.0 | 68 | 71 | 68.1 | 65.1 | 29.923 | 7.14 | 3.1 | 457 | 0.00 | 0.00 | 0.00 | 0.00 |
| 05/03/26 1:12:22 PM | 36 | 6.0 | 12.0 | 68 | 71 | 68.1 | 65.0 | 29.923 | 7.14 | 3.1 | 462 | 0.00 | 0.00 | 0.00 | 0.00 |
| 05/03/26 1:13:35 PM | 35 | 3.0 | 12.0 | 68 | 71 | 68.1 | 65.1 | 29.922 | 7.14 | 3.1 | 457 | 0.00 | 0.00 | 0.00 | 0.00 |
| 05/03/26 1:14:24 PM | 36 | 4.0 | 12.0 | 68 | 72 | 68.1 | 65.3 | 29.920 | 7.14 | 3.1 | 450 | 0.00 | 0.00 | 0.00 | 0.00 |
| 05/03/26 1:15:34 PM | 31 | 3.0 | 12.0 | 68 | 72 | 68.0 | 65.5 | 29.921 | 7.14 | 3.1 | 468 | 0.00 | 0.00 | 0.00 | 0.00 |
| 05/03/26 1:16:26 PM | 35 | 2.0 | 12.0 | 68 | 72 | 68.1 | 65.6 | 29.919 | 7.14 | 3.8 | 468 | 0.00 | 0.00 | 0.00 | 0.00 |
| 05/03/26 1:17:18 PM | 37 | 5.0 | 12.0 | 68 | 71 | 68.1 | 65.6 | 29.919 | 7.14 | 4.2 | 468 | 0.00 | 0.00 | 0.00 | 0.00 |
| 05/03/26 1:18:31 PM | 36 | 5.0 | 12.0 | 68 | 70 | 68.1 | 65.7 | 29.919 | 7.14 | 3.2 | 468 | 0.00 | 0.00 | 0.00 | 0.00 |
| 05/03/26 1:19:20 PM | 38 | 4.0 | 12.0 | 68 | 70 | 68.1 | 65.8 | 29.919 | 7.14 | 2.7 | 422 | 0.00 | 0.00 | 0.00 | 0.00 |
| 05/03/26 1:20:34 PM | 34 | 5.0 | 12.0 | 68 | 69 | 68.2 | 65.9 | 29.918 | 7.14 | 2.5 | 374 | 0.00 | 0.00 | 0.00 | 0.00 |
| 05/03/26 1:21:26 PM | 38 | 5.0 | 12.0 | 68 | 69 | 68.2 | 65.8 | 29.919 | 7.14 | 2.4 | 353 | 0.00 | 0.00 | 0.00 | 0.00 |
| 05/03/26 1:22:21 PM | 36 | 5.0 | 12.0 | 68 | 69 | 68.2 | 65.9 | 29.918 | 7.14 | 2.3 | 341 | 0.00 | 0.00 | 0.00 | 0.00 |
| 05/03/26 1:23:34 PM | 35 | 3.0 | 12.0 | 68 | 68 | 68.3 | 65.8 | 29.915 | 7.14 | 2.3 | 330 | 0.00 | 0.00 | 0.00 | 0.00 |
| 05/03/26 1:24:26 PM | 35 | 4.0 | 12.0 | 68 | 69 | 68.3 | 65.8 | 29.916 | 7.14 | 2.3 | 330 | 0.00 | 0.00 | 0.00 | 0.00 |
| 05/03/26 1:25:33 PM | 34 | 1.0 | 12.0 | 68 | 69 | 68.3 | 65.7 | 29.919 | 7.14 | 2.3 | 338 | 0.00 | 0.00 | 0.00 | 0.00 |
| 05/03/26 1:26:25 PM | 35 | 3.0 | 12.0 | 68 | 68 | 68.3 | 65.8 | 29.916 | 7.14 | 2.3 | 364 | 0.00 | 0.00 | 0.00 | 0.00 |
| 05/03/26 1:27:17 PM | 38 | 2.0 | 12.0 | 68 | 68 | 68.4 | 65.7 | 29.916 | 7.14 | 2.5 | 364 | 0.00 | 0.00 | 0.00 | 0.00 |
| 05/03/26 1:28:30 PM | 35 | 4.0 | 12.0 | 68 | 68 | 68.4 | 65.7 | 29.916 | 7.14 | 2.8 | 399 | 0.00 | 0.00 | 0.00 | 0.00 |
| 05/03/26 1:29:22 PM | 38 | 7.0 | 12.0 | 68 | 69 | 68.4 | 65.8 | 29.918 | 7.14 | 2.8 | 415 | 0.00 | 0.00 | 0.00 | 0.00 |
| 05/03/26 1:30:32 PM | 35 | 5.0 | 12.0 | 68 | 68 | 68.4 | 65.8 | 29.915 | 7.14 | 3.1 | 415 | 0.00 | 0.00 | 0.00 | 0.00 |
| 05/03/26 1:31:21 PM | 32 | 4.0 | 12.0 | 68 | 69 | 68.4 | 65.9 | 29.913 | 7.14 | 3.0 | 564 | 0.00 | 0.00 | 0.00 | 0.00 |
| 05/03/26 1:32:34 PM | 31 | 2.0 | 12.0 | 68 | 68 | 68.4 | 65.9 | 29.913 | 7.14 | 2.8 | 406 | 0.00 | 0.00 | 0.00 | 0.00 |
| 05/03/26 1:33:26 PM | 35 | 5.0 | 12.0 | 68 | 68 | 68.4 | 66.0 | 29.914 | 7.14 | 2.7 | 406 | 0.00 | 0.00 | 0.00 | 0.00 |
| 05/03/26 1:34:18 PM | 36 | 1.0 | 12.0 | 68 | 68 | 68.4 | 66.0 | 29.914 | 7.14 | 2.6 | 355 | 0.00 | 0.00 | 0.00 | 0.00 |
| 05/03/26 1:35:28 PM | 36 | 2.0 | 12.0 | 68 | 67 | 68.5 | 66.0 | 29.913 | 7.14 | 2.5 | 355 | 0.00 | 0.00 | 0.00 | 0.00 |
| 05/03/26 1:36:20 PM | 34 | 0.0 | 12.0 | 68 | 67 | 68.5 | 66.0 | 29.912 | 7.14 | 2.4 | 346 | 0.00 | 0.00 | 0.00 | 0.00 |
| 05/03/26 1:37:30 PM | 35 | 2.0 | 12.0 | 68 | 67 | 68.5 | 66.0 | 29.916 | 7.14 | 2.4 | 332 | 0.00 | 0.00 | 0.00 | 0.00 |
| 05/03/26 1:38:22 PM | 35 | 2.0 | 12.0 | 68 | 67 | 68.5 | 66.0 | 29.913 | 7.14 | 2.3 | 339 | 0.00 | 0.00 | 0.00 | 0.00 |
| 05/03/26 1:39:36 PM | 37 | 3.0 | 12.0 | 68 | 67 | 68.5 | 66.0 | 29.912 | 7.14 | 2.4 | 360 | 0.00 | 0.00 | 0.00 | 0.00 |
| 05/03/26 1:40:27 PM | 34 | 3.0 | 12.0 | 68 | 67 | 68.4 | 66.0 | 29.914 | 7.14 | 2.4 | 360 | 0.00 | 0.00 | 0.00 | 0.00 |
| 05/03/26 1:41:35 PM | 36 | 4.0 | 12.0 | 68 | 67 | 68.5 | 66.0 | 29.911 | 7.14 | 2.4 | 369 | 0.00 | 0.00 | 0.00 | 0.00 |
| 05/03/26 1:42:27 PM | 34 | 2.0 | 12.0 | 68 | 67 | 68.5 | 66.0 | 29.911 | 7.14 | 2.4 | 399 | 0.00 | 0.00 | 0.00 | 0.00 |
| 05/03/26 1:43:22 PM | 32 | 8.0 | 12.0 | 68 | 67 | 68.5 | 66.0 | 29.911 | 7.14 | 2.4 | 392 | 0.00 | 0.00 | 0.00 | 0.00 |
| 05/03/26 1:44:32 PM | 36 | 4.0 | 12.0 | 68 | 68 | 68.5 | 66.1 | 29.909 | 7.14 | 2.5 | 381 | 0.00 | 0.00 | 0.00 | 0.00 |
| 05/03/26 1:45:27 PM | 35 | 3.0 | 12.0 | 68 | 67 | 68.5 | 66.2 | 29.909 | 7.14 | 2.5 | 373 | 0.00 | 0.00 | 0.00 | 0.00 |
| 05/03/26 1:46:34 PM | 36 | 3.0 | 12.0 | 68 | 67 | 68.6 | 66.3 | 29.907 | 7.14 | 2.7 | 415 | 0.00 | 0.00 | 0.00 | 0.00 |
| 05/03/26 1:47:26 PM | 36 | 1.0 | 12.0 | 68 | 67 | 68.6 | 66.3 | 29.906 | 7.14 | 2.7 | 415 | 0.00 | 0.00 | 0.00 | 0.00 |
| 05/03/26 1:48:18 PM | 35 | 1.0 | 12.0 | 68 | 67 | 68.6 | 66.3 | 29.906 | 7.14 | 2.4 | 353 | 0.00 | 0.00 | 0.00 | 0.00 |
| 05/03/26 1:49:31 PM | 36 | 2.0 | 12.0 | 68 | 66 | 68.6 | 66.3 | 29.905 | 7.14 | 2.5 | 359 | 0.00 | 0.00 | 0.00 | 0.00 |
| 05/03/26 1:50:23 PM | 32 | 5.0 | 12.0 | 68 | 66 | 68.6 | 66.4 | 29.909 | 7.14 | 2.9 | 410 | 0.00 | 0.00 | 0.00 | 0.00 |
| 05/03/26 1:51:33 PM | 38 | 7.0 | 12.0 | 68 | 67 | 68.6 | 66.5 | 29.905 | 7.14 | 4.9 | 410 | 0.00 | 0.00 | 0.00 | 0.00 |
| 05/03/26 1:52:25 PM | 35 | 7.0 | 12.0 | 68 | 66 | 68.6 | 66.8 | 29.904 | 7.14 | 5.0 | 1137 | 0.00 | 0.00 | 0.00 | 0.00 |
| 05/03/26 1:53:17 PM | 36 | 5.0 | 12.0 | 68 | 66 | 68.7 | 67.0 | 29.907 | 7.14 | 5.0 | 1130 | 0.00 | 0.00 | 0.00 | 0.00 |
| 05/03/26 1:54:30 PM | 32 | 2.0 | 12.0 | 68 | 65 | 68.6 | 67.1 | 29.905 | 7.14 | 5.0 | 1134 | 0.00 | 0.00 | 0.00 | 0.00 |
| 05/03/26 1:55:22 PM | 35 | 0.0 | 12.0 | 68 | 65 | 68.7 | 67.2 | 29.905 | 7.14 | 5.3 | 1165 | 0.00 | 0.00 | 0.00 | 0.00 |
| 05/03/26 1:56:32 PM | 34 | 3.0 | 12.0 | 68 | 64 | 68.7 | 67.4 | 29.907 | 7.14 | 4.8 | 1083 | 0.00 | 0.00 | 0.00 | 0.00 |
| 05/03/26 1:57:21 PM | 38 | 4.0 | 12.0 | 68 | 64 | 68.7 | 67.6 | 29.907 | 7.14 | 4.8 | 1083 | 0.00 | 0.00 | 0.00 | 0.00 |
| 05/03/26 1:58:31 PM | 36 | 5.0 | 12.0 | 68 | 64 | 68.7 | 68.0 | 29.904 | 7.14 | 3.1 | 1083 | 0.00 | 0.00 | 0.00 | 0.00 |
| 05/03/26 1:59:26 PM | 35 | 3.0 | 12.0 | 68 | 64 | 68.7 | 68.1 | 29.905 | 7.14 | 2.9 | 512 | 0.00 | 0.00 | 0.00 | 0.00 |
| 05/03/26 2:00:19 PM | 35 | 6.0 | 12.0 | 68 | 64 | 68.8 | 68.3 | 29.904 | 7.14 | 2.9 | 512 | 0.00 | 0.00 | 0.00 | 0.00 |
| 05/03/26 2:01:32 PM | 34 | 6.0 | 12.0 | 68 | 63 | 68.8 | 68.3 | 29.904 | 7.14 | 2.7 | 385 | 0.00 | 0.00 | 0.00 | 0.00 |
| 05/03/26 2:02:18 PM | 34 | 6.0 | 12.0 | 68 | 63 | 68.8 | 68.3 | 29.904 | 7.14 | 2.7 | 380 | 0.00 | 0.00 | 0.00 | 0.00 |
| 05/03/26 2:03:31 PM | 38 | 7.0 | 12.0 | 68 | 62 | 68.8 | 68.3 | 29.904 | 7.14 | 2.8 | 404 | 0.00 | 0.00 | 0.00 | 0.00 |
| 05/03/26 2:04:23 PM | 35 | 5.0 | 12.0 | 68 | 62 | 68.8 | 68.2 | 29.904 | 7.14 | 3.9 | 404 | 0.00 | 0.00 | 0.00 | 0.00 |
| 05/03/26 2:05:36 PM | 35 | 4.0 | 12.0 | 68 | 63 | 68.9 | 68.2 | 29.902 | 7.14 | 2.8 | 462 | 0.00 | 0.00 | 0.00 | 0.00 |
| 05/03/26 2:06:28 PM | 35 | 7.0 | 12.0 | 68 | 62 | 68.9 | 68.2 | 29.905 | 7.14 | 3.8 | 452 | 0.00 | 0.00 | 0.00 | 0.00 |
| 05/03/26 2:07:20 PM | 35 | 7.0 | 12.0 | 68 | 62 | 68.9 | 68.1 | 29.908 | 7.14 | 5.1 | 452 | 0.00 | 0.00 | 0.00 | 0.00 |
| 05/03/26 2:08:42 PM | 34 | 4.0 | 12.0 | 68 | 62 | 69.0 | 68.1 | 29.902 | 7.14 | 5.1 | 1158 | 0.00 | 0.00 | 0.00 | 0.00 |
| 05/03/26 2:09:34 PM | 36 | 9.0 | 12.0 | 68 | 62 | 69.0 | 68.1 | 29.901 | 7.14 | 5.2 | 1172 | 0.00 | 0.00 | 0.00 | 0.00 |
| 05/03/26 2:10:26 PM | 35 | 7.0 | 12.0 | 68 | 62 | 69.0 | 68.2 | 29.904 | 7.14 | 3.8 | 1172 | 0.00 | 0.00 | 0.00 | 0.00 |
| 05/03/26 2:11:18 PM | 36 | 6.0 | 12.0 | 68 | 62 | 69.0 | 68.3 | 29.902 | 7.14 | 5.2 | 1172 | 0.00 | 0.00 | 0.00 | 0.00 |
| 05/03/26 2:12:28 PM | 36 | 5.0 | 12.0 | 68 | 62 | 69.0 | 68.4 | 29.902 | 7.14 | 3.1 | 410 | 0.00 | 0.00 | 0.00 | 0.00 |
| 05/03/26 2:13:17 PM | 35 | 7.0 | 12.0 | 68 | 61 | 69.1 | 68.4 | 29.902 | 7.14 | 3.1 | 410 | 0.00 | 0.00 | 0.00 | 0.00 |
| 05/03/26 2:14:30 PM | 38 | 3.0 | 12.0 | 68 | 62 | 69.1 | 68.4 | 29.904 | 7.14 | 3.8 | 410 | 0.00 | 0.00 | 0.00 | 0.00 |
| 05/03/26 2:15:25 PM | 32 | 4.0 | 12.0 | 68 | 61 | 69.1 | 68.4 | 29.906 | 7.14 | 2.8 | 410 | 0.00 | 0.00 | 0.00 | 0.00 |
| 05/03/26 2:16:35 PM | 38 | 7.0 | 12.0 | 68 | 62 | 69.1 | 68.4 | 29.905 | 7.14 | 2.6 | 357 | 0.00 | 0.00 | 0.00 | 0.00 |
| 05/03/26 2:17:27 PM | 35 | 7.0 | 12.0 | 68 | 62 | 69.2 | 68.4 | 29.901 | 7.14 | 2.5 | 345 | 0.00 | 0.00 | 0.00 | 0.00 |
| 05/03/26 2:18:19 PM | 35 | 5.0 | 12.0 | 68 | 62 | 69.2 | 68.4 | 29.906 | 7.14 | 2.6 | 362 | 0.00 | 0.00 | 0.00 | 0.00 |
| 05/03/26 2:19:29 PM | 37 | 7.0 | 12.0 | 68 | 62 | 69.2 | 68.4 | 29.906 | 7.14 | 2.6 | 362 | 0.00 | 0.00 | 0.00 | 0.00 |
| 05/03/26 2:20:22 PM | 38 | 4.0 | 12.0 | 68 | 62 | 69.2 | 68.3 | 29.906 | 7.14 | 4.3 | 362 | 0.00 | 0.00 | 0.00 | 0.00 |
| 05/03/26 2:21:32 PM | 38 | 10.0 | 12.0 | 68 | 63 | 69.2 | 68.4 | 29.904 | 7.14 | 3.4 | 362 | 0.00 | 0.00 | 0.00 | 0.00 |
| 05/03/26 2:22:24 PM | 36 | 11.0 | 12.0 | 68 | 62 | 69.2 | 68.4 | 29.901 | 7.14 | 2.7 | 462 | 0.00 | 0.00 | 0.00 | 0.00 |
| 05/03/26 2:23:16 PM | 36 | 6.0 | 12.0 | 68 | 62 | 69.2 | 68.4 | 29.905 | 7.14 | 2.5 | 471 | 0.00 | 0.00 | 0.00 | 0.00 |
| 05/03/26 2:24:26 PM | 36 | 5.0 | 12.0 | 68 | 61 | 69.2 | 68.3 | 29.904 | 7.14 | 2.2 | 471 | 0.00 | 0.00 | 0.00 | 0.00 |
| 05/03/26 2:25:18 PM | 34 | 4.0 | 12.0 | 68 | 61 | 69.3 | 68.3 | 29.905 | 7.14 | 2.2 | 316 | 0.00 | 0.00 | 0.00 | 0.00 |
| 05/03/26 2:26:28 PM | 32 | 6.0 | 12.0 | 68 | 61 | 69.3 | 68.2 | 29.906 | 7.14 | 2.3 | 362 | 0.00 | 0.00 | 0.00 | 0.00 |
| 05/03/26 2:27:20 PM | 31 | 8.0 | 12.0 | 68 | 61 | 69.3 | 68.2 | 29.905 | 7.14 | 2.5 | 362 | 0.00 | 0.00 | 0.00 | 0.00 |
| 05/03/26 2:28:33 PM | 38 | 6.0 | 12.0 | 68 | 61 | 69.4 | 68.0 | 29.905 | 7.14 | 3.0 | 362 | 0.00 | 0.00 | 0.00 | 0.00 |
| 05/03/26 2:29:22 PM | 32 | 4.0 | 12.0 | 68 | 62 | 69.3 | 68.0 | 29.903 | 7.14 | 3.0 | 362 | 0.00 | 0.00 | 0.00 | 0.00 |
| 05/03/26 2:30:35 PM | 32 | 5.0 | 12.0 | 68 | 62 | 69.4 | 68.0 | 29.905 | 7.14 | 3.1 | 362 | 0.00 | 0.00 | 0.00 | 0.00 |
| 05/03/26 2:31:27 PM | 32 | 5.0 | 12.0 | 68 | 62 | 69.4 | 67.9 | 29.903 | 7.14 | 4.5 | 362 | 0.00 | 0.00 | 0.00 | 0.00 |
| 05/03/26 2:32:19 PM | 38 | 4.0 | 12.0 | 68 | 62 | 69.4 | 68.0 | 29.901 | 7.14 | 4.6 | 1083 | 0.00 | 0.00 | 0.00 | 0.00 |
| 05/03/26 2:33:29 PM | 38 | 5.0 | 12.0 | 68 | 63 | 69.4 | 68.2 | 29.903 | 7.14 | 4.5 | 1032 | 0.00 | 0.00 | 0.00 | 0.00 |
| 05/03/26 2:34:21 PM | 38 | 10.0 | 12.0 | 68 | 63 | 69.4 | 68.3 | 29.902 | 7.14 | 4.5 | 1032 | 0.00 | 0.00 | 0.00 | 0.00 |
| 05/03/26 2:35:31 PM | 36 | 4.0 | 12.0 | 68 | 63 | 69.4 | 68.5 | 29.900 | 7.14 | 2.8 | 1032 | 0.00 | 0.00 | 0.00 | 0.00 |
| 05/03/26 2:36:24 PM | 36 | 7.0 | 12.0 | 68 | 63 | 69.4 | 68.7 | 29.898 | 7.14 | 3.7 | 1032 | 0.00 | 0.00 | 0.00 | 0.00 |
| 05/03/26 2:37:34 PM | 37 | 4.0 | 12.0 | 68 | 61 | 69.5 | 68.9 | 29.900 | 7.14 | 4.6 | 1032 | 0.00 | 0.00 | 0.00 | 0.00 |
| 05/03/26 2:38:29 PM | 32 | 8.0 | 12.0 | 68 | 60 | 69.5 | 69.0 | 29.901 | 7.14 | 4.6 | 1058 | 0.00 | 0.00 | 0.00 | 0.00 |
| 05/03/26 2:39:21 PM | 37 | 5.0 | 12.0 | 68 | 60 | 69.5 | 69.1 | 29.900 | 7.14 | 3.3 | 881 | 0.00 | 0.00 | 0.00 | 0.00 |
| 05/03/26 2:40:28 PM | 38 | 5.0 | 12.0 | 68 | 59 | 69.5 | 69.2 | 29.900 | 7.14 | 2.9 | 881 | 0.00 | 0.00 | 0.00 | 0.00 |
| 05/03/26 2:41:20 PM | 31 | 15.0 | 16.0 | 68 | 61 | 69.5 | 69.4 | 29.898 | 7.14 | 3.2 | 881 | 0.00 | 0.00 | 0.00 | 0.00 |
| 05/03/26 2:42:33 PM | 34 | 10.0 | 16.0 | 68 | 60 | 69.5 | 69.7 | 29.897 | 7.14 | 3.0 | 881 | 0.00 | 0.00 | 0.00 | 0.00 |
| 05/03/26 2:43:25 PM | 34 | 8.0 | 16.0 | 68 | 59 | 69.5 | 69.8 | 29.898 | 7.14 | 3.0 | 881 | 0.00 | 0.00 | 0.00 | 0.00 |
| 05/03/26 2:44:17 PM | 34 | 8.0 | 16.0 | 68 | 58 | 69.6 | 69.8 | 29.900 | 7.14 | 2.9 | 881 | 0.00 | 0.00 | 0.00 | 0.00 |
| 05/03/26 2:45:48 PM | 37 | 9.0 | 16.0 | 68 | 58 | 69.6 | 69.7 | 29.902 | 7.14 | 2.6 | 881 | 0.00 | 0.00 | 0.00 | 0.00 |
| 05/03/26 2:46:19 PM | 36 | 7.0 | 16.0 | 68 | 57 | 69.6 | 69.7 | 29.901 | 7.14 | 2.3 | 404 | 0.00 | 0.00 | 0.00 | 0.00 |
| 05/03/26 2:47:33 PM | 35 | 2.0 | 16.0 | 68 | 57 | 69.6 | 69.5 | 29.904 | 7.14 | 2.2 | 360 | 0.00 | 0.00 | 0.00 | 0.00 |
| 05/03/26 2:48:25 PM | 36 | 5.0 | 16.0 | 68 | 58 | 69.6 | 69.4 | 29.900 | 7.14 | 3.6 | 445 | 0.00 | 0.00 | 0.00 | 0.00 |
| 05/03/26 2:49:17 PM | 36 | 9.0 | 16.0 | 68 | 58 | 69.7 | 69.4 | 29.900 | 7.14 | 3.6 | 445 | 0.00 | 0.00 | 0.00 | 0.00 |
| 05/03/26 2:50:27 PM | 36 | 11.0 | 16.0 | 68 | 58 | 69.7 | 69.3 | 29.899 | 7.14 | 4.1 | 445 | 0.00 | 0.00 | 0.00 | 0.00 |
| 05/03/26 2:51:17 PM | 32 | 6.0 | 16.0 | 68 | 58 | 69.7 | 69.2 | 29.899 | 7.14 | 4.1 | 445 | 0.00 | 0.00 | 0.00 | 0.00 |
| 05/03/26 2:52:30 PM | 32 | 5.0 | 16.0 | 68 | 59 | 69.7 | 69.2 | 29.902 | 7.14 | 4.2 | 445 | 0.00 | 0.00 | 0.00 | 0.00 |
| 05/03/26 2:53:22 PM | 34 | 5.0 | 16.0 | 68 | 60 | 69.7 | 69.2 | 29.900 | 7.14 | 4.2 | 445 | 0.00 | 0.00 | 0.00 | 0.00 |
| 05/03/26 2:54:35 PM | 34 | 4.0 | 16.0 | 68 | 59 | 69.7 | 69.3 | 29.897 | 7.14 | 3.4 | 410 | 0.00 | 0.00 | 0.00 | 0.00 |
| 05/03/26 2:55:28 PM | 32 | 8.0 | 16.0 | 68 | 59 | 69.7 | 69.2 | 29.897 | 7.14 | 2.6 | 446 | 0.00 | 0.00 | 0.00 | 0.00 |
| 05/03/26 2:56:20 PM | 34 | 8.0 | 16.0 | 68 | 59 | 69.7 | 69.2 | 29.897 | 7.14 | 2.6 | 446 | 0.00 | 0.00 | 0.00 | 0.00 |
| 05/03/26 2:57:27 PM | 32 | 5.0 | 16.0 | 68 | 59 | 69.7 | 69.2 | 29.895 | 7.14 | 3.4 | 446 | 0.00 | 0.00 | 0.00 | 0.00 |
| 05/03/26 2:58:19 PM | 37 | 7.0 | 16.0 | 68 | 59 | 69.8 | 69.2 | 29.897 | 7.14 | 4.1 | 446 | 0.00 | 0.00 | 0.00 | 0.00 |
| 05/03/26 2:59:33 PM | 36 | 4.0 | 16.0 | 68 | 59 | 69.7 | 69.1 | 29.892 | 7.14 | 2.7 | 446 | 0.00 | 0.00 | 0.00 | 0.00 |
| 05/03/26 3:00:46 PM | 35 | 10.0 | 16.0 | 68 | 58 | 69.8 | 69.1 | 29.895 | 7.14 | 2.7 | 446 | 0.00 | 0.00 | 0.00 | 0.00 |
| 05/03/26 3:01:17 PM | 34 | 8.0 | 16.0 | 68 | 58 | 69.8 | 69.1 | 29.895 | 7.14 | 2.2 | 323 | 0.00 | 0.00 | 0.00 | 0.00 |
| 05/03/26 3:02:24 PM | 36 | 7.0 | 16.0 | 68 | 58 | 69.8 | 69.0 | 29.895 | 7.14 | 2.1 | 323 | 0.00 | 0.00 | 0.00 | 0.00 |
| 05/03/26 3:03:16 PM | 36 | 3.0 | 16.0 | 68 | 58 | 69.8 | 69.0 | 29.892 | 7.14 | 2.1 | 329 | 0.00 | 0.00 | 0.00 | 0.00 |
| 05/03/26 3:04:27 PM | 32 | 12.0 | 16.0 | 68 | 58 | 69.8 | 68.9 | 29.890 | 7.14 | 2.1 | 334 | 0.00 | 0.00 | 0.00 | 0.00 |
| 05/03/26 3:05:19 PM | 36 | 10.0 | 16.0 | 68 | 58 | 69.8 | 68.8 | 29.894 | 7.14 | 2.2 | 350 | 0.00 | 0.00 | 0.00 | 0.00 |
| 05/03/26 3:06:32 PM | 34 | 4.0 | 16.0 | 68 | 58 | 69.9 | 68.7 | 29.895 | 7.14 | 2.8 | 404 | 0.00 | 0.00 | 0.00 | 0.00 |
| 05/03/26 3:07:27 PM | 32 | 2.0 | 16.0 | 68 | 58 | 69.9 | 68.5 | 29.892 | 7.14 | 2.3 | 381 | 0.00 | 0.00 | 0.00 | 0.00 |
| 05/03/26 3:08:35 PM | 35 | 9.0 | 16.0 | 68 | 59 | 69.9 | 68.4 | 29.893 | 7.14 | 2.3 | 406 | 0.00 | 0.00 | 0.00 | 0.00 |
| 05/03/26 3:09:27 PM | 36 | 5.0 | 16.0 | 68 | 59 | 69.8 | 68.4 | 29.892 | 7.14 | 2.0 | 406 | 0.00 | 0.00 | 0.00 | 0.00 |
| 05/03/26 3:10:19 PM | 31 | 6.0 | 16.0 | 68 | 60 | 69.9 | 68.3 | 29.894 | 7.14 | 1.9 | 315 | 0.00 | 0.00 | 0.00 | 0.00 |
| 05/03/26 3:11:33 PM | 38 | 5.0 | 16.0 | 68 | 60 | 69.8 | 68.3 | 29.894 | 7.14 | 1.8 | 315 | 0.00 | 0.00 | 0.00 | 0.00 |
| 05/03/26 3:12:25 PM | 31 | 9.0 | 16.0 | 68 | 60 | 69.9 | 68.3 | 29.892 | 7.14 | 2.9 | 309 | 0.00 | 0.00 | 0.00 | 0.00 |
| 05/03/26 3:13:32 PM | 32 | 9.0 | 16.0 | 68 | 60 | 69.9 | 68.2 | 29.893 | 7.14 | 3.2 | 309 | 0.00 | 0.00 | 0.00 | 0.00 |
| 05/03/26 3:14:24 PM | 36 | 5.0 | 16.0 | 68 | 59 | 69.9 | 68.2 | 29.892 | 7.14 | 3.2 | 309 | 0.00 | 0.00 | 0.00 | 0.00 |
| 05/03/26 3:15:38 PM | 35 | 5.0 | 16.0 | 68 | 59 | 69.9 | 68.2 | 29.891 | 7.14 | 3.3 | 1004 | 0.00 | 0.00 | 0.00 | 0.00 |
| 05/03/26 3:16:30 PM | 35 | 5.0 | 16.0 | 68 | 60 | 69.9 | 68.3 | 29.890 | 7.14 | 1.9 | 381 | 0.00 | 0.00 | 0.00 | 0.00 |
| 05/03/26 3:17:22 PM | 36 | 12.0 | 16.0 | 68 | 60 | 69.9 | 68.4 | 29.892 | 7.14 | 1.8 | 295 | 0.00 | 0.00 | 0.00 | 0.00 |
| 05/03/26 3:18:29 PM | 32 | 9.0 | 16.0 | 68 | 59 | 70.0 | 68.5 | 29.890 | 7.14 | 1.8 | 281 | 0.00 | 0.00 | 0.00 | 0.00 |
| 05/03/26 3:19:25 PM | 32 | 5.0 | 16.0 | 68 | 58 | 69.9 | 68.5 | 29.891 | 7.14 | 1.7 | 267 | 0.00 | 0.00 | 0.00 | 0.00 |
| 05/03/26 3:20:35 PM | 38 | 6.0 | 16.0 | 68 | 58 | 70.0 | 68.5 | 29.889 | 7.14 | 1.7 | 258 | 0.00 | 0.00 | 0.00 | 0.00 |
| 05/03/26 3:21:27 PM | 36 | 5.0 | 16.0 | 68 | 58 | 69.9 | 68.5 | 29.888 | 7.14 | 1.7 | 255 | 0.00 | 0.00 | 0.00 | 0.00 |
| 05/03/26 3:22:19 PM | 32 | 8.0 | 16.0 | 68 | 58 | 70.0 | 68.4 | 29.888 | 7.14 | 1.7 | 251 | 0.00 | 0.00 | 0.00 | 0.00 |
| 05/03/26 3:23:32 PM | 35 | 5.0 | 16.0 | 68 | 58 | 69.9 | 68.4 | 29.889 | 7.14 | 1.7 | 255 | 0.00 | 0.00 | 0.00 | 0.00 |
| 05/03/26 3:24:19 PM | 34 | 5.0 | 16.0 | 68 | 58 | 70.0 | 68.3 | 29.887 | 7.14 | 1.8 | 255 | 0.00 | 0.00 | 0.00 | 0.00 |
| 05/03/26 3:25:32 PM | 32 | 8.0 | 16.0 | 68 | 58 | 70.0 | 68.3 | 29.888 | 7.14 | 1.8 | 272 | 0.00 | 0.00 | 0.00 | 0.00 |
| 05/03/26 3:26:24 PM | 37 | 10.0 | 16.0 | 68 | 58 | 70.0 | 68.2 | 29.888 | 7.14 | 1.8 | 272 | 0.00 | 0.00 | 0.00 | 0.00 |
| 05/03/26 3:27:17 PM | 37 | 12.0 | 16.0 | 68 | 58 | 70.0 | 68.0 | 29.887 | 7.14 | 1.8 | 272 | 0.00 | 0.00 | 0.00 | 0.00 |
| 05/03/26 3:28:30 PM | 37 | 11.0 | 16.0 | 68 | 58 | 70.0 | 67.9 | 29.887 | 7.14 | 2.3 | 499 | 0.00 | 0.00 | 0.00 | 0.00 |
| 05/03/26 3:29:16 PM | 36 | 7.0 | 16.0 | 68 | 58 | 70.0 | 67.8 | 29.888 | 7.14 | 2.3 | 499 | 0.00 | 0.00 | 0.00 | 0.00 |
| 05/03/26 3:30:33 PM | 35 | 3.0 | 16.0 | 68 | 58 | 70.0 | 67.6 | 29.887 | 7.14 | 3.2 | 919 | 0.00 | 0.00 | 0.00 | 0.00 |
| 05/03/26 3:31:22 PM | 38 | 4.0 | 16.0 | 68 | 58 | 70.1 | 67.6 | 29.887 | 7.14 | 3.0 | 953 | 0.00 | 0.00 | 0.00 | 0.00 |
| 05/03/26 3:32:35 PM | 36 | 4.0 | 16.0 | 68 | 59 | 70.0 | 67.7 | 29.884 | 7.14 | 3.1 | 863 | 0.00 | 0.00 | 0.00 | 0.00 |
| 05/03/26 3:33:28 PM | 31 | 8.0 | 16.0 | 68 | 59 | 70.1 | 67.9 | 29.887 | 7.14 | 3.1 | 863 | 0.00 | 0.00 | 0.00 | 0.00 |
| 05/03/26 3:34:20 PM | 38 | 6.0 | 16.0 | 68 | 59 | 70.1 | 68.0 | 29.888 | 7.14 | 3.2 | 863 | 0.00 | 0.00 | 0.00 | 0.00 |
| 05/03/26 3:35:30 PM | 39 | 4.0 | 16.0 | 68 | 58 | 70.1 | 68.1 | 29.886 | 7.14 | 3.2 | 988 | 0.00 | 0.00 | 0.00 | 0.00 |
| 05/03/26 3:36:19 PM | 35 | 4.0 | 16.0 | 68 | 58 | 70.1 | 68.3 | 29.887 | 7.14 | 2.3 | 988 | 0.00 | 0.00 | 0.00 | 0.00 |
| 05/03/26 3:37:33 PM | 35 | 7.0 | 16.0 | 68 | 58 | 70.1 | 68.6 | 29.887 | 7.14 | 2.0 | 988 | 0.00 | 0.00 | 0.00 | 0.00 |
| 05/03/26 3:38:25 PM | 34 | 9.0 | 16.0 | 68 | 57 | 70.1 | 68.7 | 29.886 | 7.14 | 1.9 | 374 | 0.00 | 0.00 | 0.00 | 0.00 |
| 05/03/26 3:39:17 PM | 38 | 9.0 | 16.0 | 68 | 57 | 70.0 | 68.7 | 29.887 | 7.14 | 3.0 | 374 | 0.00 | 0.00 | 0.00 | 0.00 |
| 05/03/26 3:40:24 PM | 36 | 4.0 | 16.0 | 68 | 56 | 70.0 | 68.8 | 29.885 | 7.14 | 2.4 | 374 | 0.00 | 0.00 | 0.00 | 0.00 |
| 05/03/26 3:41:20 PM | 36 | 7.0 | 16.0 | 68 | 57 | 70.1 | 68.9 | 29.884 | 7.14 | 2.0 | 374 | 0.00 | 0.00 | 0.00 | 0.00 |
| 05/03/26 3:42:30 PM | 38 | 13.0 | 16.0 | 68 | 56 | 70.1 | 68.9 | 29.885 | 7.14 | 1.7 | 373 | 0.00 | 0.00 | 0.00 | 0.00 |
| 05/03/26 3:43:22 PM | 36 | 9.0 | 16.0 | 68 | 56 | 70.1 | 68.9 | 29.883 | 7.14 | 1.7 | 378 | 0.00 | 0.00 | 0.00 | 0.00 |
| 05/03/26 3:44:35 PM | 38 | 10.0 | 16.0 | 68 | 55 | 70.1 | 68.8 | 29.883 | 7.14 | 1.7 | 348 | 0.00 | 0.00 | 0.00 | 0.00 |
| 05/03/26 3:45:25 PM | 36 | 5.0 | 16.0 | 68 | 55 | 70.1 | 68.8 | 29.885 | 7.14 | 2.2 | 443 | 0.00 | 0.00 | 0.00 | 0.00 |
| 05/03/26 3:46:35 PM | 32 | 10.0 | 16.0 | 68 | 55 | 70.1 | 68.7 | 29.886 | 7.14 | 1.6 | 443 | 0.00 | 0.00 | 0.00 | 0.00 |
| 05/03/26 3:47:27 PM | 39 | 9.0 | 16.0 | 68 | 56 | 70.1 | 68.7 | 29.885 | 7.14 | 1.6 | 330 | 0.00 | 0.00 | 0.00 | 0.00 |
| 05/03/26 3:48:20 PM | 35 | 2.0 | 16.0 | 68 | 55 | 70.1 | 68.7 | 29.882 | 7.14 | 1.6 | 318 | 0.00 | 0.00 | 0.00 | 0.00 |
| 05/03/26 3:49:33 PM | 35 | 11.0 | 16.0 | 68 | 57 | 70.1 | 68.6 | 29.881 | 7.14 | 2.3 | 870 | 0.00 | 0.00 | 0.00 | 0.00 |
| 05/03/26 3:50:25 PM | 38 | 11.0 | 16.0 | 68 | 56 | 70.1 | 68.6 | 29.881 | 7.14 | 1.7 | 870 | 0.00 | 0.00 | 0.00 | 0.00 |
| 05/03/26 3:51:36 PM | 36 | 10.0 | 16.0 | 68 | 57 | 70.1 | 68.6 | 29.880 | 7.14 | 1.7 | 308 | 0.00 | 0.00 | 0.00 | 0.00 |
| 05/03/26 3:52:25 PM | 32 | 4.0 | 16.0 | 68 | 57 | 70.2 | 68.5 | 29.882 | 7.14 | 2.0 | 427 | 0.00 | 0.00 | 0.00 | 0.00 |
| 05/03/26 3:53:17 PM | 38 | 10.0 | 16.0 | 68 | 57 | 70.1 | 68.4 | 29.880 | 7.14 | 1.7 | 427 | 0.00 | 0.00 | 0.00 | 0.00 |
| 05/03/26 3:54:30 PM | 35 | 5.0 | 16.0 | 68 | 57 | 70.1 | 68.3 | 29.879 | 7.14 | 1.7 | 334 | 0.00 | 0.00 | 0.00 | 0.00 |
| 05/03/26 3:55:23 PM | 36 | 3.0 | 16.0 | 68 | 57 | 70.2 | 68.3 | 29.880 | 7.14 | 1.7 | 332 | 0.00 | 0.00 | 0.00 | 0.00 |
| 05/03/26 3:56:33 PM | 38 | 7.0 | 16.0 | 68 | 58 | 70.2 | 68.2 | 29.881 | 7.14 | 1.9 | 387 | 0.00 | 0.00 | 0.00 | 0.00 |
| 05/03/26 3:57:25 PM | 35 | 5.0 | 16.0 | 68 | 58 | 70.2 | 68.2 | 29.884 | 7.14 | 2.0 | 387 | 0.00 | 0.00 | 0.00 | 0.00 |
| 05/03/26 3:58:18 PM | 38 | 3.0 | 16.0 | 68 | 59 | 70.2 | 68.2 | 29.881 | 7.14 | 2.6 | 387 | 0.00 | 0.00 | 0.00 | 0.00 |
| 05/03/26 3:59:31 PM | 31 | 9.0 | 16.0 | 68 | 59 | 70.2 | 68.2 | 29.881 | 7.14 | 2.1 | 387 | 0.00 | 0.00 | 0.00 | 0.00 |
| 05/03/26 4:00:23 PM | 36 | 9.0 | 16.0 | 68 | 59 | 70.2 | 68.2 | 29.880 | 7.14 | 1.4 | 387 | 0.00 | 0.00 | 0.00 | 0.00 |
| 05/03/26 4:01:31 PM | 35 | 5.0 | 16.0 | 68 | 58 | 70.2 | 68.2 | 29.879 | 7.14 | 1.3 | 327 | 0.00 | 0.00 | 0.00 | 0.00 |
| 05/03/26 4:02:23 PM | 34 | 4.0 | 16.0 | 68 | 58 | 70.2 | 68.2 | 29.879 | 7.14 | 1.9 | 327 | 0.00 | 0.00 | 0.00 | 0.00 |
| 05/03/26 4:03:33 PM | 35 | 5.0 | 16.0 | 68 | 59 | 70.2 | 68.1 | 29.878 | 7.14 | 1.4 | 327 | 0.00 | 0.00 | 0.00 | 0.00 |
| 05/03/26 4:04:25 PM | 32 | 4.0 | 16.0 | 68 | 59 | 70.2 | 68.1 | 29.877 | 7.14 | 1.4 | 359 | 0.00 | 0.00 | 0.00 | 0.00 |
| 05/03/26 4:05:18 PM | 31 | 3.0 | 16.0 | 68 | 59 | 70.2 | 68.1 | 29.879 | 7.14 | 1.4 | 424 | 0.00 | 0.00 | 0.00 | 0.00 |
| 05/03/26 4:06:28 PM | 35 | 5.0 | 16.0 | 68 | 59 | 70.2 | 68.1 | 29.878 | 7.14 | 1.5 | 424 | 0.00 | 0.00 | 0.00 | 0.00 |
| 05/03/26 4:07:17 PM | 36 | 4.0 | 16.0 | 68 | 59 | 70.2 | 68.1 | 29.878 | 7.14 | 1.3 | 424 | 0.00 | 0.00 | 0.00 | 0.00 |
| 05/03/26 4:08:43 PM | 34 | 4.0 | 16.0 | 68 | 59 | 70.2 | 68.1 | 29.875 | 7.14 | 1.3 | 302 | 0.00 | 0.00 | 0.00 | 0.00 |
| 05/03/26 4:09:35 PM | 37 | 2.0 | 16.0 | 68 | 58 | 70.2 | 68.2 | 29.876 | 7.14 | 1.3 | 287 | 0.00 | 0.00 | 0.00 | 0.00 |
| 05/03/26 4:10:27 PM | 34 | 6.0 | 16.0 | 68 | 58 | 70.2 | 68.2 | 29.875 | 7.14 | 1.2 | 287 | 0.00 | 0.00 | 0.00 | 0.00 |
| 05/03/26 4:11:19 PM | 38 | 10.0 | 16.0 | 68 | 58 | 70.2 | 68.3 | 29.872 | 7.14 | 1.1 | 265 | 0.00 | 0.00 | 0.00 | 0.00 |
| 05/03/26 4:12:27 PM | 35 | 7.0 | 16.0 | 68 | 58 | 70.2 | 68.3 | 29.875 | 7.14 | 1.0 | 244 | 0.00 | 0.00 | 0.00 | 0.00 |
| 05/03/26 4:13:19 PM | 35 | 9.0 | 16.0 | 68 | 57 | 70.2 | 68.3 | 29.877 | 7.14 | 1.0 | 236 | 0.00 | 0.00 | 0.00 | 0.00 |
| 05/03/26 4:14:33 PM | 34 | 9.0 | 16.0 | 68 | 57 | 70.2 | 68.2 | 29.876 | 7.14 | 1.0 | 234 | 0.00 | 0.00 | 0.00 | 0.00 |
| 05/03/26 4:15:28 PM | 34 | 8.0 | 16.0 | 68 | 57 | 70.2 | 68.1 | 29.876 | 7.14 | 1.1 | 232 | 0.00 | 0.00 | 0.00 | 0.00 |
| 05/03/26 4:16:17 PM | 32 | 6.0 | 16.0 | 68 | 57 | 70.2 | 68.0 | 29.873 | 7.14 | 1.1 | 230 | 0.00 | 0.00 | 0.00 | 0.00 |
| 05/03/26 4:17:31 PM | 34 | 2.0 | 16.0 | 68 | 57 | 70.3 | 67.9 | 29.869 | 7.14 | 1.1 | 234 | 0.00 | 0.00 | 0.00 | 0.00 |
| 05/03/26 4:18:20 PM | 37 | 7.0 | 16.0 | 68 | 57 | 70.2 | 67.9 | 29.874 | 7.14 | 1.1 | 239 | 0.00 | 0.00 | 0.00 | 0.00 |
| 05/03/26 4:19:30 PM | 35 | 10.0 | 16.0 | 68 | 58 | 70.3 | 67.8 | 29.873 | 7.14 | 1.1 | 243 | 0.00 | 0.00 | 0.00 | 0.00 |
| 05/03/26 4:20:23 PM | 36 | 7.0 | 16.0 | 68 | 58 | 70.3 | 67.8 | 29.872 | 7.14 | 1.1 | 239 | 0.00 | 0.00 | 0.00 | 0.00 |
| 05/03/26 4:21:15 PM | 36 | 3.0 | 16.0 | 68 | 58 | 70.2 | 67.7 | 29.872 | 7.14 | 1.1 | 236 | 0.00 | 0.00 | 0.00 | 0.00 |
| 05/03/26 4:22:28 PM | 32 | 4.0 | 16.0 | 68 | 58 | 70.2 | 67.7 | 29.873 | 7.14 | 1.1 | 243 | 0.00 | 0.00 | 0.00 | 0.00 |
| 05/03/26 4:23:18 PM | 38 | 3.0 | 16.0 | 68 | 58 | 70.2 | 67.6 | 29.875 | 7.14 | 1.1 | 253 | 0.00 | 0.00 | 0.00 | 0.00 |
| 05/03/26 4:24:31 PM | 34 | 5.0 | 16.0 | 68 | 58 | 70.2 | 67.6 | 29.875 | 7.14 | 1.1 | 265 | 0.00 | 0.00 | 0.00 | 0.00 |
| 05/03/26 4:25:23 PM | 35 | 6.0 | 16.0 | 68 | 58 | 70.2 | 67.6 | 29.873 | 7.14 | 1.1 | 262 | 0.00 | 0.00 | 0.00 | 0.00 |
| 05/03/26 4:26:34 PM | 38 | 5.0 | 16.0 | 68 | 58 | 70.2 | 67.6 | 29.875 | 7.14 | 1.1 | 258 | 0.00 | 0.00 | 0.00 | 0.00 |
| 05/03/26 4:27:26 PM | 36 | 6.0 | 16.0 | 68 | 58 | 70.2 | 67.5 | 29.877 | 7.14 | 1.1 | 264 | 0.00 | 0.00 | 0.00 | 0.00 |
| 05/03/26 4:28:18 PM | 36 | 6.0 | 16.0 | 68 | 58 | 70.2 | 67.5 | 29.875 | 7.14 | 1.1 | 276 | 0.00 | 0.00 | 0.00 | 0.00 |
| 05/03/26 4:29:28 PM | 34 | 6.0 | 16.0 | 68 | 58 | 70.2 | 67.5 | 29.873 | 7.14 | 1.1 | 302 | 0.00 | 0.00 | 0.00 | 0.00 |
| 05/03/26 4:30:21 PM | 35 | 6.0 | 16.0 | 68 | 58 | 70.2 | 67.5 | 29.873 | 7.14 | 1.1 | 285 | 0.00 | 0.00 | 0.00 | 0.00 |
| 05/03/26 4:31:34 PM | 35 | 9.0 | 16.0 | 68 | 58 | 70.2 | 67.4 | 29.873 | 7.14 | 1.1 | 313 | 0.00 | 0.00 | 0.00 | 0.00 |
| 05/03/26 4:32:26 PM | 32 | 9.0 | 16.0 | 68 | 58 | 70.2 | 67.4 | 29.875 | 7.14 | 1.0 | 279 | 0.00 | 0.00 | 0.00 | 0.00 |
| 05/03/26 4:33:16 PM | 38 | 9.0 | 16.0 | 68 | 58 | 70.2 | 67.3 | 29.874 | 7.14 | 1.0 | 262 | 0.00 | 0.00 | 0.00 | 0.00 |
| 05/03/26 4:34:26 PM | 35 | 4.0 | 16.0 | 68 | 58 | 70.2 | 67.2 | 29.873 | 7.14 | 0.9 | 248 | 0.00 | 0.00 | 0.00 | 0.00 |
| 05/03/26 4:35:19 PM | 38 | 6.0 | 16.0 | 68 | 58 | 70.1 | 67.2 | 29.872 | 7.14 | 0.9 | 248 | 0.00 | 0.00 | 0.00 | 0.00 |
| 05/03/26 4:36:29 PM | 36 | 5.0 | 16.0 | 68 | 58 | 70.2 | 67.2 | 29.874 | 7.14 | 0.9 | 237 | 0.00 | 0.00 | 0.00 | 0.00 |
| 05/03/26 4:37:21 PM | 35 | 6.0 | 16.0 | 68 | 58 | 70.1 | 67.2 | 29.875 | 7.14 | 0.9 | 237 | 0.00 | 0.00 | 0.00 | 0.00 |
| 05/03/26 4:38:35 PM | 36 | 12.0 | 16.0 | 68 | 58 | 70.1 | 67.2 | 29.873 | 7.14 | 0.9 | 230 | 0.00 | 0.00 | 0.00 | 0.00 |
| 05/03/26 4:39:24 PM | 35 | 9.0 | 16.0 | 68 | 58 | 70.1 | 67.1 | 29.874 | 7.14 | 0.9 | 230 | 0.00 | 0.00 | 0.00 | 0.00 |
| 05/03/26 4:40:34 PM | 38 | 7.0 | 16.0 | 68 | 58 | 70.1 | 67.1 | 29.874 | 7.14 | 0.9 | 236 | 0.00 | 0.00 | 0.00 | 0.00 |
| 05/03/26 4:41:30 PM | 35 | 2.0 | 16.0 | 68 | 58 | 70.1 | 67.0 | 29.876 | 7.14 | 0.8 | 237 | 0.00 | 0.00 | 0.00 | 0.00 |
| 05/03/26 4:42:22 PM | 36 | 4.0 | 16.0 | 68 | 58 | 70.1 | 67.0 | 29.876 | 7.14 | 0.8 | 230 | 0.00 | 0.00 | 0.00 | 0.00 |
| 05/03/26 4:43:32 PM | 31 | 6.0 | 16.0 | 68 | 58 | 70.1 | 66.9 | 29.875 | 7.14 | 0.8 | 218 | 0.00 | 0.00 | 0.00 | 0.00 |
| 05/03/26 4:44:25 PM | 32 | 4.0 | 16.0 | 68 | 58 | 70.1 | 66.9 | 29.876 | 7.14 | 0.8 | 206 | 0.00 | 0.00 | 0.00 | 0.00 |
| 05/03/26 4:45:35 PM | 35 | 4.0 | 16.0 | 68 | 58 | 70.1 | 66.9 | 29.874 | 7.14 | 0.8 | 204 | 0.00 | 0.00 | 0.00 | 0.00 |
| 05/03/26 4:46:27 PM | 34 | 8.0 | 16.0 | 68 | 59 | 70.1 | 66.9 | 29.874 | 7.14 | 0.9 | 202 | 0.00 | 0.00 | 0.00 | 0.00 |
| 05/03/26 4:47:17 PM | 36 | 3.0 | 16.0 | 68 | 58 | 70.1 | 66.9 | 29.874 | 7.14 | 0.9 | 204 | 0.00 | 0.00 | 0.00 | 0.00 |
| 05/03/26 4:48:30 PM | 34 | 5.0 | 16.0 | 68 | 58 | 70.1 | 66.9 | 29.871 | 7.14 | 0.9 | 225 | 0.00 | 0.00 | 0.00 | 0.00 |
| 05/03/26 4:49:22 PM | 35 | 6.0 | 16.0 | 68 | 58 | 70.1 | 66.9 | 29.872 | 7.14 | 0.9 | 234 | 0.00 | 0.00 | 0.00 | 0.00 |
| 05/03/26 4:50:30 PM | 36 | 10.0 | 16.0 | 68 | 58 | 70.1 | 66.9 | 29.870 | 7.14 | 1.2 | 234 | 0.00 | 0.00 | 0.00 | 0.00 |
| 05/03/26 4:51:22 PM | 35 | 9.0 | 16.0 | 68 | 58 | 70.1 | 66.8 | 29.871 | 7.14 | 1.2 | 234 | 0.00 | 0.00 | 0.00 | 0.00 |
| 05/03/26 4:52:32 PM | 38 | 3.0 | 16.0 | 68 | 59 | 70.1 | 66.8 | 29.868 | 7.14 | 0.8 | 174 | 0.00 | 0.00 | 0.00 | 0.00 |
| 05/03/26 4:53:25 PM | 34 | 2.0 | 16.0 | 68 | 59 | 70.1 | 66.8 | 29.868 | 7.14 | 0.9 | 174 | 0.00 | 0.00 | 0.00 | 0.00 |
| 05/03/26 4:54:17 PM | 36 | 5.0 | 16.0 | 68 | 58 | 70.1 | 66.7 | 29.869 | 7.14 | 0.9 | 199 | 0.00 | 0.00 | 0.00 | 0.00 |
| 05/03/26 4:55:27 PM | 37 | 7.0 | 16.0 | 68 | 58 | 70.1 | 66.7 | 29.868 | 7.14 | 0.9 | 218 | 0.00 | 0.00 | 0.00 | 0.00 |
| 05/03/26 4:56:20 PM | 34 | 6.0 | 16.0 | 68 | 58 | 70.1 | 66.7 | 29.867 | 7.14 | 1.0 | 483 | 0.00 | 0.00 | 0.00 | 0.00 |
| 05/03/26 4:57:33 PM | 31 | 6.0 | 16.0 | 68 | 59 | 70.0 | 66.7 | 29.864 | 7.14 | 0.9 | 508 | 0.00 | 0.00 | 0.00 | 0.00 |
| 05/03/26 4:58:26 PM | 32 | 6.0 | 16.0 | 68 | 59 | 70.0 | 66.7 | 29.866 | 7.14 | 0.9 | 508 | 0.00 | 0.00 | 0.00 | 0.00 |
| 05/03/26 4:59:18 PM | 38 | 5.0 | 16.0 | 68 | 58 | 70.0 | 66.7 | 29.865 | 7.14 | 0.8 | 192 | 0.00 | 0.00 | 0.00 | 0.00 |
| 05/03/26 5:00:52 PM | 35 | 3.0 | 16.0 | 68 | 58 | 70.0 | 66.7 | 29.862 | 7.14 | 0.9 | 209 | 0.00 | 0.00 | 0.00 | 0.00 |
| 05/03/26 5:01:21 PM | 36 | 9.0 | 16.0 | 68 | 58 | 70.0 | 66.6 | 29.865 | 7.14 | 0.9 | 244 | 0.00 | 0.00 | 0.00 | 0.00 |
| 05/03/26 5:02:34 PM | 36 | 6.0 | 16.0 | 68 | 59 | 70.0 | 66.6 | 29.864 | 7.14 | 1.0 | 318 | 0.00 | 0.00 | 0.00 | 0.00 |
| 05/03/26 5:03:26 PM | 37 | 6.0 | 16.0 | 68 | 59 | 70.0 | 66.6 | 29.864 | 7.14 | 0.8 | 269 | 0.00 | 0.00 | 0.00 | 0.00 |
| 05/03/26 5:04:19 PM | 31 | 4.0 | 16.0 | 68 | 59 | 70.0 | 66.6 | 29.870 | 7.14 | 0.8 | 214 | 0.00 | 0.00 | 0.00 | 0.00 |
| 05/03/26 5:05:29 PM | 34 | 2.0 | 16.0 | 68 | 59 | 70.0 | 66.5 | 29.866 | 7.14 | 0.8 | 214 | 0.00 | 0.00 | 0.00 | 0.00 |
| 05/03/26 5:06:24 PM | 34 | 6.0 | 16.0 | 68 | 59 | 70.0 | 66.5 | 29.867 | 7.14 | 0.8 | 243 | 0.00 | 0.00 | 0.00 | 0.00 |
| 05/03/26 5:07:32 PM | 32 | 9.0 | 16.0 | 68 | 59 | 70.0 | 66.5 | 29.869 | 7.14 | 0.8 | 244 | 0.00 | 0.00 | 0.00 | 0.00 |
| 05/03/26 5:08:24 PM | 34 | 3.0 | 16.0 | 68 | 59 | 70.0 | 66.4 | 29.871 | 7.14 | 0.8 | 230 | 0.00 | 0.00 | 0.00 | 0.00 |
| 05/03/26 5:09:35 PM | 38 | 2.0 | 16.0 | 68 | 59 | 70.0 | 66.4 | 29.870 | 7.14 | 0.6 | 204 | 0.00 | 0.00 | 0.00 | 0.00 |
| 05/03/26 5:10:27 PM | 35 | 4.0 | 16.0 | 68 | 59 | 70.0 | 66.4 | 29.871 | 7.14 | 0.6 | 192 | 0.00 | 0.00 | 0.00 | 0.00 |
| 05/03/26 5:11:20 PM | 38 | 4.0 | 16.0 | 68 | 59 | 70.0 | 66.4 | 29.870 | 7.14 | 0.5 | 192 | 0.00 | 0.00 | 0.00 | 0.00 |
| 05/03/26 5:12:27 PM | 34 | 3.0 | 16.0 | 68 | 59 | 70.0 | 66.4 | 29.872 | 7.14 | 0.5 | 172 | 0.00 | 0.00 | 0.00 | 0.00 |
| 05/03/26 5:13:20 PM | 38 | 2.0 | 16.0 | 68 | 59 | 70.0 | 66.4 | 29.870 | 7.14 | 0.5 | 172 | 0.00 | 0.00 | 0.00 | 0.00 |
| 05/03/26 5:14:33 PM | 36 | 5.0 | 16.0 | 68 | 59 | 70.0 | 66.3 | 29.870 | 7.14 | 0.0 | 174 | 0.00 | 0.00 | 0.00 | 0.00 |
| 05/03/26 5:15:46 PM | 37 | 12.0 | 16.0 | 68 | 59 | 69.9 | 66.4 | 29.869 | 7.14 | 0.0 | 183 | 0.00 | 0.00 | 0.00 | 0.00 |
| 05/03/26 5:16:17 PM | 35 | 4.0 | 16.0 | 68 | 59 | 70.0 | 66.4 | 29.871 | 7.14 | 0.0 | 225 | 0.00 | 0.00 | 0.00 | 0.00 |
| 05/03/26 5:17:31 PM | 36 | 5.0 | 16.0 | 68 | 59 | 70.0 | 66.3 | 29.868 | 7.14 | 0.0 | 225 | 0.00 | 0.00 | 0.00 | 0.00 |
| 05/03/26 5:18:17 PM | 38 | 3.0 | 16.0 | 68 | 59 | 70.0 | 66.3 | 29.870 | 7.14 | 0.0 | 158 | 0.00 | 0.00 | 0.00 | 0.00 |
| 05/03/26 5:19:31 PM | 32 | 2.0 | 16.0 | 68 | 59 | 69.9 | 66.2 | 29.867 | 7.14 | 0.0 | 190 | 0.00 | 0.00 | 0.00 | 0.00 |
| 05/03/26 5:20:20 PM | 35 | 2.0 | 16.0 | 68 | 59 | 69.9 | 66.2 | 29.869 | 7.14 | 0.0 | 155 | 0.00 | 0.00 | 0.00 | 0.00 |
| 05/03/26 5:21:33 PM | 36 | 2.0 | 16.0 | 68 | 59 | 69.9 | 66.2 | 29.869 | 7.14 | 0.0 | 156 | 0.00 | 0.00 | 0.00 | 0.00 |
| 05/03/26 5:22:26 PM | 35 | 3.0 | 16.0 | 68 | 59 | 69.9 | 66.2 | 29.868 | 7.14 | 0.0 | 156 | 0.00 | 0.00 | 0.00 | 0.00 |
| 05/03/26 5:23:33 PM | 36 | 3.0 | 16.0 | 68 | 59 | 69.9 | 66.2 | 29.868 | 7.14 | 0.0 | 158 | 0.00 | 0.00 | 0.00 | 0.00 |
| 05/03/26 5:24:26 PM | 38 | 2.0 | 16.0 | 68 | 59 | 69.9 | 66.1 | 29.870 | 7.14 | 0.0 | 155 | 0.00 | 0.00 | 0.00 | 0.00 |
| 05/03/26 5:25:18 PM | 38 | 6.0 | 16.0 | 68 | 59 | 69.8 | 66.1 | 29.868 | 7.14 | 0.0 | 155 | 0.00 | 0.00 | 0.00 | 0.00 |
| 05/03/26 5:26:31 PM | 38 | 5.0 | 16.0 | 68 | 59 | 69.9 | 66.1 | 29.870 | 7.14 | 0.0 | 163 | 0.00 | 0.00 | 0.00 | 0.00 |
| 05/03/26 5:27:24 PM | 35 | 1.0 | 16.0 | 68 | 59 | 69.8 | 66.2 | 29.868 | 7.14 | 0.0 | 167 | 0.00 | 0.00 | 0.00 | 0.00 |
| 05/03/26 5:28:31 PM | 38 | 9.0 | 16.0 | 68 | 60 | 69.9 | 66.2 | 29.869 | 7.14 | 0.0 | 174 | 0.00 | 0.00 | 0.00 | 0.00 |
| 05/03/26 5:29:23 PM | 32 | 15.0 | 17.0 | 68 | 59 | 69.8 | 66.2 | 29.870 | 7.14 | 0.0 | 178 | 0.00 | 0.00 | 0.00 | 0.00 |
| 05/03/26 5:30:19 PM | 34 | 8.0 | 17.0 | 68 | 59 | 69.8 | 66.2 | 29.869 | 7.14 | 0.0 | 190 | 0.00 | 0.00 | 0.00 | 0.00 |
| 05/03/26 5:31:29 PM | 36 | 6.0 | 17.0 | 68 | 59 | 69.8 | 66.1 | 29.872 | 7.14 | 0.0 | 200 | 0.00 | 0.00 | 0.00 | 0.00 |
| 05/03/26 5:32:22 PM | 34 | 4.0 | 17.0 | 68 | 59 | 69.8 | 66.1 | 29.873 | 7.14 | 0.5 | 200 | 0.00 | 0.00 | 0.00 | 0.00 |
| 05/03/26 5:33:35 PM | 36 | 9.0 | 17.0 | 68 | 59 | 69.8 | 66.1 | 29.868 | 7.14 | 0.5 | 200 | 0.00 | 0.00 | 0.00 | 0.00 |
| 05/03/26 5:34:21 PM | 35 | 11.0 | 17.0 | 68 | 59 | 69.8 | 66.0 | 29.876 | 7.14 | 0.5 | 294 | 0.00 | 0.00 | 0.00 | 0.00 |
| 05/03/26 5:35:35 PM | 34 | 4.0 | 17.0 | 68 | 59 | 69.8 | 66.0 | 29.876 | 7.14 | 0.0 | 234 | 0.00 | 0.00 | 0.00 | 0.00 |
| 05/03/26 5:36:24 PM | 37 | 6.0 | 17.0 | 68 | 59 | 69.8 | 66.0 | 29.876 | 7.14 | 0.0 | 199 | 0.00 | 0.00 | 0.00 | 0.00 |
| 05/03/26 5:37:17 PM | 34 | 8.0 | 17.0 | 68 | 60 | 69.7 | 66.0 | 29.876 | 7.14 | 0.0 | 190 | 0.00 | 0.00 | 0.00 | 0.00 |
| 05/03/26 5:38:30 PM | 35 | 9.0 | 17.0 | 68 | 59 | 69.8 | 66.0 | 29.878 | 7.14 | 0.0 | 183 | 0.00 | 0.00 | 0.00 | 0.00 |
| 05/03/26 5:39:19 PM | 38 | 6.0 | 17.0 | 68 | 59 | 69.7 | 66.1 | 29.875 | 7.14 | 0.0 | 178 | 0.00 | 0.00 | 0.00 | 0.00 |
| 05/03/26 5:40:33 PM | 38 | 10.0 | 17.0 | 68 | 59 | 69.7 | 66.0 | 29.877 | 7.14 | 0.0 | 156 | 0.00 | 0.00 | 0.00 | 0.00 |
| 05/03/26 5:41:22 PM | 38 | 7.0 | 17.0 | 68 | 59 | 69.7 | 66.0 | 29.879 | 7.14 | 0.0 | 156 | 0.00 | 0.00 | 0.00 | 0.00 |
| 05/03/26 5:42:33 PM | 32 | 4.0 | 17.0 | 68 | 59 | 69.7 | 65.9 | 29.877 | 7.14 | 0.0 | 146 | 0.00 | 0.00 | 0.00 | 0.00 |
| 05/03/26 5:43:25 PM | 37 | 4.0 | 17.0 | 68 | 59 | 69.7 | 65.9 | 29.874 | 7.14 | 0.0 | 142 | 0.00 | 0.00 | 0.00 | 0.00 |
| 05/03/26 5:44:17 PM | 35 | 5.0 | 17.0 | 68 | 59 | 69.7 | 65.8 | 29.875 | 7.14 | 0.0 | 139 | 0.00 | 0.00 | 0.00 | 0.00 |
| 05/03/26 5:45:49 PM | 36 | 3.0 | 17.0 | 68 | 59 | 69.7 | 65.8 | 29.876 | 7.14 | 0.0 | 134 | 0.00 | 0.00 | 0.00 | 0.00 |
| 05/03/26 5:46:20 PM | 36 | 6.0 | 17.0 | 68 | 59 | 69.7 | 65.7 | 29.874 | 7.14 | 0.0 | 134 | 0.00 | 0.00 | 0.00 | 0.00 |
| 05/03/26 5:47:34 PM | 38 | 9.0 | 17.0 | 68 | 60 | 69.7 | 65.7 | 29.876 | 7.14 | 0.0 | 144 | 0.00 | 0.00 | 0.00 | 0.00 |
| 05/03/26 5:48:23 PM | 34 | 9.0 | 17.0 | 68 | 60 | 69.7 | 65.7 | 29.879 | 7.14 | 0.0 | 130 | 0.00 | 0.00 | 0.00 | 0.00 |
| 05/03/26 5:49:37 PM | 34 | 5.0 | 17.0 | 68 | 59 | 69.7 | 65.7 | 29.878 | 7.14 | 0.0 | 132 | 0.00 | 0.00 | 0.00 | 0.00 |
| 05/03/26 5:50:23 PM | 36 | 7.0 | 17.0 | 68 | 59 | 69.7 | 65.7 | 29.879 | 7.14 | 0.0 | 174 | 0.00 | 0.00 | 0.00 | 0.00 |
| 05/03/26 5:51:15 PM | 36 | 7.0 | 17.0 | 68 | 59 | 69.7 | 65.6 | 29.876 | 7.14 | 0.0 | 114 | 0.00 | 0.00 | 0.00 | 0.00 |
| 05/03/26 5:52:29 PM | 38 | 12.0 | 17.0 | 68 | 59 | 69.7 | 65.6 | 29.880 | 7.14 | 0.0 | 109 | 0.00 | 0.00 | 0.00 | 0.00 |
| 05/03/26 5:53:18 PM | 36 | 9.0 | 17.0 | 68 | 59 | 69.7 | 65.5 | 29.876 | 7.14 | 0.0 | 109 | 0.00 | 0.00 | 0.00 | 0.00 |
| 05/03/26 5:54:32 PM | 35 | 4.0 | 17.0 | 68 | 59 | 69.7 | 65.4 | 29.879 | 7.14 | 0.0 | 83 | 0.00 | 0.00 | 0.00 | 0.00 |
| 05/03/26 5:55:24 PM | 38 | 9.0 | 17.0 | 68 | 59 | 69.7 | 65.4 | 29.874 | 7.14 | 0.0 | 83 | 0.00 | 0.00 | 0.00 | 0.00 |
| 05/03/26 5:56:31 PM | 39 | 7.0 | 17.0 | 68 | 59 | 69.7 | 65.4 | 29.883 | 7.14 | 0.0 | 74 | 0.00 | 0.00 | 0.00 | 0.00 |
| 05/03/26 5:57:24 PM | 35 | 6.0 | 17.0 | 68 | 59 | 69.7 | 65.3 | 29.878 | 7.14 | 0.0 | 74 | 0.00 | 0.00 | 0.00 | 0.00 |
| 05/03/26 5:58:37 PM | 35 | 5.0 | 17.0 | 68 | 59 | 69.7 | 65.3 | 29.879 | 7.14 | 0.0 | 69 | 0.00 | 0.00 | 0.00 | 0.00 |
| 05/03/26 5:59:27 PM | 34 | 4.0 | 17.0 | 68 | 59 | 69.6 | 65.2 | 29.880 | 7.14 | 0.0 | 67 | 0.00 | 0.00 | 0.00 | 0.00 |
| 05/03/26 6:00:22 PM | 38 | 11.0 | 17.0 | 68 | 59 | 69.6 | 65.2 | 29.877 | 7.14 | 0.0 | 62 | 0.00 | 0.00 | 0.00 | 0.00 |
| 05/03/26 6:01:29 PM | 38 | 10.0 | 17.0 | 68 | 59 | 69.6 | 65.2 | 29.881 | 7.14 | 0.0 | 62 | 0.00 | 0.00 | 0.00 | 0.00 |
| 05/03/26 6:02:19 PM | 36 | 10.0 | 17.0 | 68 | 59 | 69.6 | 65.1 | 29.882 | 7.14 | 0.0 | 58 | 0.00 | 0.00 | 0.00 | 0.00 |
| 05/03/26 6:03:32 PM | 38 | 7.0 | 17.0 | 68 | 59 | 69.5 | 65.0 | 29.883 | 7.14 | 0.0 | 63 | 0.00 | 0.00 | 0.00 | 0.00 |
| 05/03/26 6:04:25 PM | 37 | 9.0 | 17.0 | 68 | 59 | 69.5 | 65.0 | 29.881 | 7.14 | 0.0 | 49 | 0.00 | 0.00 | 0.00 | 0.00 |
| 05/03/26 6:05:17 PM | 36 | 2.0 | 17.0 | 68 | 59 | 69.5 | 64.9 | 29.882 | 7.14 | 0.0 | 49 | 0.00 | 0.00 | 0.00 | 0.00 |
| 05/03/26 6:06:24 PM | 37 | 3.0 | 17.0 | 68 | 59 | 69.5 | 64.9 | 29.881 | 7.14 | 0.0 | 56 | 0.00 | 0.00 | 0.00 | 0.00 |
| 05/03/26 6:07:17 PM | 32 | 8.0 | 17.0 | 68 | 60 | 69.5 | 64.9 | 29.881 | 7.14 | 0.0 | 62 | 0.00 | 0.00 | 0.00 | 0.00 |
| 05/03/26 6:08:42 PM | 34 | 14.0 | 17.0 | 68 | 60 | 69.5 | 64.9 | 29.880 | 7.14 | 0.0 | 70 | 0.00 | 0.00 | 0.00 | 0.00 |
| 05/03/26 6:09:34 PM | 38 | 11.0 | 17.0 | 68 | 59 | 69.4 | 64.8 | 29.882 | 7.14 | 0.0 | 70 | 0.00 | 0.00 | 0.00 | 0.00 |
| 05/03/26 6:10:27 PM | 36 | 10.0 | 17.0 | 68 | 59 | 69.4 | 64.7 | 29.885 | 7.14 | 0.0 | 70 | 0.00 | 0.00 | 0.00 | 0.00 |
| 05/03/26 6:11:19 PM | 37 | 9.0 | 17.0 | 68 | 59 | 69.4 | 64.7 | 29.886 | 7.14 | 0.0 | 72 | 0.00 | 0.00 | 0.00 | 0.00 |
| 05/03/26 6:12:26 PM | 32 | 3.0 | 17.0 | 68 | 59 | 69.4 | 64.7 | 29.888 | 7.14 | 0.0 | 77 | 0.00 | 0.00 | 0.00 | 0.00 |
| 05/03/26 6:13:19 PM | 34 | 4.0 | 17.0 | 68 | 59 | 69.4 | 64.6 | 29.888 | 7.14 | 0.0 | 76 | 0.00 | 0.00 | 0.00 | 0.00 |
| 05/03/26 6:14:32 PM | 38 | 6.0 | 17.0 | 68 | 59 | 69.4 | 64.6 | 29.887 | 7.14 | 0.0 | 76 | 0.00 | 0.00 | 0.00 | 0.00 |
| 05/03/26 6:15:25 PM | 34 | 5.0 | 17.0 | 68 | 59 | 69.3 | 64.6 | 29.891 | 7.14 | 0.0 | 74 | 0.00 | 0.00 | 0.00 | 0.00 |
| 05/03/26 6:16:35 PM | 36 | 9.0 | 17.0 | 68 | 59 | 69.3 | 64.5 | 29.888 | 7.14 | 0.0 | 100 | 0.00 | 0.00 | 0.00 | 0.00 |
| 05/03/26 6:17:21 PM | 36 | 4.0 | 17.0 | 68 | 59 | 69.3 | 64.5 | 29.886 | 7.14 | 0.0 | 77 | 0.00 | 0.00 | 0.00 | 0.00 |
| 05/03/26 6:18:35 PM | 34 | 12.0 | 17.0 | 68 | 59 | 69.2 | 64.4 | 29.886 | 7.14 | 0.0 | 67 | 0.00 | 0.00 | 0.00 | 0.00 |
| 05/03/26 6:19:27 PM | 34 | 10.0 | 17.0 | 68 | 59 | 69.2 | 64.3 | 29.887 | 7.14 | 0.0 | 56 | 0.00 | 0.00 | 0.00 | 0.00 |
| 05/03/26 6:20:20 PM | 34 | 4.0 | 17.0 | 68 | 59 | 69.2 | 64.3 | 29.889 | 7.14 | 0.0 | 56 | 0.00 | 0.00 | 0.00 | 0.00 |
| 05/03/26 6:21:30 PM | 36 | 9.0 | 17.0 | 68 | 59 | 69.2 | 64.3 | 29.889 | 7.14 | 0.0 | 74 | 0.00 | 0.00 | 0.00 | 0.00 |
| 05/03/26 6:22:22 PM | 32 | 2.0 | 17.0 | 68 | 59 | 69.2 | 64.2 | 29.888 | 7.14 | 0.0 | 77 | 0.00 | 0.00 | 0.00 | 0.00 |
| 05/03/26 6:23:33 PM | 36 | 5.0 | 17.0 | 68 | 59 | 69.1 | 64.2 | 29.888 | 7.14 | 0.0 | 84 | 0.00 | 0.00 | 0.00 | 0.00 |
| 05/03/26 6:24:22 PM | 31 | 5.0 | 17.0 | 68 | 59 | 69.1 | 64.2 | 29.890 | 7.14 | 0.0 | 84 | 0.00 | 0.00 | 0.00 | 0.00 |
| 05/03/26 6:25:18 PM | 34 | 6.0 | 17.0 | 68 | 59 | 69.1 | 64.1 | 29.890 | 7.14 | 0.0 | 113 | 0.00 | 0.00 | 0.00 | 0.00 |
| 05/03/26 6:26:28 PM | 38 | 17.0 | 17.0 | 68 | 59 | 69.1 | 64.1 | 29.888 | 7.14 | 0.0 | 179 | 0.00 | 0.00 | 0.00 | 0.00 |
| 05/03/26 6:27:20 PM | 32 | 11.0 | 17.0 | 68 | 59 | 69.1 | 64.1 | 29.889 | 7.14 | 0.0 | 172 | 0.00 | 0.00 | 0.00 | 0.00 |
| 05/03/26 6:28:28 PM | 36 | 9.0 | 17.0 | 68 | 58 | 69.0 | 64.0 | 29.887 | 7.14 | 0.0 | 153 | 0.00 | 0.00 | 0.00 | 0.00 |
| 05/03/26 6:29:20 PM | 35 | 4.0 | 17.0 | 68 | 58 | 69.0 | 64.0 | 29.885 | 7.14 | 0.0 | 120 | 0.00 | 0.00 | 0.00 | 0.00 |
| 05/03/26 6:30:34 PM | 35 | 7.0 | 17.0 | 68 | 59 | 69.0 | 64.0 | 29.887 | 7.14 | 0.0 | 95 | 0.00 | 0.00 | 0.00 | 0.00 |
| 05/03/26 6:31:26 PM | 34 | 10.0 | 17.0 | 68 | 59 | 69.0 | 63.9 | 29.884 | 7.14 | 0.0 | 86 | 0.00 | 0.00 | 0.00 | 0.00 |
| 05/03/26 6:32:18 PM | 38 | 7.0 | 17.0 | 68 | 59 | 69.0 | 63.9 | 29.884 | 7.14 | 0.0 | 63 | 0.00 | 0.00 | 0.00 | 0.00 |
| 05/03/26 6:33:26 PM | 37 | 6.0 | 17.0 | 68 | 59 | 69.0 | 63.9 | 29.884 | 7.14 | 0.0 | 49 | 0.00 | 0.00 | 0.00 | 0.00 |
| 05/03/26 6:34:18 PM | 35 | 7.0 | 17.0 | 68 | 59 | 69.0 | 63.8 | 29.888 | 7.14 | 0.0 | 42 | 0.00 | 0.00 | 0.00 | 0.00 |
| 05/03/26 6:35:32 PM | 35 | 6.0 | 17.0 | 68 | 58 | 68.9 | 63.8 | 29.888 | 7.14 | 0.0 | 39 | 0.00 | 0.00 | 0.00 | 0.00 |
| 05/03/26 6:36:24 PM | 36 | 6.0 | 17.0 | 68 | 59 | 68.9 | 63.7 | 29.890 | 7.14 | 0.0 | 33 | 0.00 | 0.00 | 0.00 | 0.00 |
| 05/03/26 6:37:34 PM | 38 | 6.0 | 17.0 | 68 | 59 | 68.9 | 63.6 | 29.892 | 7.14 | 0.0 | 30 | 0.00 | 0.00 | 0.00 | 0.00 |
| 05/03/26 6:38:27 PM | 32 | 9.0 | 17.0 | 68 | 59 | 68.9 | 63.6 | 29.891 | 7.14 | 0.0 | 26 | 0.00 | 0.00 | 0.00 | 0.00 |
| 05/03/26 6:39:34 PM | 34 | 5.0 | 17.0 | 68 | 59 | 68.9 | 63.6 | 29.894 | 7.14 | 0.0 | 26 | 0.00 | 0.00 | 0.00 | 0.00 |
| 05/03/26 6:40:27 PM | 36 | 3.0 | 17.0 | 68 | 59 | 68.8 | 63.5 | 29.895 | 7.14 | 0.0 | 28 | 0.00 | 0.00 | 0.00 | 0.00 |
| 05/03/26 6:41:19 PM | 36 | 13.0 | 17.0 | 68 | 59 | 68.8 | 63.5 | 29.895 | 7.14 | 0.0 | 28 | 0.00 | 0.00 | 0.00 | 0.00 |
| 05/03/26 6:42:29 PM | 38 | 6.0 | 17.0 | 68 | 59 | 68.8 | 63.4 | 29.895 | 7.14 | 0.0 | 30 | 0.00 | 0.00 | 0.00 | 0.00 |
| 05/03/26 6:43:22 PM | 34 | 10.0 | 17.0 | 68 | 59 | 68.8 | 63.4 | 29.897 | 7.14 | 0.0 | 32 | 0.00 | 0.00 | 0.00 | 0.00 |
| 05/03/26 6:44:32 PM | 34 | 6.0 | 17.0 | 68 | 59 | 68.8 | 63.3 | 29.895 | 7.14 | 0.0 | 32 | 0.00 | 0.00 | 0.00 | 0.00 |
| 05/03/26 6:45:46 PM | 38 | 6.0 | 17.0 | 68 | 59 | 68.8 | 63.2 | 29.893 | 7.14 | 0.0 | 33 | 0.00 | 0.00 | 0.00 | 0.00 |
| 05/03/26 6:46:17 PM | 35 | 11.0 | 17.0 | 68 | 59 | 68.7 | 63.2 | 29.893 | 7.14 | 0.0 | 33 | 0.00 | 0.00 | 0.00 | 0.00 |
| 05/03/26 6:47:27 PM | 35 | 12.0 | 17.0 | 68 | 59 | 68.7 | 63.1 | 29.892 | 7.14 | 0.0 | 32 | 0.00 | 0.00 | 0.00 | 0.00 |
| 05/03/26 6:48:23 PM | 35 | 5.0 | 17.0 | 68 | 59 | 68.7 | 63.1 | 29.890 | 7.14 | 0.0 | 30 | 0.00 | 0.00 | 0.00 | 0.00 |
| 05/03/26 6:49:33 PM | 38 | 11.0 | 17.0 | 68 | 59 | 68.7 | 63.0 | 29.888 | 7.14 | 0.0 | 30 | 0.00 | 0.00 | 0.00 | 0.00 |
| 05/03/26 6:50:23 PM | 37 | 9.0 | 17.0 | 68 | 59 | 68.6 | 62.9 | 29.889 | 7.14 | 0.0 | 30 | 0.00 | 0.00 | 0.00 | 0.00 |
| 05/03/26 6:51:33 PM | 34 | 4.0 | 17.0 | 68 | 59 | 68.6 | 62.8 | 29.887 | 7.14 | 0.0 | 28 | 0.00 | 0.00 | 0.00 | 0.00 |
| 05/03/26 6:52:26 PM | 35 | 4.0 | 17.0 | 68 | 60 | 68.6 | 62.8 | 29.890 | 7.14 | 0.0 | 28 | 0.00 | 0.00 | 0.00 | 0.00 |
| 05/03/26 6:53:18 PM | 36 | 9.0 | 17.0 | 68 | 60 | 68.6 | 62.7 | 29.893 | 7.14 | 0.0 | 26 | 0.00 | 0.00 | 0.00 | 0.00 |
| 05/03/26 6:54:32 PM | 32 | 4.0 | 17.0 | 68 | 60 | 68.6 | 62.7 | 29.893 | 7.14 | 0.0 | 26 | 0.00 | 0.00 | 0.00 | 0.00 |
| 05/03/26 6:55:18 PM | 32 | 12.0 | 17.0 | 68 | 60 | 68.6 | 62.6 | 29.895 | 7.14 | 0.0 | 26 | 0.00 | 0.00 | 0.00 | 0.00 |
| 05/03/26 6:56:32 PM | 34 | 3.0 | 17.0 | 68 | 60 | 68.5 | 62.5 | 29.900 | 7.14 | 0.0 | 26 | 0.00 | 0.00 | 0.00 | 0.00 |
| 05/03/26 6:57:24 PM | 35 | 4.0 | 17.0 | 68 | 60 | 68.4 | 62.5 | 29.903 | 7.14 | 0.0 | 25 | 0.00 | 0.00 | 0.00 | 0.00 |
| 05/03/26 6:58:34 PM | 38 | 5.0 | 17.0 | 68 | 60 | 68.4 | 62.4 | 29.902 | 7.14 | 0.0 | 23 | 0.00 | 0.00 | 0.00 | 0.00 |
| 05/03/26 6:59:27 PM | 35 | 7.0 | 17.0 | 68 | 60 | 68.4 | 62.3 | 29.903 | 7.14 | 0.0 | 21 | 0.00 | 0.00 | 0.00 | 0.00 |
| 05/03/26 7:00:43 PM | 34 | 10.0 | 17.0 | 68 | 60 | 68.4 | 62.3 | 29.903 | 7.14 | 0.0 | 19 | 0.00 | 0.00 | 0.00 | 0.00 |
| 05/03/26 7:01:30 PM | 36 | 6.0 | 17.0 | 68 | 60 | 68.4 | 62.2 | 29.903 | 7.14 | 0.0 | 19 | 0.00 | 0.00 | 0.00 | 0.00 |
| 05/03/26 7:02:22 PM | 35 | 10.0 | 17.0 | 68 | 61 | 68.3 | 62.2 | 29.902 | 7.14 | 0.0 | 18 | 0.00 | 0.00 | 0.00 | 0.00 |
| 05/03/26 7:03:35 PM | 34 | 5.0 | 17.0 | 68 | 61 | 68.3 | 62.1 | 29.904 | 7.14 | 0.0 | 16 | 0.00 | 0.00 | 0.00 | 0.00 |
| 05/03/26 7:04:28 PM | 35 | 4.0 | 17.0 | 68 | 61 | 68.3 | 62.1 | 29.902 | 7.14 | 0.0 | 16 | 0.00 | 0.00 | 0.00 | 0.00 |
| 05/03/26 7:05:20 PM | 38 | 11.0 | 17.0 | 68 | 61 | 68.3 | 62.1 | 29.900 | 7.14 | 0.0 | 16 | 0.00 | 0.00 | 0.00 | 0.00 |
| 05/03/26 7:06:28 PM | 34 | 6.0 | 17.0 | 68 | 61 | 68.3 | 62.0 | 29.903 | 7.14 | 0.0 | 14 | 0.00 | 0.00 | 0.00 | 0.00 |
| 05/03/26 7:07:23 PM | 35 | 6.0 | 17.0 | 68 | 61 | 68.3 | 61.9 | 29.903 | 7.14 | 0.0 | 12 | 0.00 | 0.00 | 0.00 | 0.00 |
| 05/03/26 7:08:36 PM | 32 | 2.0 | 17.0 | 68 | 61 | 68.2 | 61.9 | 29.900 | 7.14 | 0.0 | 11 | 0.00 | 0.00 | 0.00 | 0.00 |
| 05/03/26 7:09:29 PM | 31 | 4.0 | 17.0 | 68 | 61 | 68.2 | 61.9 | 29.902 | 7.14 | 0.0 | 11 | 0.00 | 0.00 | 0.00 | 0.00 |
| 05/03/26 7:10:18 PM | 35 | 11.0 | 17.0 | 68 | 61 | 68.2 | 61.8 | 29.902 | 7.14 | 0.0 | 11 | 0.00 | 0.00 | 0.00 | 0.00 |
| 05/03/26 7:11:32 PM | 39 | 5.0 | 17.0 | 68 | 61 | 68.1 | 61.8 | 29.904 | 7.14 | 0.0 | 9 | 0.00 | 0.00 | 0.00 | 0.00 |
| 05/03/26 7:12:21 PM | 35 | 6.0 | 17.0 | 68 | 61 | 68.1 | 61.8 | 29.905 | 7.14 | 0.0 | 9 | 0.00 | 0.00 | 0.00 | 0.00 |
| 05/03/26 7:13:32 PM | 36 | 5.0 | 17.0 | 68 | 61 | 68.1 | 61.7 | 29.908 | 7.14 | 0.0 | 7 | 0.00 | 0.00 | 0.00 | 0.00 |
| 05/03/26 7:14:24 PM | 38 | 5.0 | 17.0 | 68 | 61 | 68.1 | 61.7 | 29.907 | 7.14 | 0.0 | 7 | 0.00 | 0.00 | 0.00 | 0.00 |
| 05/03/26 7:15:20 PM | 37 | 5.0 | 17.0 | 68 | 61 | 68.1 | 61.7 | 29.908 | 7.14 | 0.0 | 7 | 0.00 | 0.00 | 0.00 | 0.00 |
| 05/03/26 7:16:30 PM | 37 | 2.0 | 17.0 | 68 | 62 | 68.1 | 61.6 | 29.908 | 7.14 | 0.0 | 5 | 0.00 | 0.00 | 0.00 | 0.00 |
| 05/03/26 7:17:17 PM | 36 | 4.0 | 17.0 | 68 | 62 | 68.0 | 61.7 | 29.906 | 7.14 | 0.0 | 5 | 0.00 | 0.00 | 0.00 | 0.00 |
| 05/03/26 7:18:30 PM | 37 | 5.0 | 17.0 | 68 | 62 | 68.0 | 61.6 | 29.911 | 7.14 | 0.0 | 0 | 0.00 | 0.00 | 0.00 | 0.00 |
| 05/03/26 7:19:23 PM | 34 | 10.0 | 17.0 | 68 | 62 | 68.0 | 61.6 | 29.912 | 7.14 | 0.0 | 0 | 0.00 | 0.00 | 0.00 | 0.00 |
| 05/03/26 7:20:36 PM | 35 | 4.0 | 17.0 | 68 | 62 | 67.9 | 61.6 | 29.911 | 7.14 | 0.0 | 0 | 0.00 | 0.00 | 0.00 | 0.00 |
| 05/03/26 7:21:29 PM | 38 | 9.0 | 17.0 | 68 | 62 | 67.9 | 61.6 | 29.911 | 7.14 | 0.0 | 0 | 0.00 | 0.00 | 0.00 | 0.00 |
| 05/03/26 7:22:18 PM | 35 | 5.0 | 17.0 | 68 | 62 | 67.9 | 61.5 | 29.909 | 7.14 | 0.0 | 0 | 0.00 | 0.00 | 0.00 | 0.00 |
| 05/03/26 7:23:29 PM | 38 | 6.0 | 17.0 | 68 | 62 | 67.9 | 61.5 | 29.908 | 7.14 | 0.0 | 0 | 0.00 | 0.00 | 0.00 | 0.00 |
| 05/03/26 7:24:21 PM | 36 | 4.0 | 17.0 | 68 | 62 | 67.9 | 61.5 | 29.909 | 7.14 | 0.0 | 0 | 0.00 | 0.00 | 0.00 | 0.00 |
| 05/03/26 7:25:31 PM | 32 | 6.0 | 17.0 | 68 | 62 | 67.8 | 61.4 | 29.911 | 7.14 | 0.0 | 5 | 0.00 | 0.00 | 0.00 | 0.00 |
| 05/03/26 7:26:24 PM | 38 | 7.0 | 17.0 | 68 | 62 | 67.8 | 61.4 | 29.914 | 7.14 | 0.0 | 5 | 0.00 | 0.00 | 0.00 | 0.00 |
| 05/03/26 7:27:16 PM | 35 | 4.0 | 17.0 | 68 | 62 | 67.8 | 61.4 | 29.915 | 7.14 | 0.0 | 0 | 0.00 | 0.00 | 0.00 | 0.00 |
| 05/03/26 7:28:24 PM | 36 | 4.0 | 17.0 | 68 | 62 | 67.8 | 61.4 | 29.916 | 7.14 | 0.0 | 0 | 0.00 | 0.00 | 0.00 | 0.00 |
| 05/03/26 7:29:16 PM | 37 | 11.0 | 17.0 | 68 | 62 | 67.8 | 61.3 | 29.919 | 7.14 | 0.0 | 0 | 0.00 | 0.00 | 0.00 | 0.00 |
| 05/03/26 7:30:30 PM | 36 | 9.0 | 17.0 | 68 | 62 | 67.8 | 61.3 | 29.919 | 7.14 | 0.0 | 0 | 0.00 | 0.00 | 0.00 | 0.00 |
| 05/03/26 7:31:22 PM | 34 | 9.0 | 17.0 | 68 | 62 | 67.7 | 61.3 | 29.922 | 7.14 | 0.0 | 0 | 0.00 | 0.00 | 0.00 | 0.00 |
| 05/03/26 7:32:33 PM | 36 | 4.0 | 17.0 | 68 | 62 | 67.7 | 61.3 | 29.924 | 7.14 | 0.0 | 0 | 0.00 | 0.00 | 0.00 | 0.00 |
| 05/03/26 7:33:19 PM | 36 | 2.0 | 17.0 | 68 | 62 | 67.7 | 61.2 | 29.922 | 7.14 | 0.0 | 0 | 0.00 | 0.00 | 0.00 | 0.00 |
| 05/03/26 7:34:32 PM | 39 | 14.0 | 17.0 | 68 | 62 | 67.7 | 61.2 | 29.920 | 7.14 | 0.0 | 0 | 0.00 | 0.00 | 0.00 | 0.00 |
| 05/03/26 7:35:25 PM | 38 | 9.0 | 17.0 | 68 | 63 | 67.7 | 61.2 | 29.920 | 7.14 | 0.0 | 0 | 0.00 | 0.00 | 0.00 | 0.00 |
| 05/03/26 7:36:17 PM | 36 | 4.0 | 17.0 | 68 | 63 | 67.6 | 61.1 | 29.921 | 7.14 | 0.0 | 0 | 0.00 | 0.00 | 0.00 | 0.00 |
| 05/03/26 7:37:31 PM | 38 | 5.0 | 17.0 | 68 | 63 | 67.6 | 61.1 | 29.922 | 7.14 | 0.0 | 0 | 0.00 | 0.00 | 0.00 | 0.00 |
| 05/03/26 7:38:23 PM | 34 | 10.0 | 17.0 | 68 | 63 | 67.6 | 61.1 | 29.923 | 7.14 | 0.0 | 0 | 0.00 | 0.00 | 0.00 | 0.00 |
| 05/03/26 7:39:31 PM | 35 | 12.0 | 17.0 | 68 | 63 | 67.6 | 61.0 | 29.923 | 7.14 | 0.0 | 0 | 0.00 | 0.00 | 0.00 | 0.00 |
| 05/03/26 7:40:23 PM | 38 | 11.0 | 17.0 | 68 | 63 | 67.5 | 61.0 | 29.922 | 7.14 | 0.0 | 0 | 0.00 | 0.00 | 0.00 | 0.00 |
| 05/03/26 7:41:37 PM | 35 | 6.0 | 17.0 | 68 | 63 | 67.5 | 60.9 | 29.926 | 7.14 | 0.0 | 0 | 0.00 | 0.00 | 0.00 | 0.00 |
| 05/03/26 7:42:29 PM | 38 | 6.0 | 17.0 | 68 | 63 | 67.5 | 60.9 | 29.929 | 7.14 | 0.0 | 0 | 0.00 | 0.00 | 0.00 | 0.00 |
| 05/03/26 7:43:19 PM | 36 | 9.0 | 17.0 | 68 | 64 | 67.5 | 60.9 | 29.928 | 7.14 | 0.0 | 0 | 0.00 | 0.00 | 0.00 | 0.00 |
| 05/03/26 7:44:26 PM | 32 | 9.0 | 17.0 | 68 | 63 | 67.5 | 60.8 | 29.931 | 7.14 | 0.0 | 0 | 0.00 | 0.00 | 0.00 | 0.00 |
| 05/03/26 7:45:43 PM | 34 | 11.0 | 17.0 | 68 | 63 | 67.5 | 60.8 | 29.927 | 7.14 | 0.0 | 0 | 0.00 | 0.00 | 0.00 | 0.00 |
| 05/03/26 7:46:32 PM | 38 | 6.0 | 17.0 | 68 | 64 | 67.5 | 60.8 | 29.928 | 7.14 | 0.0 | 0 | 0.00 | 0.00 | 0.00 | 0.00 |
| 05/03/26 7:47:25 PM | 36 | 6.0 | 17.0 | 68 | 64 | 67.5 | 60.7 | 29.930 | 7.14 | 0.0 | 0 | 0.00 | 0.00 | 0.00 | 0.00 |
| 05/03/26 7:48:17 PM | 36 | 3.0 | 17.0 | 68 | 64 | 67.4 | 60.7 | 29.929 | 7.14 | 0.0 | 0 | 0.00 | 0.00 | 0.00 | 0.00 |
| 05/03/26 7:49:31 PM | 34 | 4.0 | 17.0 | 68 | 64 | 67.4 | 60.7 | 29.929 | 7.14 | 0.0 | 0 | 0.00 | 0.00 | 0.00 | 0.00 |
| 05/03/26 7:50:20 PM | 38 | 9.0 | 17.0 | 68 | 64 | 67.4 | 60.7 | 29.930 | 7.14 | 0.0 | 0 | 0.00 | 0.00 | 0.00 | 0.00 |
| 05/03/26 7:51:31 PM | 35 | 10.0 | 17.0 | 68 | 64 | 67.3 | 60.7 | 29.930 | 7.14 | 0.0 | 0 | 0.00 | 0.00 | 0.00 | 0.00 |
| 05/03/26 7:52:24 PM | 36 | 9.0 | 17.0 | 68 | 64 | 67.4 | 60.7 | 29.931 | 7.14 | 0.0 | 0 | 0.00 | 0.00 | 0.00 | 0.00 |
| 05/03/26 7:53:37 PM | 38 | 5.0 | 17.0 | 68 | 64 | 67.3 | 60.7 | 29.930 | 7.14 | 0.0 | 0 | 0.00 | 0.00 | 0.00 | 0.00 |
| 05/03/26 7:54:26 PM | 35 | 5.0 | 17.0 | 68 | 65 | 67.3 | 60.6 | 29.931 | 7.14 | 0.0 | 0 | 0.00 | 0.00 | 0.00 | 0.00 |
| 05/03/26 7:55:37 PM | 38 | 11.0 | 17.0 | 68 | 65 | 67.3 | 60.6 | 29.930 | 7.14 | 0.0 | 0 | 0.00 | 0.00 | 0.00 | 0.00 |
| 05/03/26 7:56:29 PM | 35 | 12.0 | 17.0 | 68 | 65 | 67.3 | 60.5 | 29.932 | 7.14 | 0.0 | 0 | 0.00 | 0.00 | 0.00 | 0.00 |
| 05/03/26 7:57:22 PM | 38 | 6.0 | 17.0 | 68 | 65 | 67.3 | 60.5 | 29.931 | 7.14 | 0.0 | 0 | 0.00 | 0.00 | 0.00 | 0.00 |
| 05/03/26 7:58:32 PM | 34 | 6.0 | 17.0 | 68 | 65 | 67.2 | 60.5 | 29.931 | 7.14 | 0.0 | 0 | 0.00 | 0.00 | 0.00 | 0.00 |
| 05/03/26 7:59:25 PM | 35 | 7.0 | 17.0 | 68 | 65 | 67.3 | 60.5 | 29.931 | 7.14 | 0.0 | 0 | 0.00 | 0.00 | 0.00 | 0.00 |
| 05/03/26 8:00:17 PM | 38 | 7.0 | 17.0 | 68 | 65 | 67.2 | 60.5 | 29.931 | 7.14 | 0.0 | 0 | 0.00 | 0.00 | 0.00 | 0.00 |
| 05/03/26 8:01:25 PM | 32 | 9.0 | 17.0 | 68 | 65 | 67.2 | 60.4 | 29.933 | 7.14 | 0.0 | 0 | 0.00 | 0.00 | 0.00 | 0.00 |
| 05/03/26 8:02:17 PM | 34 | 11.0 | 17.0 | 68 | 65 | 67.2 | 60.4 | 29.933 | 7.14 | 0.0 | 0 | 0.00 | 0.00 | 0.00 | 0.00 |
| 05/03/26 8:03:31 PM | 36 | 7.0 | 17.0 | 68 | 65 | 67.2 | 60.4 | 29.937 | 7.14 | 0.0 | 0 | 0.00 | 0.00 | 0.00 | 0.00 |
| 05/03/26 8:04:20 PM | 35 | 11.0 | 17.0 | 68 | 65 | 67.2 | 60.4 | 29.937 | 7.14 | 0.0 | 0 | 0.00 | 0.00 | 0.00 | 0.00 |
| 05/03/26 8:05:34 PM | 37 | 11.0 | 17.0 | 68 | 65 | 67.1 | 60.3 | 29.936 | 7.14 | 0.0 | 0 | 0.00 | 0.00 | 0.00 | 0.00 |
| 05/03/26 8:06:20 PM | 37 | 3.0 | 17.0 | 68 | 65 | 67.1 | 60.3 | 29.936 | 7.14 | 0.0 | 0 | 0.00 | 0.00 | 0.00 | 0.00 |
| 05/03/26 8:07:34 PM | 37 | 7.0 | 17.0 | 68 | 65 | 67.0 | 60.2 | 29.936 | 7.14 | 0.0 | 0 | 0.00 | 0.00 | 0.00 | 0.00 |
| 05/03/26 8:08:35 PM | 38 | 5.0 | 17.0 | 68 | 66 | 67.1 | 60.2 | 29.936 | 7.14 | 0.0 | 0 | 0.00 | 0.00 | 0.00 | 0.00 |
| 05/03/26 8:09:28 PM | 35 | 6.0 | 17.0 | 68 | 66 | 67.1 | 60.2 | 29.939 | 7.14 | 0.0 | 0 | 0.00 | 0.00 | 0.00 | 0.00 |
| 05/03/26 8:10:21 PM | 38 | 6.0 | 17.0 | 68 | 66 | 67.1 | 60.2 | 29.937 | 7.14 | 0.0 | 0 | 0.00 | 0.00 | 0.00 | 0.00 |
| 05/03/26 8:11:25 PM | 36 | 7.0 | 17.0 | 68 | 66 | 67.0 | 60.1 | 29.936 | 7.14 | 0.0 | 0 | 0.00 | 0.00 | 0.00 | 0.00 |
| 05/03/26 8:12:21 PM | 35 | 5.0 | 17.0 | 68 | 66 | 66.9 | 60.1 | 29.939 | 7.14 | 0.0 | 0 | 0.00 | 0.00 | 0.00 | 0.00 |
| 05/03/26 8:13:31 PM | 36 | 5.0 | 17.0 | 68 | 66 | 66.9 | 60.0 | 29.938 | 7.14 | 0.0 | 0 | 0.00 | 0.00 | 0.00 | 0.00 |
| 05/03/26 8:14:24 PM | 36 | 4.0 | 17.0 | 68 | 66 | 66.9 | 60.0 | 29.940 | 7.14 | 0.0 | 0 | 0.00 | 0.00 | 0.00 | 0.00 |
| 05/03/26 8:15:58 PM | 35 | 7.0 | 17.0 | 68 | 66 | 66.9 | 60.0 | 29.940 | 7.14 | 0.0 | 0 | 0.00 | 0.00 | 0.00 | 0.00 |
| 05/03/26 8:16:30 PM | 36 | 4.0 | 17.0 | 68 | 66 | 66.9 | 59.9 | 29.936 | 7.14 | 0.0 | 0 | 0.00 | 0.00 | 0.00 | 0.00 |
| 05/03/26 8:17:19 PM | 34 | 5.0 | 17.0 | 68 | 66 | 66.8 | 59.9 | 29.939 | 7.14 | 0.0 | 0 | 0.00 | 0.00 | 0.00 | 0.00 |
| 05/03/26 8:18:30 PM | 36 | 5.0 | 17.0 | 68 | 66 | 66.8 | 59.9 | 29.939 | 7.14 | 0.0 | 0 | 0.00 | 0.00 | 0.00 | 0.00 |
| 05/03/26 8:19:22 PM | 31 | 8.0 | 17.0 | 68 | 66 | 66.8 | 59.8 | 29.937 | 7.14 | 0.0 | 0 | 0.00 | 0.00 | 0.00 | 0.00 |
| 05/03/26 8:20:36 PM | 38 | 9.0 | 17.0 | 68 | 67 | 66.8 | 59.8 | 29.938 | 7.14 | 0.0 | 0 | 0.00 | 0.00 | 0.00 | 0.00 |
| 05/03/26 8:21:28 PM | 34 | 9.0 | 17.0 | 68 | 67 | 66.8 | 59.8 | 29.938 | 7.14 | 0.0 | 0 | 0.00 | 0.00 | 0.00 | 0.00 |
| 05/03/26 8:22:21 PM | 35 | 9.0 | 17.0 | 68 | 67 | 66.8 | 59.8 | 29.937 | 7.14 | 0.0 | 0 | 0.00 | 0.00 | 0.00 | 0.00 |
| 05/03/26 8:23:28 PM | 36 | 7.0 | 17.0 | 68 | 67 | 66.8 | 59.7 | 29.937 | 7.14 | 0.0 | 0 | 0.00 | 0.00 | 0.00 | 0.00 |
| 05/03/26 8:24:21 PM | 32 | 5.0 | 17.0 | 68 | 67 | 66.7 | 59.7 | 29.943 | 7.14 | 0.0 | 0 | 0.00 | 0.00 | 0.00 | 0.00 |
| 05/03/26 8:25:34 PM | 35 | 3.0 | 17.0 | 68 | 67 | 66.8 | 59.6 | 29.942 | 7.14 | 0.0 | 0 | 0.00 | 0.00 | 0.00 | 0.00 |
| 05/03/26 8:26:27 PM | 36 | 4.0 | 17.0 | 68 | 67 | 66.7 | 59.6 | 29.945 | 7.14 | 0.0 | 0 | 0.00 | 0.00 | 0.00 | 0.00 |
| 05/03/26 8:27:17 PM | 38 | 5.0 | 17.0 | 68 | 67 | 66.7 | 59.7 | 29.947 | 7.14 | 0.0 | 0 | 0.00 | 0.00 | 0.00 | 0.00 |
| 05/03/26 8:28:27 PM | 36 | 2.0 | 17.0 | 68 | 67 | 66.7 | 59.6 | 29.946 | 7.14 | 0.0 | 0 | 0.00 | 0.00 | 0.00 | 0.00 |
| 05/03/26 8:29:20 PM | 35 | 3.0 | 17.0 | 68 | 67 | 66.7 | 59.6 | 29.946 | 7.14 | 0.0 | 0 | 0.00 | 0.00 | 0.00 | 0.00 |
| 05/03/26 8:30:33 PM | 38 | 11.0 | 17.0 | 68 | 67 | 66.6 | 59.6 | 29.944 | 7.14 | 0.0 | 0 | 0.00 | 0.00 | 0.00 | 0.00 |
| 05/03/26 8:31:23 PM | 38 | 9.0 | 17.0 | 68 | 67 | 66.6 | 59.6 | 29.941 | 7.14 | 0.0 | 0 | 0.00 | 0.00 | 0.00 | 0.00 |
| 05/03/26 8:32:36 PM | 37 | 5.0 | 17.0 | 68 | 68 | 66.6 | 59.6 | 29.946 | 7.14 | 0.0 | 0 | 0.00 | 0.00 | 0.00 | 0.00 |
| 05/03/26 8:33:23 PM | 34 | 11.0 | 17.0 | 68 | 68 | 66.6 | 59.6 | 29.944 | 7.14 | 0.0 | 0 | 0.00 | 0.00 | 0.00 | 0.00 |
| 05/03/26 8:34:33 PM | 36 | 6.0 | 17.0 | 68 | 68 | 66.6 | 59.6 | 29.947 | 7.14 | 0.0 | 0 | 0.00 | 0.00 | 0.00 | 0.00 |
| 05/03/26 8:35:26 PM | 31 | 9.0 | 17.0 | 68 | 68 | 66.6 | 59.5 | 29.946 | 7.14 | 0.0 | 0 | 0.00 | 0.00 | 0.00 | 0.00 |
| 05/03/26 8:36:18 PM | 34 | 6.0 | 17.0 | 68 | 68 | 66.5 | 59.5 | 29.947 | 7.14 | 0.0 | 0 | 0.00 | 0.00 | 0.00 | 0.00 |
| 05/03/26 8:37:32 PM | 31 | 3.0 | 17.0 | 68 | 68 | 66.5 | 59.5 | 29.947 | 7.14 | 0.0 | 0 | 0.00 | 0.00 | 0.00 | 0.00 |
| 05/03/26 8:38:21 PM | 35 | 12.0 | 17.0 | 68 | 68 | 66.5 | 59.5 | 29.946 | 7.14 | 0.0 | 0 | 0.00 | 0.00 | 0.00 | 0.00 |
| 05/03/26 8:39:32 PM | 37 | 5.0 | 17.0 | 68 | 68 | 66.5 | 59.5 | 29.947 | 7.14 | 0.0 | 0 | 0.00 | 0.00 | 0.00 | 0.00 |
| 05/03/26 8:40:24 PM | 36 | 9.0 | 17.0 | 68 | 68 | 66.5 | 59.4 | 29.946 | 7.14 | 0.0 | 0 | 0.00 | 0.00 | 0.00 | 0.00 |
| 05/03/26 8:41:35 PM | 37 | 13.0 | 17.0 | 68 | 68 | 66.5 | 59.4 | 29.945 | 7.14 | 0.0 | 0 | 0.00 | 0.00 | 0.00 | 0.00 |
| 05/03/26 8:42:28 PM | 38 | 10.0 | 17.0 | 68 | 68 | 66.5 | 59.4 | 29.943 | 7.14 | 0.0 | 0 | 0.00 | 0.00 | 0.00 | 0.00 |
| 05/03/26 8:43:20 PM | 37 | 9.0 | 17.0 | 68 | 68 | 66.5 | 59.4 | 29.943 | 7.14 | 0.0 | 0 | 0.00 | 0.00 | 0.00 | 0.00 |
| 05/03/26 8:44:28 PM | 38 | 3.0 | 17.0 | 68 | 68 | 66.4 | 59.4 | 29.942 | 7.14 | 0.0 | 0 | 0.00 | 0.00 | 0.00 | 0.00 |
| 05/03/26 8:45:20 PM | 35 | 6.0 | 17.0 | 68 | 68 | 66.5 | 59.4 | 29.946 | 7.14 | 0.0 | 0 | 0.00 | 0.00 | 0.00 | 0.00 |
| 05/03/26 8:46:34 PM | 37 | 6.0 | 17.0 | 68 | 68 | 66.5 | 59.4 | 29.946 | 7.14 | 0.0 | 0 | 0.00 | 0.00 | 0.00 | 0.00 |
| 05/03/26 8:47:23 PM | 30 | 3.0 | 17.0 | 68 | 68 | 66.4 | 59.4 | 29.946 | 7.14 | 0.0 | 0 | 0.00 | 0.00 | 0.00 | 0.00 |
| 05/03/26 8:48:19 PM | 35 | 7.0 | 17.0 | 68 | 68 | 66.4 | 59.3 | 29.949 | 7.14 | 0.0 | 0 | 0.00 | 0.00 | 0.00 | 0.00 |
| 05/03/26 8:49:26 PM | 35 | 12.0 | 17.0 | 68 | 68 | 66.4 | 59.3 | 29.944 | 7.14 | 0.0 | 0 | 0.00 | 0.00 | 0.00 | 0.00 |
| 05/03/26 8:50:19 PM | 35 | 9.0 | 17.0 | 68 | 68 | 66.4 | 59.3 | 29.945 | 7.14 | 0.0 | 0 | 0.00 | 0.00 | 0.00 | 0.00 |
| 05/03/26 8:51:29 PM | 38 | 6.0 | 17.0 | 68 | 68 | 66.4 | 59.3 | 29.948 | 7.14 | 0.0 | 0 | 0.00 | 0.00 | 0.00 | 0.00 |
| 05/03/26 8:52:22 PM | 34 | 4.0 | 17.0 | 68 | 68 | 66.4 | 59.3 | 29.946 | 7.14 | 0.0 | 0 | 0.00 | 0.00 | 0.00 | 0.00 |
| 05/03/26 8:53:32 PM | 36 | 5.0 | 17.0 | 68 | 69 | 66.3 | 59.3 | 29.946 | 7.14 | 0.0 | 0 | 0.00 | 0.00 | 0.00 | 0.00 |
| 05/03/26 8:54:28 PM | 36 | 6.0 | 17.0 | 68 | 69 | 66.3 | 59.2 | 29.949 | 7.14 | 0.0 | 0 | 0.00 | 0.00 | 0.00 | 0.00 |
| 05/03/26 8:55:36 PM | 36 | 3.0 | 17.0 | 68 | 69 | 66.3 | 59.2 | 29.950 | 7.14 | 0.0 | 0 | 0.00 | 0.00 | 0.00 | 0.00 |
| 05/03/26 8:56:28 PM | 32 | 4.0 | 17.0 | 68 | 69 | 66.3 | 59.2 | 29.951 | 7.14 | 0.0 | 0 | 0.00 | 0.00 | 0.00 | 0.00 |
| 05/03/26 8:57:21 PM | 34 | 8.0 | 17.0 | 68 | 69 | 66.3 | 59.2 | 29.951 | 7.14 | 0.0 | 0 | 0.00 | 0.00 | 0.00 | 0.00 |
| 05/03/26 8:58:31 PM | 36 | 7.0 | 17.0 | 68 | 69 | 66.3 | 59.2 | 29.951 | 7.14 | 0.0 | 0 | 0.00 | 0.00 | 0.00 | 0.00 |
| 05/03/26 8:59:24 PM | 31 | 5.0 | 17.0 | 68 | 69 | 66.2 | 59.2 | 29.949 | 7.14 | 0.0 | 0 | 0.00 | 0.00 | 0.00 | 0.00 |
| 05/03/26 9:00:34 PM | 37 | 10.0 | 17.0 | 68 | 69 | 66.3 | 59.1 | 29.950 | 7.14 | 0.0 | 0 | 0.00 | 0.00 | 0.00 | 0.00 |
| 05/03/26 9:01:24 PM | 31 | 3.0 | 17.0 | 68 | 69 | 66.2 | 59.1 | 29.949 | 7.14 | 0.0 | 0 | 0.00 | 0.00 | 0.00 | 0.00 |
| 05/03/26 9:02:16 PM | 36 | 2.0 | 17.0 | 68 | 69 | 66.2 | 59.1 | 29.952 | 7.14 | 0.0 | 0 | 0.00 | 0.00 | 0.00 | 0.00 |
| 05/03/26 9:03:30 PM | 37 | 4.0 | 17.0 | 68 | 69 | 66.2 | 59.0 | 29.951 | 7.14 | 0.0 | 0 | 0.00 | 0.00 | 0.00 | 0.00 |
| 05/03/26 9:04:22 PM | 35 | 6.0 | 17.0 | 68 | 69 | 66.2 | 59.0 | 29.955 | 7.14 | 0.0 | 0 | 0.00 | 0.00 | 0.00 | 0.00 |
| 05/03/26 9:05:30 PM | 35 | 6.0 | 17.0 | 68 | 70 | 66.2 | 59.0 | 29.954 | 7.14 | 0.0 | 0 | 0.00 | 0.00 | 0.00 | 0.00 |
| 05/03/26 9:06:22 PM | 35 | 9.0 | 17.0 | 68 | 70 | 66.1 | 59.0 | 29.955 | 7.14 | 0.0 | 0 | 0.00 | 0.00 | 0.00 | 0.00 |
| 05/03/26 9:07:36 PM | 37 | 10.0 | 17.0 | 68 | 70 | 66.2 | 59.0 | 29.954 | 7.14 | 0.0 | 0 | 0.00 | 0.00 | 0.00 | 0.00 |
| 05/03/26 9:08:25 PM | 32 | 5.0 | 17.0 | 68 | 70 | 66.1 | 58.9 | 29.951 | 7.14 | 0.0 | 0 | 0.00 | 0.00 | 0.00 | 0.00 |
| 05/03/26 9:09:18 PM | 35 | 7.0 | 17.0 | 68 | 70 | 66.1 | 58.9 | 29.952 | 7.14 | 0.0 | 0 | 0.00 | 0.00 | 0.00 | 0.00 |
| 05/03/26 9:10:29 PM | 32 | 9.0 | 17.0 | 68 | 70 | 66.1 | 58.9 | 29.956 | 7.14 | 0.0 | 0 | 0.00 | 0.00 | 0.00 | 0.00 |
| 05/03/26 9:11:18 PM | 36 | 6.0 | 17.0 | 68 | 70 | 66.1 | 58.9 | 29.953 | 7.14 | 0.0 | 0 | 0.00 | 0.00 | 0.00 | 0.00 |
| 05/03/26 9:12:32 PM | 38 | 9.0 | 17.0 | 68 | 70 | 66.1 | 58.8 | 29.952 | 7.14 | 0.0 | 0 | 0.00 | 0.00 | 0.00 | 0.00 |
| 05/03/26 9:13:25 PM | 38 | 13.0 | 17.0 | 68 | 70 | 66.1 | 58.8 | 29.953 | 7.14 | 0.0 | 0 | 0.00 | 0.00 | 0.00 | 0.00 |
| 05/03/26 9:14:17 PM | 36 | 9.0 | 17.0 | 68 | 70 | 66.0 | 58.8 | 29.954 | 7.14 | 0.0 | 0 | 0.00 | 0.00 | 0.00 | 0.00 |
| 05/03/26 9:15:31 PM | 32 | 11.0 | 17.0 | 68 | 70 | 66.0 | 58.7 | 29.952 | 7.14 | 0.0 | 0 | 0.00 | 0.00 | 0.00 | 0.00 |
| 05/03/26 9:16:17 PM | 32 | 11.0 | 17.0 | 68 | 70 | 66.0 | 58.7 | 29.952 | 7.14 | 0.0 | 0 | 0.00 | 0.00 | 0.00 | 0.00 |
| 05/03/26 9:17:31 PM | 38 | 4.0 | 17.0 | 68 | 70 | 66.0 | 58.6 | 29.951 | 7.14 | 0.0 | 0 | 0.00 | 0.00 | 0.00 | 0.00 |
| 05/03/26 9:18:24 PM | 36 | 9.0 | 17.0 | 68 | 70 | 66.0 | 58.6 | 29.952 | 7.14 | 0.0 | 0 | 0.00 | 0.00 | 0.00 | 0.00 |
| 05/03/26 9:19:37 PM | 34 | 11.0 | 17.0 | 68 | 70 | 66.0 | 58.6 | 29.954 | 7.14 | 0.0 | 0 | 0.00 | 0.00 | 0.00 | 0.00 |
| 05/03/26 9:20:27 PM | 38 | 10.0 | 17.0 | 68 | 70 | 66.0 | 58.6 | 29.952 | 7.14 | 0.0 | 0 | 0.00 | 0.00 | 0.00 | 0.00 |
| 05/03/26 9:21:19 PM | 34 | 8.0 | 17.0 | 68 | 70 | 65.9 | 58.5 | 29.955 | 7.14 | 0.0 | 0 | 0.00 | 0.00 | 0.00 | 0.00 |
| 05/03/26 9:22:27 PM | 28 | 8.0 | 17.0 | 68 | 70 | 65.9 | 58.5 | 29.959 | 7.14 | 0.0 | 0 | 0.00 | 0.00 | 0.00 | 0.00 |
| 05/03/26 9:23:19 PM | 32 | 3.0 | 17.0 | 68 | 70 | 65.9 | 58.5 | 29.960 | 7.14 | 0.0 | 0 | 0.00 | 0.00 | 0.00 | 0.00 |
| 05/03/26 9:24:33 PM | 34 | 3.0 | 17.0 | 68 | 70 | 65.9 | 58.4 | 29.960 | 7.14 | 0.0 | 0 | 0.00 | 0.00 | 0.00 | 0.00 |
| 05/03/26 9:25:25 PM | 38 | 4.0 | 17.0 | 68 | 70 | 65.9 | 58.4 | 29.961 | 7.14 | 0.0 | 0 | 0.00 | 0.00 | 0.00 | 0.00 |
| 05/03/26 9:26:18 PM | 35 | 4.0 | 17.0 | 68 | 71 | 65.8 | 58.4 | 29.961 | 7.14 | 0.0 | 0 | 0.00 | 0.00 | 0.00 | 0.00 |
| 05/03/26 9:27:26 PM | 38 | 4.0 | 17.0 | 68 | 71 | 65.8 | 58.4 | 29.961 | 7.14 | 0.0 | 0 | 0.00 | 0.00 | 0.00 | 0.00 |
| 05/03/26 9:28:36 PM | 36 | 7.0 | 17.0 | 68 | 71 | 65.8 | 58.4 | 29.961 | 7.14 | 0.0 | 0 | 0.00 | 0.00 | 0.00 | 0.00 |
| 05/03/26 9:29:29 PM | 38 | 9.0 | 17.0 | 68 | 71 | 65.8 | 58.4 | 29.962 | 7.14 | 0.0 | 0 | 0.00 | 0.00 | 0.00 | 0.00 |
| 05/03/26 9:30:45 PM | 36 | 5.0 | 17.0 | 68 | 71 | 65.7 | 58.3 | 29.961 | 7.14 | 0.0 | 0 | 0.00 | 0.00 | 0.00 | 0.00 |
| 05/03/26 9:31:35 PM | 35 | 5.0 | 17.0 | 68 | 71 | 65.7 | 58.3 | 29.960 | 7.14 | 0.0 | 0 | 0.00 | 0.00 | 0.00 | 0.00 |
| 05/03/26 9:32:27 PM | 35 | 10.0 | 17.0 | 68 | 71 | 65.7 | 58.3 | 29.961 | 7.14 | 0.0 | 0 | 0.00 | 0.00 | 0.00 | 0.00 |
| 05/03/26 9:33:35 PM | 38 | 4.0 | 17.0 | 68 | 71 | 65.7 | 58.2 | 29.960 | 7.14 | 0.0 | 0 | 0.00 | 0.00 | 0.00 | 0.00 |
| 05/03/26 9:34:28 PM | 32 | 5.0 | 17.0 | 68 | 71 | 65.7 | 58.2 | 29.962 | 7.14 | 0.0 | 0 | 0.00 | 0.00 | 0.00 | 0.00 |
| 05/03/26 9:35:20 PM | 38 | 7.0 | 17.0 | 68 | 71 | 65.7 | 58.2 | 29.961 | 7.14 | 0.0 | 0 | 0.00 | 0.00 | 0.00 | 0.00 |
| 05/03/26 9:36:34 PM | 34 | 4.0 | 17.0 | 68 | 71 | 65.7 | 58.2 | 29.964 | 7.14 | 0.0 | 0 | 0.00 | 0.00 | 0.00 | 0.00 |
| 05/03/26 9:37:26 PM | 36 | 7.0 | 17.0 | 68 | 71 | 65.7 | 58.1 | 29.963 | 7.14 | 0.0 | 0 | 0.00 | 0.00 | 0.00 | 0.00 |
| 05/03/26 9:38:34 PM | 35 | 7.0 | 17.0 | 68 | 71 | 65.7 | 58.1 | 29.966 | 7.14 | 0.0 | 0 | 0.00 | 0.00 | 0.00 | 0.00 |
| 05/03/26 9:39:26 PM | 34 | 6.0 | 17.0 | 68 | 71 | 65.6 | 58.1 | 29.964 | 7.14 | 0.0 | 0 | 0.00 | 0.00 | 0.00 | 0.00 |
| 05/03/26 9:40:16 PM | 35 | 7.0 | 17.0 | 68 | 71 | 65.6 | 58.1 | 29.968 | 7.14 | 0.0 | 0 | 0.00 | 0.00 | 0.00 | 0.00 |
| 05/03/26 9:41:29 PM | 35 | 7.0 | 17.0 | 68 | 71 | 65.6 | 58.1 | 29.968 | 7.14 | 0.0 | 0 | 0.00 | 0.00 | 0.00 | 0.00 |
| 05/03/26 9:42:22 PM | 37 | 5.0 | 17.0 | 68 | 71 | 65.6 | 58.1 | 29.967 | 7.14 | 0.0 | 0 | 0.00 | 0.00 | 0.00 | 0.00 |
| 05/03/26 9:43:30 PM | 37 | 10.0 | 17.0 | 68 | 71 | 65.6 | 58.0 | 29.972 | 7.14 | 0.0 | 0 | 0.00 | 0.00 | 0.00 | 0.00 |
| 05/03/26 9:44:22 PM | 38 | 12.0 | 17.0 | 68 | 71 | 65.6 | 58.0 | 29.975 | 7.14 | 0.0 | 0 | 0.00 | 0.00 | 0.00 | 0.00 |
| 05/03/26 9:45:36 PM | 36 | 4.0 | 17.0 | 68 | 71 | 65.6 | 58.0 | 29.976 | 7.14 | 0.0 | 0 | 0.00 | 0.00 | 0.00 | 0.00 |
| 05/03/26 9:46:25 PM | 36 | 5.0 | 17.0 | 68 | 71 | 65.5 | 58.0 | 29.975 | 7.14 | 0.0 | 0 | 0.00 | 0.00 | 0.00 | 0.00 |
| 05/03/26 9:47:15 PM | 37 | 6.0 | 17.0 | 68 | 71 | 65.5 | 58.0 | 29.974 | 7.14 | 0.0 | 0 | 0.00 | 0.00 | 0.00 | 0.00 |
| 05/03/26 9:48:29 PM | 34 | 5.0 | 17.0 | 68 | 71 | 65.5 | 58.0 | 29.970 | 7.14 | 0.0 | 0 | 0.00 | 0.00 | 0.00 | 0.00 |
| 05/03/26 9:49:18 PM | 31 | 4.0 | 17.0 | 68 | 71 | 65.5 | 58.0 | 29.964 | 7.14 | 0.0 | 0 | 0.00 | 0.00 | 0.00 | 0.00 |
| 05/03/26 9:50:29 PM | 34 | 4.0 | 17.0 | 68 | 71 | 65.5 | 57.9 | 29.963 | 7.14 | 0.0 | 0 | 0.00 | 0.00 | 0.00 | 0.00 |
| 05/03/26 9:51:21 PM | 32 | 6.0 | 17.0 | 68 | 71 | 65.5 | 57.9 | 29.960 | 7.14 | 0.0 | 0 | 0.00 | 0.00 | 0.00 | 0.00 |
| 05/03/26 9:52:35 PM | 36 | 9.0 | 17.0 | 68 | 71 | 65.5 | 57.9 | 29.959 | 7.14 | 0.0 | 0 | 0.00 | 0.00 | 0.00 | 0.00 |
| 05/03/26 9:53:28 PM | 35 | 9.0 | 17.0 | 68 | 71 | 65.4 | 57.9 | 29.958 | 7.14 | 0.0 | 0 | 0.00 | 0.00 | 0.00 | 0.00 |
| 05/03/26 9:54:35 PM | 38 | 9.0 | 17.0 | 68 | 70 | 65.5 | 57.9 | 29.960 | 7.14 | 0.0 | 0 | 0.00 | 0.00 | 0.00 | 0.00 |
| 05/03/26 9:55:28 PM | 38 | 7.0 | 17.0 | 68 | 70 | 65.4 | 57.8 | 29.961 | 7.14 | 0.0 | 0 | 0.00 | 0.00 | 0.00 | 0.00 |
| 05/03/26 9:56:20 PM | 38 | 3.0 | 17.0 | 68 | 70 | 65.4 | 57.8 | 29.965 | 7.14 | 0.0 | 0 | 0.00 | 0.00 | 0.00 | 0.00 |
| 05/03/26 9:57:34 PM | 36 | 3.0 | 17.0 | 68 | 70 | 65.4 | 57.8 | 29.966 | 7.14 | 0.0 | 0 | 0.00 | 0.00 | 0.00 | 0.00 |
| 05/03/26 9:58:26 PM | 32 | 3.0 | 17.0 | 68 | 71 | 65.4 | 57.8 | 29.966 | 7.14 | 0.0 | 0 | 0.00 | 0.00 | 0.00 | 0.00 |
| 05/03/26 9:59:19 PM | 32 | 6.0 | 17.0 | 68 | 70 | 65.4 | 57.8 | 29.969 | 7.14 | 0.0 | 0 | 0.00 | 0.00 | 0.00 | 0.00 |
| 05/03/26 10:00:27 PM | 38 | 5.0 | 17.0 | 68 | 70 | 65.3 | 57.8 | 29.968 | 7.14 | 0.0 | 0 | 0.00 | 0.00 | 0.00 | 0.00 |
| 05/03/26 10:01:19 PM | 36 | 1.0 | 17.0 | 68 | 70 | 65.4 | 57.8 | 29.971 | 7.14 | 0.0 | 0 | 0.00 | 0.00 | 0.00 | 0.00 |
| 05/03/26 10:02:30 PM | 34 | 6.0 | 17.0 | 68 | 70 | 65.3 | 57.8 | 29.973 | 7.14 | 0.0 | 0 | 0.00 | 0.00 | 0.00 | 0.00 |
| 05/03/26 10:03:26 PM | 32 | 8.0 | 17.0 | 68 | 70 | 65.3 | 57.8 | 29.971 | 7.14 | 0.0 | 0 | 0.00 | 0.00 | 0.00 | 0.00 |
| 05/03/26 10:04:36 PM | 36 | 6.0 | 17.0 | 68 | 70 | 65.3 | 57.8 | 29.970 | 7.14 | 0.0 | 0 | 0.00 | 0.00 | 0.00 | 0.00 |
| 05/03/26 10:05:26 PM | 34 | 4.0 | 17.0 | 68 | 70 | 65.3 | 57.8 | 29.970 | 7.14 | 0.0 | 0 | 0.00 | 0.00 | 0.00 | 0.00 |
| 05/03/26 10:06:18 PM | 31 | 8.0 | 17.0 | 68 | 70 | 65.3 | 57.8 | 29.971 | 7.14 | 0.0 | 0 | 0.00 | 0.00 | 0.00 | 0.00 |
| 05/03/26 10:07:29 PM | 37 | 6.0 | 17.0 | 68 | 70 | 65.3 | 57.8 | 29.967 | 7.14 | 0.0 | 0 | 0.00 | 0.00 | 0.00 | 0.00 |
| 05/03/26 10:08:33 PM | 36 | 5.0 | 17.0 | 68 | 70 | 65.4 | 57.8 | 29.970 | 7.14 | 0.0 | 0 | 0.00 | 0.00 | 0.00 | 0.00 |
| 05/03/26 10:09:29 PM | 38 | 6.0 | 17.0 | 68 | 70 | 65.4 | 57.8 | 29.968 | 7.14 | 0.0 | 0 | 0.00 | 0.00 | 0.00 | 0.00 |
| 05/03/26 10:10:19 PM | 36 | 7.0 | 17.0 | 68 | 70 | 65.4 | 57.7 | 29.969 | 7.14 | 0.0 | 0 | 0.00 | 0.00 | 0.00 | 0.00 |
| 05/03/26 10:11:29 PM | 35 | 5.0 | 17.0 | 68 | 70 | 65.5 | 57.7 | 29.968 | 7.14 | 0.0 | 0 | 0.00 | 0.00 | 0.00 | 0.00 |
| 05/03/26 10:12:22 PM | 35 | 3.0 | 17.0 | 68 | 70 | 65.5 | 57.7 | 29.968 | 7.14 | 0.0 | 0 | 0.00 | 0.00 | 0.00 | 0.00 |
| 05/03/26 10:13:32 PM | 32 | 5.0 | 17.0 | 68 | 70 | 65.6 | 57.7 | 29.967 | 7.14 | 0.0 | 0 | 0.00 | 0.00 | 0.00 | 0.00 |
| 05/03/26 10:14:25 PM | 34 | 6.0 | 17.0 | 68 | 70 | 65.6 | 57.7 | 29.967 | 7.14 | 0.0 | 0 | 0.00 | 0.00 | 0.00 | 0.00 |
| 05/03/26 10:15:42 PM | 38 | 6.0 | 17.0 | 68 | 70 | 65.6 | 57.7 | 29.965 | 7.14 | 0.0 | 0 | 0.00 | 0.00 | 0.00 | 0.00 |
| 05/03/26 10:16:28 PM | 36 | 3.0 | 17.0 | 68 | 70 | 65.7 | 57.7 | 29.966 | 7.14 | 0.0 | 0 | 0.00 | 0.00 | 0.00 | 0.00 |
| 05/03/26 10:17:20 PM | 36 | 2.0 | 17.0 | 68 | 70 | 65.7 | 57.7 | 29.967 | 7.14 | 0.0 | 0 | 0.00 | 0.00 | 0.00 | 0.00 |
| 05/03/26 10:18:34 PM | 34 | 4.0 | 17.0 | 68 | 71 | 65.7 | 57.6 | 29.965 | 7.14 | 0.0 | 0 | 0.00 | 0.00 | 0.00 | 0.00 |
| 05/03/26 10:19:27 PM | 38 | 5.0 | 17.0 | 68 | 71 | 65.7 | 57.7 | 29.966 | 7.14 | 0.0 | 0 | 0.00 | 0.00 | 0.00 | 0.00 |
| 05/03/26 10:20:20 PM | 32 | 3.0 | 17.0 | 68 | 71 | 65.9 | 57.7 | 29.966 | 7.14 | 0.0 | 0 | 0.00 | 0.00 | 0.00 | 0.00 |
| 05/03/26 10:21:30 PM | 32 | 3.0 | 17.0 | 68 | 71 | 65.9 | 57.6 | 29.969 | 7.14 | 0.0 | 0 | 0.00 | 0.00 | 0.00 | 0.00 |
| 05/03/26 10:22:17 PM | 35 | 2.0 | 17.0 | 68 | 71 | 65.9 | 57.6 | 29.966 | 7.14 | 0.0 | 0 | 0.00 | 0.00 | 0.00 | 0.00 |
| 05/03/26 10:23:30 PM | 36 | 5.0 | 17.0 | 68 | 71 | 65.9 | 57.6 | 29.968 | 7.14 | 0.0 | 0 | 0.00 | 0.00 | 0.00 | 0.00 |
| 05/03/26 10:24:23 PM | 38 | 2.0 | 17.0 | 68 | 71 | 66.0 | 57.6 | 29.968 | 7.14 | 0.0 | 0 | 0.00 | 0.00 | 0.00 | 0.00 |
| 05/03/26 10:25:34 PM | 36 | 5.0 | 17.0 | 68 | 71 | 66.0 | 57.6 | 29.968 | 7.14 | 0.0 | 0 | 0.00 | 0.00 | 0.00 | 0.00 |
| 05/03/26 10:26:26 PM | 36 | 9.0 | 17.0 | 68 | 71 | 66.0 | 57.6 | 29.967 | 7.14 | 0.0 | 0 | 0.00 | 0.00 | 0.00 | 0.00 |
| 05/03/26 10:27:34 PM | 38 | 6.0 | 17.0 | 68 | 71 | 66.1 | 57.6 | 29.969 | 7.14 | 0.0 | 0 | 0.00 | 0.00 | 0.00 | 0.00 |
| 05/03/26 10:28:26 PM | 36 | 3.0 | 17.0 | 68 | 71 | 66.1 | 57.6 | 29.968 | 7.14 | 0.0 | 0 | 0.00 | 0.00 | 0.00 | 0.00 |
| 05/03/26 10:29:19 PM | 37 | 4.0 | 17.0 | 68 | 71 | 66.1 | 57.5 | 29.967 | 7.14 | 0.0 | 0 | 0.00 | 0.00 | 0.00 | 0.00 |
| 05/03/26 10:30:53 PM | 35 | 6.0 | 17.0 | 68 | 71 | 66.2 | 57.5 | 29.965 | 7.14 | 0.0 | 0 | 0.00 | 0.00 | 0.00 | 0.00 |
| 05/03/26 10:31:25 PM | 39 | 4.0 | 17.0 | 68 | 71 | 66.2 | 57.5 | 29.966 | 7.14 | 0.0 | 0 | 0.00 | 0.00 | 0.00 | 0.00 |
| 05/03/26 10:32:35 PM | 30 | 8.0 | 17.0 | 68 | 71 | 66.2 | 57.5 | 29.966 | 7.14 | 0.0 | 0 | 0.00 | 0.00 | 0.00 | 0.00 |
| 05/03/26 10:33:25 PM | 35 | 2.0 | 17.0 | 68 | 71 | 66.3 | 57.5 | 29.967 | 7.14 | 0.0 | 0 | 0.00 | 0.00 | 0.00 | 0.00 |
| 05/03/26 10:34:36 PM | 36 | 6.0 | 17.0 | 68 | 71 | 66.3 | 57.5 | 29.963 | 7.14 | 0.0 | 0 | 0.00 | 0.00 | 0.00 | 0.00 |
| 05/03/26 10:35:29 PM | 36 | 4.0 | 17.0 | 68 | 71 | 66.3 | 57.5 | 29.963 | 7.14 | 0.0 | 0 | 0.00 | 0.00 | 0.00 | 0.00 |
| 05/03/26 10:36:21 PM | 37 | 4.0 | 17.0 | 68 | 72 | 66.3 | 57.5 | 29.960 | 7.14 | 0.0 | 0 | 0.00 | 0.00 | 0.00 | 0.00 |
| 05/03/26 10:37:32 PM | 32 | 5.0 | 17.0 | 68 | 72 | 66.4 | 57.5 | 29.964 | 7.14 | 0.0 | 0 | 0.00 | 0.00 | 0.00 | 0.00 |
| 05/03/26 10:38:18 PM | 35 | 4.0 | 17.0 | 68 | 72 | 66.4 | 57.5 | 29.960 | 7.14 | 0.0 | 0 | 0.00 | 0.00 | 0.00 | 0.00 |
| 05/03/26 10:39:32 PM | 35 | 3.0 | 17.0 | 68 | 72 | 66.5 | 57.5 | 29.963 | 7.14 | 0.0 | 0 | 0.00 | 0.00 | 0.00 | 0.00 |
| 05/03/26 10:40:24 PM | 36 | 2.0 | 17.0 | 68 | 72 | 66.5 | 57.4 | 29.967 | 7.14 | 0.0 | 0 | 0.00 | 0.00 | 0.00 | 0.00 |
| 05/03/26 10:41:35 PM | 38 | 3.0 | 17.0 | 68 | 72 | 66.5 | 57.4 | 29.966 | 7.14 | 0.0 | 0 | 0.00 | 0.00 | 0.00 | 0.00 |
| 05/03/26 10:42:28 PM | 35 | 5.0 | 17.0 | 68 | 72 | 66.5 | 57.4 | 29.968 | 7.14 | 0.0 | 0 | 0.00 | 0.00 | 0.00 | 0.00 |
| 05/03/26 10:43:20 PM | 37 | 4.0 | 17.0 | 68 | 72 | 66.6 | 57.4 | 29.966 | 7.14 | 0.0 | 0 | 0.00 | 0.00 | 0.00 | 0.00 |
| 05/03/26 10:44:28 PM | 37 | 4.0 | 17.0 | 68 | 72 | 66.6 | 57.4 | 29.965 | 7.14 | 0.0 | 0 | 0.00 | 0.00 | 0.00 | 0.00 |
| 05/03/26 10:45:42 PM | 35 | 5.0 | 17.0 | 68 | 72 | 66.6 | 57.4 | 29.967 | 7.14 | 0.0 | 0 | 0.00 | 0.00 | 0.00 | 0.00 |
| 05/03/26 10:46:31 PM | 36 | 3.0 | 17.0 | 68 | 72 | 66.7 | 57.4 | 29.966 | 7.14 | 0.0 | 0 | 0.00 | 0.00 | 0.00 | 0.00 |
| 05/03/26 10:47:24 PM | 36 | 3.0 | 17.0 | 68 | 72 | 66.6 | 57.4 | 29.964 | 7.14 | 0.0 | 0 | 0.00 | 0.00 | 0.00 | 0.00 |
| 05/03/26 10:48:35 PM | 38 | 2.0 | 17.0 | 68 | 72 | 66.7 | 57.4 | 29.963 | 7.14 | 0.0 | 0 | 0.00 | 0.00 | 0.00 | 0.00 |
University Police wind advisory reference
For campus closure information please call the campus Emergency Hotline at (909) 537-5999
© All rights reserved. Unauthorized duplication or distribution is prohibited
Never base important decisions on this or any weather information obtained from the Internet
California State University, San Bernardino
5500 University Parkway, San Bernardino, CA. 92407
Phone: (909) 537-5108, Email: Weather Webmaster
Last Updated: